[[{"header":{"parameterUnit":"m.s-1","parameterCategory":1,"la1":30.6,"la2":28.766,"lo1":-90.7593,"lo2":-88.6598,"dx":0.0162,"dy":0.0183,"nx":116,"ny":114,"refTime":"2022-12-03T18:00:00:Z","depth":0,"parameterNumber":2,"parameterNumberName":"U-component_of_WINDS"},"data":[0.0,0.0,0.0,0.0,0.0,0.0,0.0,0.0,0.0,0.0,0.0,0.0,0.0,0.0,0.0,0.0,0.0,0.0,0.0,0.0,0.0,0.0,0.0,0.0,0.0,0.0,0.0,0.0,0.0,0.0,0.0,0.0,0.0,0.0,0.0,0.0,0.0,0.0,0.0,0.0,0.0,0.0,0.0,0.0,0.0,0.0,0.0,0.0,0.0,0.0,0.0,0.0,0.0,0.0,0.0,0.0,0.0,0.0,0.0,0.0,0.0,0.0,0.0,0.0,0.0,0.0,0.0,0.0,0.0,0.0,0.0,0.0,0.0,0.0,0.0,0.0,0.0,0.0,0.0,0.0,0.0,0.0,0.0,0.0,0.0,0.0,0.0,0.0,0.0,0.0,0.0,0.0,0.0,0.0,0.0,0.0,0.0,0.0,0.0,0.0,0.0,0.0,0.0,0.0,0.0,0.0,0.0,0.0,0.0,0.0,0.0,0.0,0.0,0.0,0.0,0.0,0.0,0.0,0.0,0.0,0.0,0.0,0.0,0.0,0.0,0.0,0.0,0.0,0.0,0.0,0.0,0.0,0.0,0.0,0.0,0.0,0.0,0.0,0.0,0.0,0.0,0.0,0.0,0.0,0.0,0.0,0.0,0.0,0.0,0.0,0.0,0.0,0.0,0.0,0.0,0.0,0.0,0.0,0.0,0.0,0.0,0.0,0.0,0.0,0.0,0.0,0.0,0.0,0.0,0.0,0.0,0.0,0.0,0.0,0.0,0.0,0.0,0.0,0.0,0.0,0.0,0.0,0.0,0.0,0.0,0.0,0.0,0.0,0.0,0.0,0.0,0.0,0.0,0.0,0.0,0.0,0.0,0.0,0.0,0.0,0.0,0.0,0.0,0.0,0.0,0.0,0.0,0.0,0.0,0.0,0.0,0.0,0.0,0.0,0.0,0.0,0.0,0.0,0.0,0.0,0.0,0.0,0.0,0.0,0.0,0.0,0.0,0.0,0.0,0.0,0.0,0.0,0.0,0.0,0.0,0.0,0.0,0.0,0.0,0.0,0.0,0.0,0.0,0.0,0.0,0.0,0.0,0.0,0.0,0.0,0.0,0.0,0.0,0.0,0.0,0.0,0.0,0.0,0.0,0.0,0.0,0.0,0.0,0.0,0.0,0.0,0.0,0.0,0.0,0.0,0.0,0.0,0.0,0.0,0.0,0.0,0.0,0.0,0.0,0.0,0.0,0.0,0.0,0.0,0.0,0.0,0.0,0.0,0.0,0.0,0.0,0.0,0.0,0.0,0.0,0.0,0.0,0.0,0.0,0.0,0.0,0.0,0.0,0.0,0.0,0.0,0.0,0.0,0.0,0.0,0.0,0.0,0.0,0.0,0.0,0.0,0.0,0.0,0.0,0.0,0.0,0.0,0.0,0.0,0.0,0.0,0.0,0.0,0.0,0.0,0.0,0.0,0.0,0.0,0.0,0.0,0.0,0.0,0.0,0.0,0.0,0.0,0.0,0.0,0.0,0.0,0.0,0.0,0.0,0.0,0.0,0.0,0.0,0.0,0.0,0.0,0.0,0.0,0.0,0.0,0.0,0.0,0.0,0.0,0.0,0.0,0.0,0.0,0.0,0.0,0.0,0.0,0.0,0.0,0.0,0.0,0.0,0.0,0.0,0.0,0.0,0.0,0.0,0.0,0.0,0.0,0.0,0.0,0.0,0.0,0.0,0.0,0.0,0.0,0.0,0.0,0.0,0.0,0.0,0.0,0.0,0.0,0.0,0.0,0.0,0.0,0.0,0.0,0.0,0.0,0.0,0.0,0.0,0.0,0.0,0.0,0.0,0.0,0.0,0.0,0.0,0.0,0.0,0.0,0.0,0.0,0.0,0.0,0.0,0.0,0.0,0.0,0.0,0.0,0.0,0.0,0.0,0.0,0.0,0.0,0.0,0.0,0.0,0.0,0.0,0.0,0.0,0.0,0.0,0.0,0.0,0.0,0.0,0.0,0.0,0.0,0.0,0.0,0.0,0.0,0.0,0.0,0.0,0.0,0.0,0.0,0.0,0.0,0.0,0.0,0.0,0.0,0.0,0.0,0.0,0.0,0.0,0.0,0.0,0.0,0.0,0.0,0.0,0.0,0.0,0.0,0.0,0.0,0.0,0.0,0.0,0.0,0.0,0.0,0.0,0.0,0.0,0.0,0.0,0.0,0.0,0.0,0.0,0.0,0.0,0.0,0.0,0.0,0.0,0.0,0.0,0.0,0.0,0.0,0.0,0.0,0.0,0.0,0.0,0.0,0.0,0.0,0.0,0.0,0.0,0.0,0.0,0.0,0.0,0.0,0.0,0.0,0.0,0.0,0.0,0.0,0.0,0.0,0.0,0.0,0.0,0.0,0.0,0.0,0.0,0.0,0.0,0.0,0.0,0.0,0.0,0.0,0.0,0.0,0.0,0.0,0.0,0.0,0.0,0.0,0.0,0.0,0.0,0.0,0.0,0.0,0.0,0.0,0.0,0.0,0.0,0.0,0.0,0.0,0.0,0.0,0.0,0.0,0.0,0.0,0.0,0.0,0.0,0.0,0.0,0.0,0.0,0.0,0.0,0.0,0.0,0.0,0.0,0.0,0.0,0.0,0.0,0.0,0.0,0.0,0.0,0.0,0.0,0.0,0.0,0.0,0.0,0.0,0.0,0.0,0.0,0.0,0.0,0.0,0.0,0.0,0.0,0.0,0.0,0.0,0.0,0.0,0.0,0.0,0.0,0.0,0.0,0.0,0.0,0.0,0.0,0.0,0.0,0.0,0.0,0.0,0.0,0.0,0.0,0.0,0.0,0.0,0.0,0.0,0.0,0.0,0.0,0.0,0.0,0.0,0.0,0.0,0.0,0.0,0.0,0.0,0.0,0.0,0.0,0.0,0.0,0.0,0.0,0.0,0.0,0.0,0.0,0.0,0.0,0.0,0.0,0.0,0.0,0.0,0.0,0.0,0.0,0.0,0.0,0.0,0.0,0.0,0.0,0.0,0.0,0.0,0.0,0.0,0.0,0.0,0.0,0.0,0.0,0.0,0.0,0.0,0.0,0.0,0.0,0.0,0.0,0.0,0.0,0.0,0.0,0.0,0.0,0.0,0.0,0.0,0.0,0.0,0.0,0.0,0.0,0.0,0.0,0.0,0.0,0.0,0.0,0.0,0.0,0.0,0.0,0.0,0.0,0.0,0.0,0.0,0.0,0.0,0.0,0.0,0.0,0.0,0.0,0.0,0.0,0.0,0.0,0.0,0.0,0.0,0.0,0.0,0.0,0.0,0.0,0.0,0.0,0.0,0.0,0.0,0.0,0.0,0.0,0.0,0.0,0.0,0.0,0.0,0.0,0.0,0.0,0.0,0.0,0.0,0.0,0.0,0.0,0.0,0.0,0.0,0.0,0.0,0.0,0.0,0.0,0.0,0.0,0.0,0.0,0.0,0.0,0.0,0.0,0.0,0.0,0.0,0.0,0.0,0.0,0.0,0.0,0.0,0.0,0.0,0.0,0.0,0.0,0.0,0.0,0.0,0.0,0.0,0.0,0.0,0.0,0.0,0.0,0.0,0.0,0.0,0.0,0.0,0.0,0.0,0.0,0.0,0.0,0.0,0.0,0.0,0.0,0.0,0.0,0.0,0.0,0.0,0.0,0.0,0.0,0.0,0.0,0.0,0.0,0.0,0.0,0.0,0.0,0.0,0.0,0.0,0.0,0.0,0.0,0.0,0.0,0.0,0.0,0.0,0.0,0.0,0.0,0.0,0.0,0.0,0.0,0.0,0.0,0.0,0.0,0.0,0.0,0.0,0.0,0.0,0.0,0.0,0.0,0.0,0.0,0.0,0.0,0.0,0.0,0.0,0.0,0.0,0.0,0.0,0.0,0.0,0.0,0.0,0.0,0.0,0.0,0.0,0.0,0.0,0.0,0.0,0.0,0.0,0.0,0.0,0.0,0.0,0.0,0.0,0.0,0.0,0.0,0.0,0.0,0.0,0.0,0.0,0.0,0.0,0.0,0.0,0.0,0.0,0.0,0.0,0.0,0.0,0.0,0.0,0.0,0.0,0.0,0.0,0.0,0.0,0.0,0.0,0.0,0.0,0.0,0.0,0.0,0.0,0.0,0.0,0.0,0.0,0.0,0.0,0.0,0.0,0.0,0.0,0.0,0.0,0.0,0.0,0.0,0.0,0.0,0.0,0.0,0.0,0.0,0.0,0.0,0.0,0.0,0.0,0.0,0.0,0.0,0.0,0.0,0.0,0.0,0.0,0.0,0.0,0.0,0.0,0.0,0.0,0.0,0.0,0.0,0.0,0.0,0.0,0.0,0.0,0.0,0.0,0.0,0.0,0.0,0.0,0.0,0.0,0.0,0.0,0.0,0.0,0.0,0.0,0.0,0.0,0.0,0.0,0.0,0.0,0.0,0.0,0.0,0.0,0.0,0.0,0.0,0.0,0.0,0.0,0.0,0.0,0.0,0.0,0.0,0.0,0.0,0.0,0.0,0.0,0.0,0.0,0.0,0.0,0.0,0.0,0.0,0.0,0.0,0.0,0.0,0.0,0.0,0.0,0.0,0.0,0.0,0.0,0.0,0.0,0.0,0.0,0.0,0.0,0.0,0.0,0.0,0.0,0.0,0.0,0.0,0.0,0.0,0.0,0.0,0.0,0.0,0.0,0.0,0.0,0.0,0.0,0.0,0.0,0.0,0.0,0.0,0.0,0.0,0.0,0.0,0.0,0.0,0.0,0.0,0.0,0.0,0.0,0.0,0.0,0.0,0.0,0.0,0.0,0.0,0.0,0.0,0.0,0.0,0.0,0.0,0.0,0.0,0.0,0.0,0.0,0.0,0.0,0.0,0.0,0.0,0.0,0.0,0.0,0.0,0.0,0.0,0.0,0.0,0.0,0.0,0.0,0.0,0.0,0.0,0.0,0.0,0.0,0.0,0.0,0.0,0.0,0.0,0.0,0.0,0.0,0.0,0.0,0.0,0.0,0.0,0.0,0.0,0.0,0.0,0.0,0.0,0.0,0.0,0.0,0.0,0.0,0.0,0.0,0.0,0.0,0.0,0.0,0.0,0.0,0.0,0.0,0.0,0.0,0.0,0.0,0.0,0.0,0.0,0.0,0.0,0.0,0.0,0.0,0.0,0.0,0.0,0.0,0.0,0.0,0.0,0.0,0.0,0.0,0.0,0.0,0.0,0.0,0.0,0.0,0.0,0.0,0.0,0.0,0.0,0.0,0.0,0.0,0.0,0.0,0.0,0.0,0.0,0.0,0.0,0.0,0.0,0.0,0.0,0.0,0.0,0.0,0.0,0.0,0.0,0.0,0.0,0.0,0.0,0.0,0.0,0.0,0.0,0.0,0.0,0.0,0.0,0.0,0.0,0.0,0.0,0.0,0.0,0.0,0.0,0.0,0.0,0.0,0.0,0.0,0.0,0.0,0.0,0.0,0.0,0.0,0.0,0.0,0.0,0.0,0.0,0.0,0.0,0.0,0.0,0.0,0.0,0.0,0.0,0.0,0.0,0.0,0.0,0.0,0.0,0.0,0.0,0.0,0.0,0.0,0.0,0.0,0.0,0.0,0.0,0.0,0.0,0.0,0.0,0.0,0.0,0.0,0.0,0.0,0.0,0.0,0.0,0.0,0.0,0.0,0.0,0.0,0.0,0.0,0.0,0.0,0.0,0.0,0.0,0.0,0.0,0.0,0.0,0.0,0.0,0.0,0.0,0.0,0.0,0.0,0.0,0.0,0.0,0.0,0.0,0.0,0.0,0.0,0.0,0.0,0.0,0.0,0.0,0.0,0.0,0.0,0.0,0.0,0.0,0.0,0.0,0.0,0.0,0.0,0.0,0.0,0.0,0.0,0.0,0.0,0.0,0.0,0.0,0.0,0.0,0.0,0.0,0.0,0.0,0.0,0.0,0.0,0.0,0.0,0.0,0.0,0.0,0.0,0.0,0.0,0.0,0.0,0.0,0.0,0.0,0.0,0.0,0.0,0.0,0.0,0.0,0.0,0.0,0.0,0.0,0.0,0.0,0.0,0.0,0.0,0.0,0.0,0.0,0.0,0.0,0.0,-2.4043,0.0,0.0,0.0,0.0,0.0,0.0,0.0,0.0,0.0,0.0,0.0,0.0,0.0,0.0,0.0,0.0,0.0,0.0,0.0,0.0,0.0,0.0,0.0,0.0,-1.0312,-1.0312,-1.0312,-1.0312,0.0,0.0,0.0,0.0,0.0,0.0,0.0,0.0,0.0,-0.957,-1.0781,-1.125,-1.3242,-1.6562,-1.5664,-1.4805,-1.3945,0.0,0.0,0.0,0.0,0.0,0.0,0.0,0.0,0.0,0.0,0.0,0.0,0.0,0.0,0.0,0.0,0.0,0.0,0.0,0.0,0.0,0.0,0.0,0.0,0.0,0.0,0.0,0.0,0.0,0.0,0.0,0.0,0.0,0.0,0.0,0.0,0.0,0.0,0.0,0.0,0.0,0.0,0.0,0.0,0.0,0.0,0.0,0.0,0.0,0.0,0.0,0.0,0.0,0.0,0.0,0.0,0.0,0.0,0.0,0.0,0.0,0.0,0.0,0.0,0.0,0.0,0.0,0.0,0.0,0.0,0.0,-2.5967,0.0,0.0,0.0,0.0,0.0,0.0,0.0,0.0,0.0,0.0,0.0,0.0,0.0,0.0,0.0,0.0,0.0,0.0,0.0,0.0,0.0,-1.043,-1.0703,-1.0742,-1.0937,-1.1367,-1.1133,-1.0977,-1.0977,-1.0703,0.0,0.0,0.0,0.0,-1.0312,-0.9883,-1.1211,-1.4336,-1.5586,-1.8086,-2.1719,-2.1875,-2.1172,-1.9687,-1.7344,0.0,0.0,0.0,0.0,0.0,0.0,0.0,0.0,0.0,0.0,0.0,0.0,0.0,0.0,0.0,0.0,0.0,0.0,0.0,0.0,0.0,0.0,0.0,0.0,0.0,0.0,0.0,0.0,0.0,0.0,0.0,0.0,0.0,0.0,0.0,0.0,0.0,0.0,0.0,0.0,0.0,0.0,0.0,0.0,0.0,0.0,0.0,0.0,0.0,0.0,0.0,0.0,0.0,0.0,0.0,0.0,0.0,0.0,0.0,0.0,0.0,0.0,0.0,-3.0473,-3.1545,-3.2385,-3.2385,-3.4,-3.6577,-3.2237,-3.1891,-3.3975,-2.8242,0.0,0.0,0.0,0.0,0.0,0.0,0.0,0.0,0.0,0.0,0.0,0.0,0.0,0.0,0.0,0.0,0.0,0.0,0.0,-1.0898,-1.2383,-1.2578,-1.3437,-1.5664,-1.4453,-1.3594,-1.3594,-1.2227,0.0,0.0,0.0,-1.0312,-1.0312,-1.168,-1.332,-1.5234,-2.125,-2.4844,-2.6172,-2.6914,-2.7148,-2.6758,-2.2031,-1.9844,-1.9609,0.0,0.0,0.0,0.0,0.0,0.0,0.0,0.0,0.0,0.0,0.0,0.0,0.0,0.0,0.0,0.0,0.0,0.0,0.0,0.0,0.0,0.0,0.0,0.0,0.0,0.0,0.0,0.0,0.0,0.0,0.0,0.0,0.0,0.0,0.0,0.0,0.0,0.0,0.0,0.0,0.0,-2.4577,-2.5774,0.0,0.0,0.0,0.0,0.0,0.0,0.0,0.0,0.0,0.0,0.0,0.0,0.0,-2.8621,-2.9731,-3.2808,-3.4385,-3.4538,-3.7546,-3.9431,-4.0308,-4.0308,-4.0969,-4.2008,-4.0585,0.0,-3.5192,-3.3545,0.0,0.0,0.0,0.0,0.0,0.0,0.0,0.0,0.0,0.0,0.0,0.0,0.0,0.0,0.0,0.0,0.0,0.0,0.0,0.0,0.0,-1.6211,-1.7344,-1.9453,-1.8477,-1.7148,-1.5664,-1.4414,0.0,0.0,-1.0547,-1.0742,-1.1758,-1.3437,-1.6562,-2.1172,-2.6172,-2.8828,-2.9219,-2.957,-2.9766,-2.9648,-2.7383,-2.5039,-2.2617,-2.0977,0.0,0.0,0.0,0.0,0.0,0.0,0.0,0.0,0.0,0.0,0.0,0.0,0.0,0.0,0.0,0.0,0.0,0.0,0.0,0.0,0.0,0.0,0.0,0.0,0.0,0.0,0.0,0.0,0.0,0.0,0.0,0.0,0.0,0.0,0.0,0.0,0.0,0.0,0.0,-2.3735,-2.6505,-2.7852,-2.5428,-2.3269,0.0,0.0,0.0,0.0,0.0,0.0,0.0,0.0,0.0,-3.2045,-3.343,-3.4968,-3.6808,-3.8769,-3.9777,-3.9777,-4.1277,-4.2162,-4.2547,-4.2547,-4.2739,-4.3085,-4.2701,-4.147,-3.9508,-3.6276,-3.2891,-2.955,0.0,0.0,0.0,0.0,-2.65,-2.7,0.0,0.0,0.0,0.0,0.0,0.0,0.0,0.0,0.0,0.0,0.0,0.0,-1.8672,-1.9766,-2.1055,-2.3047,-2.2187,-2.0859,-1.9102,-1.6953,-1.4883,-1.3008,-1.1445,-1.1445,-1.3164,-1.6172,-2.0547,-2.6367,-2.9414,-3.0898,-3.0898,-3.0898,-3.0898,-3.0898,-3.0898,-2.9101,-2.5977,-2.4648,-2.25,-1.9687,0.0,0.0,0.0,0.0,0.0,0.0,0.0,0.0,0.0,0.0,0.0,0.0,0.0,0.0,0.0,0.0,0.0,0.0,0.0,0.0,0.0,0.0,0.0,0.0,0.0,0.0,0.0,0.0,0.0,0.0,0.0,0.0,0.0,0.0,0.0,0.0,0.0,-2.6043,-2.8582,-2.9627,-2.8275,-2.6505,0.0,0.0,0.0,0.0,0.0,0.0,-3.0968,-3.1891,-3.3923,-3.7346,-3.8661,-4.0239,-4.2124,-4.2777,-4.3085,-4.3085,-4.3085,-4.3201,-4.3393,-4.3393,-4.3547,-4.3739,-4.3508,-4.3393,-4.3085,-3.9084,-3.6699,-3.5244,-3.2705,-3.0935,-3.0083,-3.1968,-3.2692,-3.3231,0.0,0.0,0.0,0.0,0.0,0.0,0.0,0.0,0.0,0.0,0.0,-1.7891,-2.1328,-2.2422,-2.3945,-2.6523,-2.5195,-2.4492,-2.5195,-1.9844,-1.6562,-1.6445,-1.3281,-1.2305,-1.3984,-2.0547,-2.5312,-2.8164,-3.0,-3.0898,-3.0898,-3.0898,-3.0898,-3.0898,-3.0898,-3.0781,-3.0391,-2.7891,-2.6211,-2.4883,-1.9844,0.0,0.0,0.0,0.0,0.0,0.0,0.0,0.0,0.0,0.0,0.0,0.0,0.0,0.0,0.0,0.0,0.0,0.0,0.0,0.0,0.0,0.0,0.0,0.0,0.0,0.0,0.0,0.0,0.0,0.0,0.0,0.0,0.0,0.0,0.0,0.0,0.0,0.0,-3.166,-3.2122,0.0,0.0,0.0,0.0,-2.8896,-3.0506,-3.2929,-3.6154,-3.7161,-3.9161,-4.2624,-4.2816,-4.2893,-4.3047,-4.3085,-4.3085,-4.3085,-4.3085,-4.3508,-4.4239,-4.4239,-4.4701,-4.5441,-4.4586,-4.4239,-4.4162,-4.3124,-4.1277,-3.9015,-3.8861,-3.7276,-3.5423,-3.793,-3.8861,-3.9246,0.0,0.0,0.0,-1.125,-1.0664,-1.0312,-1.0312,-1.1523,-1.2852,-1.3945,-1.7578,-2.1133,-2.4023,-2.6094,-2.8125,-3.0156,-2.9258,-2.8008,-2.6641,-2.1953,-1.9687,-2.0781,-1.6992,-1.7227,-2.2305,-2.5352,-2.793,-2.9961,-3.0586,-3.1172,-3.1758,-3.1758,-3.1758,-3.1758,-3.1758,-3.1758,-3.1641,-3.0156,-2.8359,-2.6328,-2.3906,-2.0586,0.0,0.0,0.0,0.0,0.0,0.0,0.0,0.0,0.0,0.0,0.0,0.0,0.0,0.0,0.0,0.0,0.0,0.0,0.0,0.0,0.0,0.0,0.0,0.0,0.0,0.0,0.0,0.0,0.0,0.0,0.0,0.0,0.0,0.0,0.0,0.0,0.0,-3.2583,-3.3737,0.0,-3.1737,-3.3314,-3.4538,-3.4814,-3.693,-3.8969,-4.0739,-4.1123,-4.1854,-4.3047,-4.3585,-4.3855,-4.3855,-4.4432,-4.471,-4.471,-4.471,-4.4863,-4.5133,-4.5133,-4.5325,-4.5594,-4.5287,-4.5133,-4.5133,-4.4825,-4.3547,-4.1739,-4.1739,-4.12,-4.0508,-4.1393,-4.1739,-4.1893,0.0,0.0,0.0,-1.1211,-1.0664,-1.0312,-1.0312,-1.1992,-1.3906,-1.5625,-1.9883,-2.3828,-2.6719,-2.8828,-3.0508,-3.1641,-3.1211,-3.0273,-2.8867,-2.4453,-2.25,-2.3906,-2.0703,-2.1445,-2.6875,-2.8437,-2.9883,-3.1328,-3.1601,-3.2031,-3.2617,-3.2617,-3.2617,-3.2617,-3.2617,-3.2617,-3.2578,-3.1992,-3.0586,-2.8594,-2.6836,-2.3906,-2.0352,0.0,0.0,0.0,0.0,0.0,0.0,0.0,0.0,0.0,0.0,0.0,0.0,0.0,0.0,0.0,0.0,0.0,0.0,0.0,0.0,0.0,0.0,0.0,0.0,0.0,0.0,0.0,0.0,0.0,0.0,0.0,0.0,0.0,0.0,-3.1429,-3.4314,-3.343,-3.5391,-3.6084,-3.4353,-3.6731,-3.8654,-3.9238,-4.1123,-4.2624,-4.347,-4.3508,-4.3624,-4.3932,-4.447,-4.4739,-4.4739,-4.5325,-4.5594,-4.5594,-4.5594,-4.5594,-4.5594,-4.5594,-4.5594,-4.5594,-4.5594,-4.5594,-4.5594,-4.5594,-4.494,-4.3932,-4.3932,-4.3932,-4.3932,-4.3932,-4.3932,-4.3932,0.0,0.0,-1.1289,-1.0469,-1.0312,-1.0312,-1.0312,-1.25,-1.5352,-1.8828,-2.2266,-2.5742,-2.918,-3.0351,-3.0898,-3.0898,-3.0898,-3.125,-3.2109,-2.7305,-2.4805,-2.5664,-2.4258,-2.4648,-2.7148,-2.9648,-3.1367,-3.2226,-3.3008,-3.3398,-3.3437,-3.3437,-3.3437,-3.3437,-3.3437,-3.3437,-3.3437,-3.3398,-3.2969,-3.1992,-2.8555,-2.6641,-2.543,0.0,0.0,0.0,0.0,0.0,0.0,0.0,0.0,0.0,0.0,0.0,0.0,0.0,0.0,0.0,0.0,0.0,0.0,0.0,0.0,0.0,0.0,0.0,0.0,0.0,0.0,0.0,0.0,0.0,0.0,0.0,0.0,0.0,-3.0654,-3.3462,-3.5308,-3.4475,-3.7322,-3.8661,-3.7,-3.9846,-4.1808,-4.1885,-4.2662,-4.3508,-4.4316,-4.4355,-4.4739,-4.5556,-4.5594,-4.5594,-4.5594,-4.5594,-4.5594,-4.5594,-4.5594,-4.5594,-4.5594,-4.5594,-4.5594,-4.5594,-4.5594,-4.5594,-4.5594,-4.5594,-4.5594,-4.5594,-4.5594,-4.5594,-4.5594,-4.5594,-4.5594,-4.5594,-1.1797,-1.1094,-1.0586,-1.0352,-1.0312,-1.0312,-1.0312,-1.3008,-1.5859,-1.8086,-2.2422,-2.6172,-2.8398,-3.0,-3.0898,-3.0898,-3.0898,-3.1016,-3.125,-2.6953,-2.4805,-2.5664,-2.8281,-3.0312,-3.1601,-3.1758,-3.2266,-3.3086,-3.3281,-3.3711,-3.4336,-3.4336,-3.4336,-3.4336,-3.4336,-3.4336,-3.4297,-3.3672,-3.3633,-3.3867,-3.2266,-3.0,-2.7422,0.0,0.0,0.0,0.0,0.0,0.0,0.0,0.0,0.0,0.0,0.0,0.0,0.0,0.0,0.0,0.0,0.0,0.0,0.0,0.0,0.0,0.0,0.0,0.0,0.0,0.0,0.0,0.0,0.0,0.0,0.0,-3.1352,-3.4154,-3.3276,-3.6084,-3.8161,-3.7938,-3.9246,-4.0239,-4.0385,-4.1231,-4.2316,-4.3508,-4.3816,-4.4355,-4.521,-4.5248,-4.5364,-4.5594,-4.5594,-4.5594,-4.5594,-4.5594,-4.5594,-4.5594,-4.5594,-4.5594,-4.5594,-4.5594,-4.5594,-4.5594,-4.5594,-4.5594,-4.5594,-4.5594,-4.5594,-4.5594,-4.5594,-4.5594,-4.5594,-4.5594,-4.5594,-4.5594,-1.1211,-1.0664,-1.0312,-1.0312,-1.0312,-1.0312,-1.0312,-1.3203,-1.6289,-1.8789,-2.2969,-2.6641,-2.9101,-3.0273,-3.0898,-3.0898,-3.1211,-3.1133,-3.0391,-2.7656,-2.6602,-2.7812,-3.0312,-3.2187,-3.3359,-3.3281,-3.3476,-3.3945,-3.4297,-3.4766,-3.5234,-3.5234,-3.5234,-3.5234,-3.5234,-3.5234,-3.5195,-3.4687,-3.4766,-3.5195,-3.4687,-3.2851,-3.0351,-2.9492,-2.793,-2.6016,-2.4414,-2.3828,-2.375,-2.332,0.0,0.0,0.0,0.0,0.0,0.0,0.0,0.0,0.0,0.0,0.0,0.0,0.0,0.0,0.0,0.0,0.0,0.0,0.0,0.0,0.0,0.0,0.0,0.0,-3.4776,-3.7046,-3.686,-3.8553,-3.9785,-3.9785,-4.0546,-4.1239,-4.1731,-4.2431,-4.3239,-4.4239,-4.4624,-4.5056,-4.5556,-4.5594,-4.5594,-4.5594,-4.5594,-4.5594,-4.5594,-4.5594,-4.5594,-4.5594,-4.5594,-4.5594,-4.5594,-4.5594,-4.5594,-4.5594,-4.5594,-4.5594,-4.5594,-4.5594,-4.5594,0.0,0.0,0.0,0.0,0.0,-4.5594,-4.5594,-1.0469,-1.0312,-1.0312,-1.0312,-1.0312,-1.0312,-1.043,-1.3359,-1.6797,-2.0273,-2.3711,-2.7148,-3.0547,-3.0898,-3.0898,-3.0898,-3.1797,-3.1641,-3.0,-2.9062,-2.9297,-3.082,-3.0976,-3.1836,-3.3516,-3.4297,-3.4766,-3.4844,-3.5625,-3.6016,-3.6016,-3.6016,-3.6016,-3.6016,-3.6016,-3.6016,-3.6016,-3.6016,-3.6016,-3.6016,-3.6016,-3.5,-3.3476,-3.2734,-3.2422,-3.2031,-2.9726,-2.8867,-2.8437,-2.5547,0.0,0.0,0.0,0.0,0.0,0.0,0.0,0.0,0.0,0.0,0.0,0.0,0.0,0.0,0.0,0.0,0.0,0.0,0.0,0.0,0.0,0.0,0.0,0.0,-3.7777,-3.9708,-4.0516,-4.0669,-4.0669,-4.0669,-4.1431,-4.1962,-4.2077,-4.3431,-4.4355,-4.4432,-4.5171,-4.5594,-4.5594,0.0,0.0,0.0,0.0,-4.5594,-4.5594,-4.5594,-4.5594,-4.5594,-4.5594,-4.5594,-4.5594,-4.5594,-4.5594,-4.5594,-4.5594,-4.5594,-4.5594,-4.5594,-4.5594,-4.5594,-4.5594,-4.5594,-4.5594,-4.5594,-4.5594,-4.5594,-1.0312,-1.0312,-1.0312,-1.0312,-1.0312,-1.0547,-1.125,-1.4258,-1.7695,-2.1172,-2.4648,-2.7812,-3.0586,-3.0898,-3.0898,-3.0898,-3.2305,-3.2734,-3.1758,-3.0898,-3.0547,-3.0898,-3.1562,-3.2734,-3.4414,-3.4609,-3.5039,-3.5742,-3.5937,-3.6016,-3.6016,-3.6016,-3.6016,-3.6016,-3.6016,-3.6016,-3.6016,-3.6016,-3.6016,-3.6016,-3.6016,-3.5391,-3.4414,-3.4297,-3.3789,-3.3086,-3.2617,-3.2422,-3.2539,-3.3242,-3.168,-2.9492,-3.0039,-2.793,0.0,0.0,0.0,0.0,0.0,0.0,0.0,0.0,0.0,0.0,0.0,0.0,0.0,0.0,0.0,0.0,0.0,0.0,0.0,-3.6231,-3.8623,-4.0554,-4.1431,-4.1546,-4.1546,-4.1546,-4.2316,-4.3085,-4.3739,-4.4124,-4.4586,-4.5287,-4.5518,-4.5594,-4.5594,-4.5594,-4.5594,-4.5594,-4.5594,-4.5594,-4.5594,-4.5594,-4.5594,-4.5594,0.0,0.0,-4.5594,-4.5594,-4.5594,-4.5594,-4.5594,-4.5594,-4.5594,-4.5594,-4.5594,-4.5594,-4.5594,-4.5594,-4.5594,-4.5594,-4.5594,-4.5594,-1.1602,-1.125,-1.0937,-1.0937,-1.1328,-1.1602,-1.1602,-1.4492,-1.7773,-2.0859,-2.4219,-2.7187,-2.9375,-2.9609,-2.9258,-2.8359,-2.9062,-3.0117,-3.1445,-3.0742,-3.082,-3.2109,-3.2578,-3.3594,-3.5312,-3.5351,-3.5547,-3.6016,-3.6016,-3.6016,-3.6016,-3.6016,-3.6016,-3.6016,-3.6016,-3.6016,-3.6016,-3.6016,-3.6016,-3.6016,-3.6016,-3.5742,-3.5351,-3.5351,-3.5078,-3.4648,-3.4219,-3.4336,-3.4687,-3.4687,-3.3867,-3.2891,-3.332,-3.1367,-2.8359,0.0,0.0,0.0,0.0,0.0,0.0,0.0,0.0,0.0,0.0,0.0,0.0,0.0,0.0,-3.0544,-3.3077,0.0,-3.6654,-3.8315,-4.0046,-4.1316,-4.1731,-4.2508,-4.2893,-4.2508,-4.3201,-4.3855,-4.4239,-4.4701,-4.5133,-4.5556,-4.5594,-4.5594,-4.5594,-4.5594,-4.5594,-4.5594,-4.5594,-4.5594,-4.5594,-4.5594,-4.5594,-4.5594,-4.5594,-4.5594,-4.5594,-4.5594,-4.5594,-4.5594,-4.5594,-4.5594,-4.5594,-4.5594,-4.5594,-4.5594,-4.5594,-4.5594,-4.5594,-4.5594,-4.5594,-4.5594,-1.3086,-1.2578,-1.2031,-1.1875,-1.2422,-1.2734,-1.2187,-1.4727,-1.7656,-2.0273,-2.3281,-2.582,-2.7383,-2.7383,-2.6914,-2.6016,-2.5937,-2.7422,-3.0937,-3.0351,-3.0859,-3.3086,-3.332,-3.4141,-3.5703,-3.5898,-3.6016,-3.6016,-3.6016,-3.6016,-3.6016,-3.6016,-3.6016,-3.6016,-3.6016,-3.6016,-3.6016,-3.6016,-3.6016,-3.6016,-3.6016,-3.6016,-3.6016,-3.6016,-3.6016,-3.5898,-3.5195,-3.5391,-3.5781,-3.4375,-3.4375,-3.4961,-3.4961,-3.3555,-3.1562,-3.0,-2.8711,0.0,0.0,0.0,0.0,0.0,0.0,0.0,0.0,-2.658,-2.7434,-3.1308,-3.2231,-3.3385,-3.6815,-3.743,-3.8161,-4.04,-4.1354,-4.1923,-4.2239,-4.3431,-4.4124,-4.3624,-4.4162,-4.4547,-4.4547,-4.521,-4.5594,-4.5594,-4.5594,-4.5594,-4.5594,-4.5594,-4.5594,-4.5594,-4.5594,-4.5594,-4.5594,-4.5594,-4.5594,-4.5594,-4.5594,-4.571,-4.5864,-4.5864,-4.5864,-4.5825,-4.5671,-4.571,-4.5825,-4.5671,-4.5594,-4.5594,-4.5594,-4.5594,-4.5594,-4.5594,-4.5594,-4.5594,-1.3828,-1.3906,-1.3594,-1.2891,-1.2852,-1.3125,-1.3711,-1.5469,-1.7656,-2.0273,-2.2266,-2.3828,-2.4727,-2.4141,-2.4531,-2.668,-2.6836,-2.832,-3.1836,-3.125,-3.1211,-3.2305,-3.3008,-3.3867,-3.4805,-3.5586,-3.6016,-3.6016,-3.6016,-3.6016,-3.6016,-3.6016,-3.6016,-3.6016,-3.6016,-3.6016,-3.6016,-3.6016,-3.6016,-3.6016,-3.6016,-3.6016,-3.6016,-3.6016,-3.6016,-3.5976,-3.5898,-3.5937,-3.5976,-3.5781,-3.5781,-3.5859,-3.5859,-3.5664,-3.5234,-3.4258,-3.2305,-3.0039,-2.8125,-2.6629,-2.6108,-2.8106,-2.8551,-2.9906,0.0,-3.529,-3.5,-3.7738,-3.8861,-3.9515,-3.9977,-4.0054,-4.0431,-4.147,-4.1731,-4.2316,-4.3816,-4.4162,-4.4547,-4.5248,-4.5402,-4.5441,-4.5441,-4.5556,-4.5594,-4.5594,-4.5594,-4.5594,-4.5594,-4.5594,-4.5594,-4.5594,-4.5594,-4.5594,-4.5594,-4.5594,-4.5594,-4.5594,-4.5594,-4.6009,-4.674,-4.674,-4.674,-4.6701,-4.5932,-4.6047,-4.6701,-4.5932,-4.5594,-4.5594,-4.5594,-4.5594,-4.5594,-4.5594,-4.5594,-4.5594,-1.4805,-1.4844,-1.4766,-1.4414,-1.4336,-1.4297,-1.4141,-1.5586,-1.7266,-1.8867,-2.0586,-2.1602,-2.1445,-2.0195,-2.043,-2.3047,-2.4219,-2.625,-2.9687,-3.0547,-3.1289,-3.2148,-3.2539,-3.332,-3.4687,-3.5078,-3.5508,-3.6016,-3.6016,-3.6016,-3.6016,-3.6016,-3.6016,-3.6016,-3.6016,-3.6016,-3.6016,-3.6016,-3.6016,-3.6016,-3.6016,-3.6016,-3.6016,-3.6016,-3.6016,-3.6016,-3.6016,-3.6016,0.0,-3.6016,-3.6016,-3.6016,-3.6016,-3.5312,-3.4492,-3.4648,-3.3594,-3.25,-3.3231,-3.1744,-3.0458,-3.252,-3.2929,-3.3634,-3.6601,-3.6748,-3.6923,-3.9477,-4.0285,-4.0516,-4.0516,-4.0893,-4.1393,-4.1731,-4.2624,-4.3508,-4.4201,-4.4739,-4.521,-4.5556,-4.5594,-4.5594,-4.5594,-4.5594,-4.5594,-4.5594,-4.5594,-4.5594,-4.5594,-4.5594,-4.5594,-4.5594,-4.5594,-4.5825,-4.6355,-4.6355,-4.6586,-4.7048,-4.7048,-4.724,-4.7586,-4.7586,-4.7586,-4.7586,-4.7201,-4.7278,-4.7586,-4.7201,-4.6778,-4.6355,-4.6355,-4.6047,-4.5594,-4.5594,-4.5594,-4.5594,-1.5391,-1.5391,-1.5391,-1.5391,-1.5391,-1.5195,-1.4531,-1.5547,-1.6641,-1.7539,-1.875,-1.9102,-1.8008,-1.6953,-1.7187,-1.9336,-2.1797,-2.4531,-2.7734,-2.9805,-3.1172,-3.1797,-3.207,-3.2773,-3.3984,-3.4453,-3.5,-3.5625,-3.5898,-3.6016,-3.6016,-3.6016,-3.6016,-3.6016,-3.6016,-3.6016,-3.6016,-3.6016,-3.6016,-3.6016,-3.6016,-3.6016,-3.6016,-3.6016,-3.5703,-3.5273,-3.5273,-3.5273,-3.5195,-3.4453,-3.4531,-3.4883,-3.4375,-3.3711,-3.332,-3.4687,-3.4453,-3.3983,-3.5048,-3.4436,-3.3884,-3.5599,-3.6449,-3.7028,-3.7694,-3.7763,-3.8277,-4.0131,-4.0516,-4.0554,-4.0816,-4.1354,-4.1962,-4.2431,-4.3508,-4.4393,-4.4624,-4.521,-4.5594,-4.5594,-4.5594,-4.5594,-4.5594,-4.5594,-4.5594,-4.5594,-4.5594,-4.5594,-4.5594,-4.5594,-4.5594,-4.5594,-4.5825,-4.6278,-4.6885,-4.7115,-4.7509,-4.8086,-4.8086,-4.824,-4.8471,-4.8471,-4.8586,-4.8779,-4.8317,-4.824,-4.8432,-4.8202,-4.7778,-4.7231,-4.7231,-4.6855,-4.624,-4.6047,-4.5825,-4.5594,-1.5391,-1.5391,-1.5391,-1.5391,-1.5391,-1.5391,-1.5352,-1.5391,-1.5742,-1.6641,-1.6797,-1.6172,-1.4453,-1.4961,-1.582,-1.6758,-2.0742,-2.4297,-2.6875,-2.9453,-3.0898,-3.0937,-3.1758,-3.2226,-3.2266,-3.3867,-3.4726,-3.4726,-3.5586,-3.6016,-3.6016,-3.6016,-3.6016,-3.6016,-3.6016,-3.6016,-3.6016,-3.6016,-3.6016,-3.6016,-3.6016,-3.6016,-3.6016,-3.6016,-3.4961,-3.3476,-3.3476,-3.3476,-3.3086,-3.0625,-3.0937,-3.2031,-3.0312,-3.0937,-3.2734,-3.5234,-3.5351,-3.41,-3.1567,-3.2586,-3.4745,-3.6367,-3.8561,-4.0362,-4.0362,-4.04,-4.04,-4.0477,-4.0516,-4.0746,-4.1585,-4.1769,-4.2316,-4.397,-4.4278,-4.4586,-4.5441,-4.5594,-4.5594,-4.5594,-4.5594,-4.5594,-4.5594,-4.5594,-4.5594,-4.5594,-4.5594,-4.5594,-4.5594,-4.5594,-4.5594,-4.5594,-4.6432,-4.6885,-4.6885,-4.7663,-4.8086,-4.8086,-4.8086,-4.8548,-4.9356,-4.9356,-4.9817,-5.0519,-4.8817,-4.8586,-4.9317,-4.8471,-4.8086,-4.8048,-4.8048,-4.8048,-4.7932,-4.7163,-4.6317,-4.5594,-1.5391,-1.5391,-1.5391,-1.5391,-1.5391,-1.5391,-1.5391,-1.5391,-1.5508,-1.5781,-1.5312,0.0,0.0,0.0,0.0,0.0,-2.0156,-2.3437,-2.5977,-2.8594,-3.0312,-3.0859,-3.1172,-3.1601,-3.2187,-3.2734,-3.3594,-3.4687,-3.5,-3.543,-3.6016,-3.6016,-3.6016,-3.6016,-3.6016,-3.6016,-3.6016,-3.6016,-3.6016,-3.6016,-3.6016,-3.6016,-3.6133,-3.7266,-3.5234,-3.1758,0.0,-3.1367,-3.0742,-2.9883,-3.0,-3.0351,-2.9766,-2.9609,-2.9883,-3.1328,-3.2729,-3.3915,-3.4664,-3.5413,-3.6522,-3.8722,-3.9892,-4.0516,-4.0516,-4.0516,-4.0516,-4.0516,-4.0969,-4.1277,-4.0969,-4.2316,-4.347,-4.3508,-4.4432,-4.5248,-4.5556,-4.5594,-4.5594,-4.5594,-4.5594,-4.5594,-4.5594,-4.5594,-4.5594,-4.5594,-4.5594,-4.5594,-4.5594,-4.5594,-4.5864,-4.6432,-4.674,-4.7432,-4.8548,-4.8817,-4.924,-4.9817,-4.9817,-4.9971,-5.025,-5.025,-5.0442,-5.0673,-5.0087,-4.9971,-5.025,-4.9933,-4.9471,-4.8971,-4.8971,-4.8625,-4.8086,-4.7817,-4.7509,-4.7086,-1.5859,-1.5625,-1.5391,-1.5391,-1.5391,0.0,0.0,0.0,0.0,0.0,0.0,0.0,0.0,0.0,0.0,0.0,0.0,-2.1914,-2.418,-2.6758,-2.8711,-2.9922,-2.9687,-2.9922,-3.0781,-3.0508,-3.1484,-3.3828,-3.3828,-3.4726,-3.6445,-3.6133,-3.6016,-3.6016,-3.6016,-3.6016,-3.6016,-3.6016,-3.6367,-3.6836,-3.5586,-3.5273,-3.5508,-3.543,-3.2539,0.0,-2.8203,-2.7383,-2.6367,-2.6367,-2.6992,-2.7695,-2.7383,-2.7969,-2.8867,-2.9453,-3.1355,-3.3843,-3.6338,-3.6915,-3.7385,-3.9892,-4.0516,-4.0516,-4.0516,-4.0516,-4.0516,-4.0516,-4.07,-4.0816,-4.0554,-4.2085,-4.3355,-4.3124,-4.4509,-4.5594,-4.5594,-4.5594,-4.5594,-4.5594,-4.5594,-4.5594,-4.5594,-4.5594,-4.5594,-4.5594,-4.5594,-4.5594,-4.5594,-4.5594,-4.6009,-4.6885,-4.7192,-4.8009,-4.9394,-4.9702,-5.0164,-5.0712,-5.0712,-5.0712,-5.0712,-5.0712,-5.0712,-5.0712,-5.0712,-5.0712,-5.0712,-5.0712,-5.0366,-4.9856,-4.9856,-4.951,-4.8971,-4.8663,-4.8548,-4.8317,-1.6758,-1.6094,-1.5508,0.0,0.0,0.0,0.0,0.0,0.0,0.0,0.0,0.0,0.0,0.0,0.0,0.0,0.0,0.0,-2.1641,-2.4141,-2.6367,-2.8086,-2.7422,-2.7422,-2.8281,-2.75,-2.8711,-3.207,-3.207,-3.375,-3.6953,-3.6133,-3.5742,-3.5742,-3.5742,-3.5742,-3.5742,-3.5742,-3.668,-3.7851,-3.4531,-3.3672,-3.4023,-3.0859,-2.7461,-2.4258,-2.3516,-2.207,-2.0547,-2.0703,-2.25,-2.4531,-2.3789,-2.6406,-2.9726,-2.9844,-3.1588,-3.3989,-3.6413,-3.7031,-3.7533,-3.993,-4.0516,-4.0516,-4.0516,-4.0516,-4.0477,-4.0323,-3.9746,-3.94,-4.0015,-4.1008,-4.2008,-4.2777,-4.4432,-4.5594,-4.5594,-4.5594,-4.5594,-4.5594,-4.5594,-4.5594,-4.5594,-4.5594,-4.5594,-4.5594,-4.5594,-4.5594,-4.5594,-4.5633,-4.6047,-4.6923,-4.774,-4.8586,-4.9471,-5.0289,-5.0712,-5.0712,-5.0712,-5.0712,-5.0712,-5.0712,-5.0712,-5.0712,-5.0712,-5.0712,-5.0712,-5.0712,-5.0712,-5.0712,-5.0712,-5.0712,-5.0596,-4.9779,-4.9471,-4.924,0.0,0.0,0.0,0.0,0.0,0.0,0.0,0.0,0.0,0.0,0.0,0.0,0.0,0.0,0.0,0.0,0.0,0.0,-1.9883,-2.2383,-2.4609,-2.6289,-2.6758,-2.7422,-2.8281,-2.8086,-2.8711,-3.0273,-3.0273,-3.1055,-3.2539,-3.2305,-3.2187,-3.2187,-3.2187,-3.2187,-3.2187,-3.2187,-3.207,-3.1836,-3.0937,-3.0312,-2.9961,-3.0391,-2.7617,-2.3633,-2.4687,-2.2695,-1.9922,-2.1875,-2.5078,-2.8476,-2.9531,-3.0579,-3.1658,-3.3007,-3.4584,-3.6222,-3.7587,-3.8767,-3.9706,-4.0331,-4.0516,-4.0516,-4.0516,-4.0516,-3.9977,-3.8046,-3.8007,-3.7623,-3.5276,-3.8123,-4.0708,-4.0315,-4.3286,-4.5594,-4.5594,-4.5594,-4.5594,-4.5594,-4.5594,-4.5594,-4.5594,-4.5594,-4.5594,-4.5594,-4.5594,-4.5594,-4.5594,-4.6201,-4.6971,-4.7778,-4.8625,-4.9471,-5.0366,-5.0596,-5.0712,-5.0712,-5.0712,-5.0712,-5.0712,-5.0712,-5.0712,-5.0712,-5.0712,-5.0712,-5.0712,-5.0712,-5.0712,-5.0712,-5.0712,-5.0712,-5.0673,-5.0442,-5.0366,-5.0212,0.0,0.0,0.0,0.0,0.0,0.0,0.0,0.0,0.0,0.0,0.0,0.0,0.0,0.0,0.0,0.0,0.0,0.0,0.0,-1.9883,-2.168,-2.3398,-2.3555,-2.4023,-2.4883,-2.418,-2.4922,-2.7305,-2.6562,-2.7422,-2.9726,-2.8984,-2.8828,-2.918,-2.918,-2.9414,-2.9766,-2.9766,-2.9687,0.0,0.0,-2.7266,-2.7109,-2.6562,-2.4336,-2.1602,-2.2539,-2.2539,-2.2578,-2.5586,-2.8164,-3.0391,-3.1758,-3.2646,-3.3473,-3.522,-3.6518,-3.7644,-3.8991,-3.9908,-4.0516,-4.0516,-4.0516,-4.0208,-3.9084,-3.8815,-3.8123,-3.5545,-3.5161,-3.4661,-3.2737,-3.6238,-3.9246,-3.8815,-4.2593,-4.5594,-4.5594,-4.5594,-4.5594,-4.5594,-4.5594,-4.5594,-4.5594,-4.5594,-4.5594,-4.5594,-4.5594,-4.5594,-4.5594,-4.6432,-4.7278,-4.8086,-4.8933,-4.9817,-5.0712,-5.0712,-5.0712,-5.0712,-5.0712,-5.0712,-5.0712,-5.0712,-5.0712,-5.0712,0.0,-5.0712,-5.0712,-5.0712,-5.0712,-5.0712,-5.0712,-5.0712,-5.0712,-5.0712,-5.0712,-5.0635,0.0,0.0,0.0,0.0,0.0,0.0,0.0,0.0,0.0,-1.6641,-1.6016,-1.5586,-1.5586,-1.5469,0.0,0.0,0.0,0.0,0.0,0.0,-1.8555,-2.0195,-1.9648,-1.9727,-2.0586,-1.9102,-2.0156,-2.3906,-2.2422,-2.3633,-2.7266,-2.5742,-2.543,-2.6133,-2.6133,-2.6562,-2.7305,-2.7383,-2.7812,-2.8164,-2.5234,-2.4453,-2.4687,0.0,-2.0117,-1.9492,-1.9727,-2.2422,-2.6406,-2.9883,-3.1367,-3.1914,-3.2891,-3.4245,-3.5726,-3.7182,-3.7992,-3.8742,-4.0298,-4.0615,-4.0516,-4.0516,-4.0516,-3.9861,-3.7452,-3.6783,-3.5892,-3.2993,-3.1864,-3.1237,-3.0775,-3.4237,-3.7276,-3.7623,-4.1854,-4.521,-4.5556,-4.5594,-4.5594,-4.5594,-4.5594,-4.5594,-4.5594,-4.5594,-4.5594,-4.5594,-4.5594,-4.5671,-4.5787,-4.6586,-4.7509,-4.8432,-4.9163,-4.9933,-5.0712,-5.0712,-5.0712,-5.0712,-5.0712,-5.0712,-5.0712,-5.0712,-5.0712,-5.0712,-5.0712,-5.0712,-5.0712,-5.0712,-5.0712,-5.0712,-5.0712,-5.0712,-5.0712,-5.0712,-5.0712,-5.0712,0.0,0.0,0.0,0.0,0.0,0.0,0.0,0.0,0.0,0.0,-1.9102,-1.6484,0.0,0.0,0.0,0.0,0.0,0.0,0.0,0.0,0.0,-1.8398,-1.8984,-1.9727,-2.0586,-2.0312,-2.0508,-2.125,-2.0977,-2.1211,-2.1914,-2.1641,-2.1562,-2.1719,-2.1719,-2.1797,-2.1992,-2.2695,-2.2695,-2.2187,-2.2305,-2.1992,-2.1406,-2.082,-2.0508,0.0,-2.1953,-2.4297,-2.7305,-3.0781,-3.3867,-3.6484,-3.8047,-3.9112,-3.9802,-4.0218,-4.0213,-4.0167,-4.0584,-4.0615,-4.0516,-4.0516,-4.0516,-4.0046,-3.8273,-3.7244,-3.5386,-3.0772,-2.9708,-2.8703,-2.5933,-2.9467,-3.3468,-3.5577,-3.9615,-4.3201,-4.5287,-4.5594,-4.5594,-4.5594,-4.5594,-4.5594,-4.5594,-4.5594,-4.5594,-4.5594,-4.5594,-4.5893,-4.6624,-4.7471,-4.8625,-5.0212,-5.0404,-5.0558,-5.0712,-5.0712,-5.0712,-5.0712,-5.0712,-5.0712,-5.0712,-5.0712,-5.0712,-5.0712,-5.0712,0.0,-5.0712,-5.0712,-5.0712,-5.0712,-5.0712,-5.0712,-5.0712,-5.0712,-5.0712,-5.0712,0.0,0.0,0.0,0.0,0.0,0.0,0.0,-2.1953,-2.3359,-2.7266,-2.5625,-2.3086,-2.0391,-1.7695,-1.6094,0.0,0.0,0.0,0.0,0.0,0.0,-1.6641,-1.7031,-1.7461,-1.7891,-1.7891,-1.8125,-1.8555,0.0,-1.8125,-1.8555,-1.8555,-1.8828,-1.9258,-1.9727,-2.0195,-2.0625,-2.1055,-2.0703,-1.9961,-2.0391,-2.0312,-1.9922,-1.9922,-2.0508,0.0,-2.3164,-2.5469,-2.8008,-3.0117,-3.3711,-3.7578,-3.9251,-4.0255,-4.0817,-4.0852,-4.067,-4.05,-4.0588,-4.0545,-4.0516,-4.0516,-4.0516,-3.9607,-3.617,-3.5059,-3.3295,-2.8208,-2.7128,-2.6621,-2.5005,-2.8198,-3.1577,-3.3231,-3.7815,-4.17,-4.3393,-4.4739,-4.5594,-4.5594,-4.5594,-4.5594,-4.5594,-4.5594,-4.5594,-4.5594,-4.6009,-4.6471,-4.6885,-4.8086,-4.9356,-5.0673,-5.0712,-5.0712,-5.0712,-5.0712,-5.0712,-5.0712,-5.0712,-5.0712,-5.0712,-5.0712,-5.0712,-5.0712,-5.0712,0.0,-5.0712,-5.0712,-5.0712,-5.0712,-5.0712,-5.0712,-5.0712,-5.0712,-5.0712,-5.0712,0.0,0.0,0.0,0.0,0.0,0.0,0.0,-2.5391,-2.7266,-3.2187,-3.2187,-3.0039,-2.5625,-2.1055,-1.7969,0.0,0.0,0.0,0.0,0.0,0.0,0.0,0.0,0.0,-1.5937,0.0,0.0,-1.6992,-1.6289,0.0,0.0,0.0,0.0,0.0,-1.8711,-1.9414,-2.0078,-2.0234,-1.9922,0.0,0.0,-1.9844,-1.9883,0.0,0.0,0.0,0.0,-2.5859,-2.7969,-2.9414,-3.2578,-3.6288,-3.8247,-3.9747,-4.08,-4.0742,-4.061,-4.0516,-4.0516,-4.0516,-4.0516,-4.0516,-4.0516,-3.9222,-3.4313,-3.305,-3.1409,-2.6154,-2.5196,-2.5192,-2.4846,-2.7423,-3.0038,-3.1468,-3.5892,-3.9785,-4.1546,-4.3662,-4.521,-4.5556,-4.5594,-4.5594,-4.5594,-4.5594,-4.5594,-4.5594,-4.6586,-4.724,-4.7432,-4.8856,-4.9971,-5.0673,-5.0712,-5.0712,-5.0712,-5.0712,-5.0712,-5.0712,-5.0712,-5.0712,-5.0712,-5.0712,-5.0712,-5.0712,-5.0712,0.0,0.0,-5.0712,-5.0712,-5.0712,-5.0712,-5.0712,-5.0712,-5.0712,-5.0712,-5.0712,0.0,0.0,0.0,0.0,0.0,0.0,0.0,-2.8594,-3.1523,-3.8203,-3.6328,-3.3594,-3.1601,-2.6797,-2.2109,0.0,0.0,0.0,0.0,0.0,0.0,0.0,0.0,0.0,0.0,0.0,0.0,-1.7891,-1.7812,0.0,0.0,0.0,0.0,0.0,0.0,-1.8164,-1.8281,-1.9062,0.0,0.0,0.0,0.0,0.0,0.0,0.0,0.0,0.0,-2.5078,-2.6445,-2.9687,-3.1094,-3.2029,-3.5117,-3.8259,-4.0817,-4.0805,-4.0665,-4.0516,-4.0516,-4.0516,-4.0516,-4.0516,-4.0516,-3.9389,-3.5204,-3.3561,-3.1268,-2.5574,-2.4891,-2.4846,-2.3312,-2.5197,-2.8005,-3.1198,-3.343,-3.643,-4.1162,-4.2701,-4.3893,-4.5441,-4.5594,-4.5594,-4.5594,-4.5594,-4.5594,-4.5594,-4.7086,-4.8355,-4.9125,-5.0048,-5.0635,-5.0712,-5.0712,-5.0712,-5.0712,-5.0712,-5.0712,-5.0712,-5.0712,-5.0712,-5.0712,-5.0712,-5.0712,-5.0712,-5.0712,0.0,0.0,-5.0712,-5.0712,-5.0712,-5.0712,-5.0712,-5.0712,-5.0712,-5.0712,-5.0712,0.0,0.0,0.0,0.0,0.0,0.0,-2.9062,-2.9726,-3.2422,-4.0351,-3.9766,-3.7969,-3.625,-3.2305,-2.6836,-1.9414,0.0,0.0,0.0,0.0,0.0,0.0,0.0,0.0,0.0,0.0,-1.7656,-1.8008,-1.8008,0.0,0.0,0.0,0.0,0.0,0.0,-1.957,-1.9609,-1.9922,0.0,0.0,0.0,0.0,0.0,0.0,0.0,0.0,0.0,0.0,-2.6602,-2.7461,-2.9139,-3.0966,-3.1716,-3.4257,-3.7229,-3.8678,-3.9437,-3.99,-4.0362,-4.0516,-4.0516,-4.0516,-4.0167,-3.8756,-3.4507,-3.2903,-3.0784,-2.5356,-2.4444,-2.44,-2.3715,-2.4394,-2.6048,-2.8929,-3.1275,-3.3583,-3.6084,-3.8969,-4.1247,-4.2401,-4.3478,-4.447,-4.5518,-4.5594,-4.6018,-4.7048,-4.774,-4.8702,-5.0087,-5.0519,-5.0712,-5.0712,-5.0712,-5.0712,-5.0712,-5.0712,-5.0712,-5.0712,-5.0712,-5.0712,-5.0712,-5.0712,-5.0712,-5.0712,-5.0712,0.0,0.0,-5.0712,-5.0712,-5.0712,-5.0712,-5.0712,-5.0712,-5.0712,-5.0712,-5.0712,0.0,0.0,0.0,0.0,0.0,-2.4102,-2.9687,-3.0625,-3.3359,-4.0703,-4.0937,-3.9883,-3.8398,-3.4414,-2.9101,-2.2187,-1.9609,0.0,0.0,0.0,0.0,0.0,0.0,0.0,0.0,0.0,-1.8906,-1.9141,-1.9414,-1.9531,0.0,0.0,-2.043,-2.043,0.0,0.0,0.0,0.0,0.0,0.0,0.0,0.0,0.0,0.0,0.0,0.0,0.0,0.0,0.0,0.0,0.0,-2.9596,-2.9226,-3.0831,-3.358,-3.7025,-3.8481,-3.92,-4.0508,-4.0708,-4.0531,-4.0545,-3.9786,-3.7976,-3.3973,-3.205,-2.9745,-2.4848,-2.3844,-2.3793,-2.3724,-2.3937,-2.4856,-2.7121,-2.9236,-3.1314,-3.3391,-3.6276,-3.8854,-4.0662,-4.197,-4.3278,-4.471,-4.5325,-4.6278,-4.7971,-4.8086,-4.8856,-5.0596,-5.0712,-5.0712,-5.0712,-5.0712,-5.0712,-5.0712,-5.0712,-5.0712,-5.0712,-5.0712,-5.0712,-5.0712,-5.0712,-5.0712,-5.0712,-5.0712,0.0,0.0,-5.0712,-5.0712,-5.0712,-5.0712,-5.0712,-5.0712,-5.0712,-5.0712,-5.0712,0.0,0.0,0.0,0.0,0.0,0.0,-2.8945,-3.1758,-3.4922,-3.9336,-3.918,-3.8281,-3.7422,-3.1953,-2.7969,-2.6992,-2.2227,0.0,0.0,0.0,0.0,0.0,0.0,0.0,0.0,0.0,-2.1016,-2.1875,-2.2734,-2.3125,-2.3047,-2.3047,-2.3047,-2.3047,0.0,0.0,0.0,0.0,0.0,0.0,0.0,0.0,0.0,0.0,0.0,0.0,0.0,0.0,0.0,0.0,0.0,0.0,0.0,-2.8671,-3.0516,-3.6445,-3.8119,-3.8584,-4.1085,-4.1162,-4.0523,-4.0655,-3.9396,-3.7272,-3.4018,-3.1237,-2.8115,-2.3904,-2.2951,-2.2889,-2.2834,-2.3509,-2.4663,-2.6351,-2.7351,-2.9698,-3.4769,-3.55,-3.7077,-4.1269,-4.1808,-4.2162,-4.3047,-4.4633,-4.6278,-4.7971,-4.8086,0.0,-5.0596,-5.0712,-5.0712,-5.0712,-5.0712,-5.0712,-5.0712,-5.0712,-5.0712,-5.0712,-5.0712,-5.0712,-5.0712,-5.0712,-5.0712,-5.0712,0.0,0.0,0.0,-5.0712,-5.0712,-5.0712,-5.0712,-5.0712,-5.0712,-5.0712,-5.0712,-5.0712,0.0,0.0,0.0,0.0,0.0,0.0,0.0,-2.8125,-3.0586,-3.4883,-3.4219,-3.3906,-3.5351,-3.0664,-2.7305,-2.7031,-2.2812,0.0,0.0,0.0,0.0,0.0,0.0,0.0,0.0,-2.1484,-2.2461,-2.4492,-2.4766,-2.5195,-2.5742,-2.5156,-2.457,-2.3945,-2.3164,-2.2773,0.0,0.0,0.0,0.0,0.0,0.0,-2.5703,0.0,0.0,0.0,0.0,0.0,0.0,0.0,0.0,0.0,0.0,0.0,0.0,-3.1797,-3.4475,-3.6462,-3.7269,-3.8155,-3.8434,-3.6759,-3.5564,-3.4227,-3.2049,-2.9539,-2.6814,-2.3651,-2.2527,-2.2233,-2.2696,-2.2547,-2.4043,-2.9236,-2.9813,-3.0775,-3.4122,-3.6622,-3.8354,-3.9123,-4.2277,-4.4509,-4.4786,-4.5287,-4.6278,-4.7971,-4.8086,-4.8856,-5.0596,-5.0712,-5.0712,-5.0712,-5.0712,-5.0712,-5.0712,-5.0712,-5.0712,-5.0712,-5.0712,-5.0712,-5.0712,-5.0712,-5.0712,0.0,0.0,0.0,0.0,-5.0712,-5.0712,-5.0712,-5.0712,-5.0712,-5.0712,-5.0712,-5.0712,-5.0712,0.0,0.0,0.0,0.0,0.0,0.0,0.0,-2.6016,-2.8086,-3.1094,-3.0273,-3.0547,-3.3437,-2.8555,-2.5742,-2.7344,-2.3281,0.0,0.0,0.0,0.0,0.0,0.0,0.0,-2.1875,-2.2227,-2.3945,-2.7187,-2.75,-2.8437,-2.9883,-2.9336,-2.8125,-2.6328,-2.5508,-2.4531,0.0,0.0,0.0,0.0,0.0,0.0,-2.5703,0.0,0.0,0.0,0.0,0.0,0.0,0.0,0.0,0.0,0.0,0.0,0.0,0.0,-3.1229,-3.3498,-3.5085,-3.6342,-3.6737,-3.4865,-3.3604,-3.2377,-3.0678,-2.808,-2.5427,-2.3425,-2.2035,-2.1447,-2.2161,-2.1889,-2.312,-2.8044,-2.8615,-2.9808,-3.3667,-3.6014,-3.7892,-3.9277,-4.2508,-4.4786,-4.5094,-4.5701,-4.6663,-4.8009,-4.8394,-4.9202,-5.0635,-5.0712,-5.0712,-5.0712,-5.0712,-5.0712,-5.0712,-5.0712,-5.0712,-5.0712,-5.0712,-5.0712,-5.0712,-5.0712,-5.0712,0.0,0.0,0.0,0.0,-5.0712,-5.0712,-5.0712,-5.0712,-5.0712,-5.0712,-5.0712,-5.0712,-5.0712,0.0,0.0,0.0,0.0,0.0,0.0,0.0,-2.5156,-2.7031,-2.7891,-2.7266,-2.7969,-3.1289,-2.5859,-2.3555,-2.75,0.0,0.0,0.0,0.0,0.0,0.0,0.0,0.0,-2.1953,-2.2852,-2.543,-2.9766,-3.0703,-3.2461,-3.4961,-3.4961,-3.3125,-2.9766,-2.8867,-2.6992,0.0,0.0,0.0,0.0,-2.4492,-2.4961,0.0,0.0,0.0,0.0,0.0,0.0,0.0,0.0,0.0,0.0,0.0,0.0,0.0,0.0,0.0,0.0,0.0,-3.5116,-3.5059,-3.4262,-3.2845,-3.1259,-2.9764,-2.6758,0.0,-2.3191,-2.1605,-2.0663,-2.1617,-2.162,-2.2197,-2.4356,-2.5313,-2.7808,-3.3667,-3.4667,-3.6622,-4.1508,-4.2777,-4.3585,-4.4316,-4.5893,-4.7231,-4.8048,-4.8894,-4.9779,-5.0635,-5.0712,-5.0712,-5.0712,-5.0712,-5.0712,-5.0712,-5.0712,-5.0712,-5.0712,-5.0712,-5.0712,-5.0712,-5.0712,-5.0712,0.0,0.0,0.0,0.0,-5.0712,-5.0712,-5.0712,-5.0712,-5.0712,-5.0712,-5.0712,-5.0712,-5.0712,0.0,0.0,0.0,0.0,0.0,0.0,0.0,0.0,0.0,0.0,-2.4609,-2.4648,-2.6094,-2.4258,-2.3047,0.0,0.0,0.0,0.0,0.0,0.0,0.0,0.0,0.0,-2.2773,-2.3672,-2.6562,-3.1601,-3.3086,-3.5156,-3.7695,-3.7695,-3.5508,-3.1562,-3.0664,-2.8476,0.0,0.0,0.0,0.0,-2.5391,-2.5508,0.0,0.0,0.0,0.0,-2.5703,-2.6133,0.0,0.0,0.0,0.0,0.0,0.0,0.0,0.0,-2.6571,-2.7505,-2.8592,0.0,-3.1359,-2.9221,-2.8425,-2.8084,0.0,-2.543,-2.3318,-2.3072,-2.1605,-2.1201,-2.3921,-2.2808,-2.3543,-2.9813,-3.0467,-3.1814,-3.6469,-3.9354,-4.1931,-4.4393,-4.4902,-4.5094,-4.5287,-4.6278,-4.7231,-4.8048,-4.8894,-4.9779,-5.0635,-5.0712,-5.0712,-5.0712,-5.0712,-5.0712,-5.0712,-5.0712,-5.0712,-5.0712,-5.0712,-5.0712,-5.0712,-5.0712,-5.0712,0.0,0.0,0.0,-5.0712,-5.0712,-5.0712,-5.0712,-5.0712,-5.0712,-5.0712,-5.0712,-5.0712,-5.0712,0.0,0.0,0.0,0.0,0.0,0.0,0.0,0.0,0.0,0.0,0.0,-2.3516,-2.4297,-2.3672,0.0,0.0,0.0,0.0,0.0,0.0,0.0,0.0,0.0,-2.1367,-2.3047,-2.3945,-2.7344,-3.3359,-3.4648,-3.7226,-4.0937,-4.0547,-3.7851,-3.3203,-2.9961,-2.7461,0.0,0.0,0.0,0.0,-2.5273,0.0,0.0,0.0,0.0,0.0,-2.5703,-2.6016,0.0,-2.7222,-2.7493,-2.7527,0.0,0.0,0.0,0.0,-2.5737,-2.6142,-2.6219,-2.8429,-3.0279,-2.8584,-2.8162,-2.7969,-2.7187,-2.4999,-2.2959,-2.2482,-2.1621,-2.1473,-2.3223,-2.4043,-2.5659,-2.939,-3.1929,-3.4923,-3.9161,-4.2354,-4.4586,-4.5479,-4.5594,-4.5594,0.0,-4.6701,-4.7625,-4.8086,-4.9279,-5.0212,-5.0673,-5.0712,-5.0712,-5.0712,-5.0712,-5.0712,-5.0712,-5.0712,-5.0712,-5.0712,-5.0712,-5.0712,-5.0712,-5.0712,-5.0712,0.0,0.0,0.0,-5.0712,-5.0712,-5.0712,-5.0712,-5.0712,-5.0712,-5.0712,-5.0712,-5.0712,-5.0712,0.0,0.0,0.0,0.0,0.0,0.0,0.0,0.0,0.0,0.0,0.0,0.0,0.0,0.0,0.0,0.0,0.0,0.0,0.0,0.0,0.0,0.0,0.0,-2.1719,-2.3633,-2.4297,-2.793,-3.4687,-3.5859,-3.8828,-4.3516,-4.3281,-4.0234,-3.4648,-2.9023,-2.6211,-2.5664,0.0,0.0,-2.5625,-2.4883,0.0,0.0,0.0,0.0,0.0,0.0,0.0,0.0,-2.8229,-2.8625,-2.8356,-2.8682,0.0,0.0,0.0,0.0,0.0,-2.6022,-2.8495,-3.0611,-2.9335,-2.9101,-2.8789,-2.7187,-2.4997,-2.3066,-2.2241,-2.1947,-2.2059,-2.2911,-2.5697,-2.8005,-2.8275,-3.2808,-3.7615,-4.1462,-4.4085,-4.5594,-4.5594,-4.5594,-4.5594,-4.5594,-4.7009,-4.7971,-4.8086,-4.9586,-5.0558,-5.0712,-5.0712,-5.0712,-5.0712,-5.0712,-5.0712,-5.0712,-5.0712,-5.0712,-5.0712,-5.0712,-5.0712,-5.0712,-5.0712,-5.0712,-5.0712,0.0,0.0,-5.0712,-5.0712,-5.0712,-5.0712,-5.0712,-5.0712,-5.0712,-5.0712,-5.0712,-5.0712,0.0,0.0,0.0,0.0,0.0,0.0,0.0,0.0,0.0,0.0,0.0,0.0,0.0,0.0,0.0,0.0,0.0,0.0,0.0,0.0,0.0,-2.2812,-2.2109,-2.3164,-2.6328,-2.582,-2.8516,-3.4687,-3.7031,-3.9726,-4.2656,-4.5469,-4.2851,-3.5625,-3.1797,-2.8476,-2.5703,-2.5547,0.0,-2.5703,-2.5547,0.0,0.0,0.0,0.0,0.0,0.0,0.0,0.0,-2.6406,-2.7142,-2.7981,-2.6565,0.0,0.0,0.0,0.0,0.0,-2.8095,-3.0344,-3.0976,-2.7226,-2.6836,-2.7148,-2.6133,-2.5039,-2.4136,-2.3922,-2.3307,-2.4293,-2.9236,-2.889,-2.9737,-3.5353,-3.82,-4.0469,-4.2585,-4.447,-4.5594,-4.5594,-4.5594,-4.5594,-4.5594,-4.6509,-4.7355,-4.8048,-4.9048,-4.9933,-5.0673,-5.0712,-5.0712,-5.0712,-5.0712,-5.0712,-5.0712,-5.0712,-5.0712,-5.0712,-5.0712,-5.0712,-5.0712,-5.0712,-5.0712,-5.0712,0.0,-5.0712,-5.0712,-5.0712,-5.0712,-5.0712,-5.0712,-5.0712,-5.0712,-5.0712,-5.0712,-5.0712,0.0,0.0,0.0,0.0,0.0,0.0,0.0,0.0,0.0,0.0,0.0,0.0,0.0,0.0,0.0,0.0,0.0,0.0,0.0,0.0,0.0,-2.5898,-2.5586,-2.6094,-2.7656,-2.8242,-3.1719,-3.8203,-4.0312,-4.293,-4.5859,-4.3242,-3.9609,-3.5078,-3.0234,-2.7187,-2.5703,-2.5703,-2.5703,-2.5703,0.0,0.0,0.0,0.0,0.0,0.0,0.0,0.0,0.0,0.0,-2.7876,-2.8673,-2.7271,0.0,0.0,0.0,0.0,0.0,-2.6866,-2.8046,-2.8593,-2.8423,-3.0801,-3.2912,-3.2052,-3.0763,-2.9359,-2.7937,-2.7687,-2.8507,-3.1216,-3.2622,-3.5276,-4.1162,-4.197,-4.2508,-4.4201,-4.5094,-4.5594,-4.5594,0.0,-4.5594,-4.5594,-4.6778,-4.7702,-4.8086,0.0,0.0,-5.0673,-5.0712,-5.0712,-5.0712,-5.0712,-5.0712,-5.0712,-5.0712,-5.0712,-5.0712,-5.0712,-5.0712,-5.0712,-5.0712,-5.0712,-5.0712,0.0,-5.0712,-5.0712,-5.0712,-5.0712,-5.0712,-5.0712,-5.0712,-5.0712,-5.0712,-5.0712,-5.0712,0.0,0.0,0.0,0.0,0.0,0.0,0.0,0.0,0.0,0.0,0.0,0.0,0.0,0.0,0.0,0.0,0.0,0.0,0.0,0.0,-2.5703,-2.7891,-2.8594,-2.9453,-3.0703,-3.1836,-3.5586,-4.2109,-4.3789,-4.6172,-4.9062,-4.1875,-3.7266,-3.4766,-2.9336,-2.6445,-2.5703,-2.5703,-2.5703,-2.5703,0.0,0.0,0.0,0.0,0.0,0.0,0.0,0.0,0.0,0.0,0.0,0.0,0.0,0.0,0.0,-2.6692,-2.5255,-2.4669,-2.6444,-2.6602,-2.7186,-3.0755,-3.3715,-3.5898,-3.6606,-3.5033,-3.3122,-3.1937,-3.2177,-3.2774,-3.3359,-3.6776,-4.07,-4.4402,-4.4278,-4.4124,-4.5441,-4.5594,-4.5594,-4.5594,-4.5594,-4.5594,-4.5594,-4.6932,-4.7894,-4.8086,0.0,0.0,-5.0712,-5.0712,-5.0712,-5.0712,-5.0712,-5.0712,-5.0712,-5.0712,-5.0712,-5.0712,-5.0712,-5.0712,-5.0712,-5.0712,-5.0712,-5.0712,-5.0712,-5.0712,-5.0712,-5.0712,-5.0712,-5.0712,-5.0712,-5.0712,-5.0712,-5.0712,-5.0712,-5.0712,0.0,0.0,0.0,0.0,0.0,0.0,0.0,0.0,0.0,0.0,0.0,0.0,0.0,0.0,0.0,0.0,0.0,0.0,0.0,0.0,-2.6055,-2.7031,-2.9414,-3.2969,-3.7734,-3.7187,-3.9414,-4.4726,-4.6484,-4.8281,-5.0,-4.457,-3.9844,-3.5742,-3.2148,-2.8711,-2.5703,-2.5703,-2.5703,-2.5703,-2.5703,0.0,0.0,0.0,0.0,0.0,0.0,0.0,0.0,0.0,0.0,0.0,0.0,0.0,-2.8078,-2.7957,-2.6186,-2.5217,-2.9374,-2.9336,-2.9141,-3.3359,-3.1093,-2.9208,-3.457,-3.3304,-3.1757,-3.4647,-3.5295,-3.6033,-3.8344,-4.1546,-4.3701,-4.3355,-4.447,-4.5479,-4.5594,-4.5594,-4.5594,-4.5594,-4.5594,-4.5594,-4.5594,-4.6432,-4.7317,0.0,0.0,0.0,-5.0673,-5.0712,-5.0712,-5.0712,-5.0712,-5.0712,-5.0712,-5.0712,-5.0712,-5.0712,-5.0712,-5.0712,-5.0712,-5.0712,-5.0712,-5.0712,-5.0712,-5.0712,-5.0712,-5.0712,-5.0712,-5.0712,-5.0712,-5.0712,-5.0712,-5.0712,-5.0712,-5.0712,0.0,0.0,0.0,0.0,0.0,0.0,0.0,0.0,0.0,0.0,0.0,0.0,0.0,0.0,0.0,0.0,0.0,0.0,0.0,-2.5703,-2.6797,-2.9336,-3.1367,-3.3867,-3.6914,-3.9805,-4.3828,-4.8984,-5.0195,-5.0039,-4.8437,-4.2148,-3.75,-3.418,-2.9687,-2.7226,-2.6484,-2.5937,-2.6016,-2.6445,-2.5937,-2.5703,0.0,0.0,0.0,0.0,0.0,0.0,0.0,0.0,-2.6029,-2.6813,-2.6549,-2.7605,-2.8712,-2.7642,-2.5916,-2.4958,-2.7734,-2.8314,-2.9075,-3.2867,-3.2749,-3.2923,-3.7759,-3.8675,-3.8794,-4.0009,-4.0275,-4.0376,-4.0785,-4.3201,-4.4816,-4.397,-4.4825,-4.5594,-4.5594,-4.5594,-4.5594,-4.5594,-4.5594,-4.5594,-4.5594,-4.6394,0.0,0.0,0.0,0.0,-5.0635,-5.0712,-5.0712,-5.0712,-5.0712,-5.0712,-5.0712,-5.0712,-5.0712,-5.0712,-5.0712,-5.0712,-5.0712,-5.0712,-5.0712,-5.0712,-5.0712,-5.0712,-5.0712,-5.0712,-5.0712,-5.0712,-5.0712,-5.0712,-5.0712,-5.0712,-5.0712,-5.0712,0.0,0.0,0.0,0.0,0.0,0.0,0.0,0.0,0.0,0.0,0.0,0.0,0.0,0.0,0.0,0.0,0.0,0.0,-2.5703,-2.5703,-2.6875,-2.9531,-3.1562,-3.3672,-3.5937,-4.1055,-4.5703,-4.9805,-5.1484,-5.0391,-4.6641,-4.0547,-3.6601,-3.4414,-2.9531,-2.7812,-2.8555,-2.7109,-2.6719,-2.6914,-2.6055,-2.5703,0.0,0.0,0.0,0.0,0.0,0.0,0.0,0.0,-2.5325,-2.6175,-2.66,-2.7636,-2.849,-2.7592,-2.686,-2.6633,-2.7844,-2.833,-2.9418,-3.3145,-3.4101,-3.5265,-3.9737,-4.1419,-4.2376,-4.3635,-4.347,-4.3008,-4.2662,-4.3816,-4.4701,-4.4355,-4.5017,-4.5594,-4.5594,-4.5594,-4.5594,-4.5594,-4.5594,-4.5594,-4.5594,0.0,0.0,0.0,0.0,0.0,0.0,-5.0712,-5.0712,-5.0712,-5.0712,-5.0712,-5.0712,-5.0712,-5.0712,-5.0712,-5.0712,-5.0712,-5.0712,-5.0712,-5.0712,-5.0712,-5.0712,-5.0712,-5.0712,-5.0712,-5.0712,-5.0712,-5.0712,-5.0712,-5.0712,-5.0712,-5.0712,-5.0712,0.0,0.0,0.0,0.0,0.0,0.0,0.0,0.0,0.0,0.0,0.0,0.0,0.0,0.0,0.0,0.0,0.0,0.0,-2.5703,-2.5703,-2.6094,-2.6953,-2.9492,-3.2461,-3.5859,-4.0976,-4.4492,-4.6289,-4.9687,-4.9141,-4.4844,-4.0586,-3.8086,-3.707,-3.2812,-3.1406,-3.1992,-2.9414,-2.7812,-2.6914,-2.6055,-2.5703,-2.5703,0.0,0.0,0.0,0.0,0.0,0.0,0.0,-2.5015,-2.489,-2.8274,-2.8221,-2.7086,-2.7941,-2.937,-3.0678,-3.0639,-3.005,-3.0458,-3.4614,-3.452,-3.4658,-3.9518,-4.0045,-4.0698,-4.4776,-4.4286,-4.3355,-4.4162,-4.3662,-4.3393,-4.4162,-4.5017,-4.5594,-4.5594,-4.5594,-4.5594,-4.5594,-4.5594,-4.5594,0.0,0.0,0.0,0.0,0.0,0.0,0.0,-5.0712,-5.0712,-5.0712,-5.0712,-5.0712,-5.0712,-5.0712,-5.0712,-5.0712,-5.0712,-5.0712,-5.0712,-5.0712,-5.0712,-5.0712,-5.0712,-5.0712,-5.0712,-5.0712,-5.0712,-5.0712,-5.0712,-5.0712,-5.0712,-5.0712,-5.0712,-5.0712,0.0,0.0,0.0,0.0,0.0,0.0,0.0,0.0,0.0,0.0,0.0,0.0,0.0,0.0,0.0,0.0,0.0,0.0,-2.4844,-2.5352,-2.5547,-2.5195,-2.8242,-2.9883,-2.9687,-3.4141,-3.9687,-4.6289,-4.6719,-4.4687,-4.043,-3.793,-3.5664,-3.3672,-3.2969,-3.1484,-2.9414,-2.8633,-2.7812,-2.6992,-2.6719,-2.625,-2.5781,0.0,0.0,0.0,0.0,0.0,0.0,0.0,0.0,0.0,-2.5382,-2.7221,-2.8474,-2.6911,-2.7222,-2.7963,-2.7337,-2.9544,-3.2333,-3.3679,-3.763,-4.1413,-4.226,-4.2327,-4.2928,-4.5279,-4.5279,-4.4739,-4.4355,-4.4624,-4.4739,-4.4355,-4.5017,-4.5594,-4.5594,-4.5594,-4.5594,-4.5594,-4.5594,0.0,0.0,0.0,0.0,0.0,0.0,0.0,0.0,-5.0366,-5.0712,-5.0712,-5.0712,-5.0712,-5.0712,-5.0712,-5.0712,-5.0712,-5.0712,-5.0712,-5.0712,-5.0712,-5.0712,-5.0712,-5.0712,-5.0712,-5.0712,-5.0712,-5.0712,-5.0712,-5.0712,-5.0712,-5.0712,-5.0712,-5.0712,-5.0712,0.0,0.0,0.0,0.0,0.0,0.0,0.0,0.0,0.0,0.0,-2.5703,-2.5703,0.0,0.0,0.0,0.0,0.0,0.0,-2.4961,-2.5391,-2.5625,-2.543,-2.7461,-2.8711,-2.9062,-3.293,-3.6836,-4.0703,-4.1523,-4.0273,-3.7031,-3.7031,-3.6406,-3.5312,-3.6133,-3.4766,-3.1836,-3.1133,-2.9766,-2.8047,-2.8047,-2.75,-2.6758,0.0,0.0,0.0,0.0,0.0,0.0,0.0,0.0,0.0,-2.3982,-2.5585,-2.7031,-2.7141,-2.8491,-3.0108,-3.0896,-3.3522,-3.6415,-3.7827,-4.0604,-4.3176,-4.4047,-4.4234,-4.4544,-4.5532,-4.5379,-4.5017,-4.4855,-4.4979,-4.5017,-4.4855,-4.5248,-4.5594,-4.5594,-4.5594,-4.5594,-4.5594,-4.5594,0.0,0.0,0.0,0.0,0.0,0.0,0.0,0.0,-5.025,-5.0712,-5.0712,-5.0712,-5.0712,-5.0712,-5.0712,-5.0712,-5.0712,-5.0712,-5.0712,-5.0712,-5.0712,-5.0712,-5.0712,-5.0712,-5.0712,-5.0712,-5.0712,-5.0712,-5.0712,-5.0712,-5.0712,-5.0712,-5.0712,-5.0712,-5.0712,0.0,0.0,0.0,0.0,0.0,0.0,0.0,0.0,0.0,-2.5703,-2.5703,-2.5703,0.0,0.0,0.0,-2.5703,-2.5703,-2.5664,-2.5586,-2.5664,-2.6055,-2.6836,-2.7187,-2.8828,-3.1992,-3.5039,-3.5039,-3.1836,-3.5195,-3.6016,-3.4531,-3.7148,-3.8828,-3.9687,-4.0586,-3.9414,-3.6719,-3.4883,-3.2226,-2.9258,-2.9414,-2.8906,-2.8008,-2.7266,0.0,0.0,0.0,0.0,0.0,0.0,0.0,0.0,-2.358,-2.3665,-2.3943,-2.773,-3.1316,-3.4671,-3.7582,-3.9412,-4.124,-4.4366,-4.3065,-4.1892,-4.5047,-4.5696,-4.5594,-4.562,-4.4987,-4.4662,-4.5441,-4.494,-4.4662,-4.5479,-4.5594,-4.5594,-4.5594,-4.5594,-4.5594,-4.5594,0.0,0.0,0.0,0.0,0.0,0.0,0.0,0.0,0.0,-5.0164,-5.0712,-5.0712,-5.0712,-5.0712,-5.0712,-5.0712,-5.0712,-5.0712,-5.0712,-5.0712,-5.0712,-5.0712,-5.0712,-5.0712,-5.0712,-5.0712,-5.0712,-5.0712,-5.0712,-5.0712,-5.0712,-5.0712,-5.0712,-5.0712,-5.0712,-5.0712,0.0,0.0,0.0,0.0,0.0,0.0,0.0,0.0,-2.5703,-2.5703,-2.5703,-2.5703,-2.5703,-2.5703,0.0,-2.5703,-2.5703,-2.5391,-2.4727,-2.5312,-2.5781,-2.5977,-2.8594,-3.0391,-3.1172,-3.1211,-3.0547,-2.9141,-3.1914,-3.3086,-3.2773,-3.5351,-3.7031,-3.7891,-3.8789,-3.6992,-3.3125,-3.0703,-2.8476,-2.6641,-2.8047,-2.7656,-2.6328,-2.6797,-2.5547,0.0,0.0,0.0,0.0,0.0,0.0,0.0,-2.2108,-2.3199,-2.4167,-2.4386,-2.7768,-3.1436,-3.1433,-3.5416,-3.9934,-4.131,-4.3104,-4.4713,-4.547,-4.5629,-4.5646,-4.5733,-4.5518,-4.5364,-4.5556,-4.5441,-4.5364,-4.5556,-4.5594,-4.5594,-4.5594,-4.5594,-4.5594,0.0,0.0,0.0,0.0,0.0,0.0,0.0,0.0,0.0,-4.8355,-4.9856,-5.0712,-5.0712,-5.0712,-5.0712,-5.0712,-5.0712,-5.0712,0.0,-5.0712,-5.0712,-5.0712,-5.0712,-5.0712,-5.0712,-5.0712,-5.0712,-5.0712,-5.0712,-5.0712,-5.0712,-5.0712,-5.0712,-5.0712,-5.0712,-5.0712,-5.0712,0.0,0.0,0.0,0.0,0.0,0.0,0.0,0.0,-2.5703,-2.5703,-2.5703,-2.5703,-2.5703,-2.5703,0.0,0.0,-2.5703,-2.5508,-2.5039,-2.5469,-2.6055,-2.6914,-2.9101,-3.0078,-2.9648,-2.8789,-2.793,-2.707,-2.8008,-2.9766,-3.2226,-3.3945,-3.6094,-3.8555,-3.8594,-3.6445,-3.2656,-3.0898,-2.8906,-2.707,-2.8398,-2.7891,-2.6328,-2.6367,-2.4805,-2.2461,-2.156,0.0,0.0,0.0,0.0,0.0,0.0,0.0,-2.3425,-2.4934,-2.7534,-3.0633,-3.3808,-3.752,-4.0899,-4.2572,-4.4298,-4.5594,-4.5594,-4.5594,-4.5629,-4.5704,-4.5632,-4.5594,-4.5594,-4.5594,-4.5594,-4.5594,-4.5594,-4.5594,-4.5594,-4.5594,0.0,0.0,0.0,0.0,0.0,0.0,0.0,0.0,0.0,-4.8086,-4.8086,-4.974,-5.0712,-5.0712,-5.0712,-5.0712,-5.0712,-5.0712,-5.0712,-5.0712,-5.0712,-5.0712,-5.0712,-5.0712,-5.0712,-5.0712,-5.0712,-5.0712,-5.0712,-5.0712,-5.0712,-5.0712,-5.0712,-5.0712,-5.0712,-5.0712,-5.0712,-5.0712,0.0,0.0,0.0,0.0,0.0,0.0,0.0,0.0,0.0,-2.5703,-2.5703,-2.5703,-2.5703,-2.5703,-2.5703,0.0,0.0,0.0,-2.5703,-2.5859,-2.6641,-2.8242,-2.9141,-2.9258,-2.8555,-2.7539,-2.6641,-2.5937,-2.4883,-2.7148,-3.2422,-3.3086,-3.5547,-3.9414,-3.8242,-3.5937,-3.2891,-3.1445,-2.9531,-2.75,-2.8359,-2.7734,-2.625,-2.5547,-2.3867,-2.1797,-2.0898,-2.0586,-2.0742,-2.1602,0.0,0.0,0.0,0.0,-2.2374,-2.5975,-2.7945,-3.0346,-3.6612,-3.9815,-4.2047,-4.4902,-4.5594,-4.5594,-4.5594,-4.5594,-4.5594,-4.5594,-4.5594,-4.5594,-4.5594,-4.5594,-4.5594,-4.5594,-4.5594,-4.5594,-4.5594,0.0,0.0,0.0,0.0,0.0,0.0,0.0,0.0,0.0,0.0,-4.8086,-4.8086,-4.974,-5.0712,-5.0712,-5.0712,-5.0712,-5.0712,-5.0712,-5.0712,-5.0712,-5.0712,-5.0712,-5.0712,-5.0712,-5.0712,-5.0712,-5.0712,-5.0712,-5.0712,-5.0712,-5.0712,-5.0712,-5.0712,-5.0712,-5.0712,-5.0712,-5.0712,-5.0712,0.0,0.0,0.0,0.0,0.0,0.0,0.0,0.0,0.0,0.0,-2.5703,-2.5703,-2.5703,-2.5703,-2.5703,-2.5703,-2.5703,-2.5703,-2.5703,0.0,0.0,-2.8242,-2.9141,-2.9531,-2.9414,-2.7812,-2.6953,-2.6836,-2.5195,-2.7422,-3.3242,-3.3359,-3.4922,-3.7539,-3.5156,-3.3047,-3.0976,-2.7109,-2.4844,-2.3945,-2.4766,-2.4492,-2.3594,-2.3555,-2.2852,-2.1797,-2.0898,-2.0586,-2.0742,-2.1602,-2.1869,0.0,0.0,0.0,-2.1888,-2.3188,-2.5708,-2.8296,-2.9319,-3.4513,-4.0593,-4.4594,-4.5594,-4.5594,-4.5594,-4.5594,-4.5594,-4.5594,-4.5594,-4.5594,-4.5594,-4.5594,-4.5594,-4.5594,-4.5594,-4.5594,0.0,0.0,0.0,0.0,0.0,0.0,0.0,0.0,0.0,0.0,-4.7163,-4.8086,-4.8086,-4.974,-5.0712,-5.0712,-5.0712,-5.0712,-5.0712,-5.0712,-5.0712,-5.0712,-5.0712,-5.0712,-5.0712,-5.0712,-5.0712,-5.0712,-5.0712,-5.0712,-5.0712,-5.0712,-5.0712,-5.0712,-5.0712,-5.0712,-5.0712,-5.0712,-5.0712,-5.0712,0.0,0.0,0.0,0.0,0.0,0.0,0.0,0.0,0.0,0.0,0.0,-2.5703,-2.5703,-2.5703,-2.5703,-2.5703,-2.5703,-2.5703,-2.5703,-2.6055,-2.6641,-2.7539,-2.6992,-2.6914,-2.7383,-2.5273,-2.4609,-2.5547,-2.4336,-2.7031,-3.3398,-3.3398,-3.5078,-3.7851,-3.4297,-3.2031,-3.0625,-2.625,-2.3945,-2.3203,-2.3047,-2.3633,-2.4297,-2.1914,-2.1953,-2.293,-2.0156,-1.9453,-2.0078,-2.1445,-2.2174,-2.2553,-2.2916,0.0,0.0,0.0,-2.3506,-2.6082,-3.0852,-3.5968,-4.09,-4.4671,-4.5594,-4.5594,-4.5594,-4.5594,-4.5594,-4.5594,-4.5594,-4.5594,-4.5594,-4.5594,-4.5594,-4.5594,-4.5594,0.0,0.0,0.0,0.0,0.0,0.0,0.0,0.0,0.0,0.0,0.0,-4.674,-4.7625,-4.8086,-4.9279,-5.0212,-5.0673,-5.0712,-5.0712,-5.0712,-5.0712,-5.0712,-5.0712,-5.0712,-5.0712,-5.0712,-5.0712,-5.0712,-5.0712,-5.0712,-5.0712,-5.0712,-5.0712,-5.0712,-5.0712,-5.0712,-5.0712,-5.0712,-5.0712,-5.0712,-5.0712,0.0,0.0,0.0,0.0,0.0,0.0,0.0,0.0,0.0,0.0,0.0,-2.5703,-2.5703,0.0,0.0,0.0,-2.5195,-2.5078,-2.5039,-2.5039,-2.543,-2.6289,-2.4883,-2.4375,-2.5039,-2.3008,-2.2617,-2.4062,-2.3672,-2.6992,-3.375,-3.3945,-3.6016,-3.9375,-3.5078,-3.2305,-3.0625,-2.6484,-2.4375,-2.3789,-2.3125,-2.4141,-2.5781,-2.3477,-2.4297,-2.6133,-2.1836,-2.0703,-2.1367,-2.1991,-2.255,-2.3021,-2.3222,-2.3089,0.0,0.0,0.0,-2.3548,-3.1429,-3.5545,-3.8669,-4.317,-4.4479,-4.4786,-4.5441,-4.5594,-4.5594,-4.5594,-4.5594,-4.5594,-4.5594,-4.5594,-4.5594,-4.5594,0.0,0.0,0.0,0.0,0.0,0.0,0.0,0.0,0.0,0.0,0.0,0.0,-4.6394,-4.7231,-4.8048,-4.8933,-4.9779,-5.0673,-5.0712,-5.0712,-5.0712,-5.0712,-5.0712,-5.0712,-5.0712,-5.0712,-5.0712,-5.0712,-5.0712,-5.0712,-5.0712,-5.0712,-5.0712,-5.0712,-5.0712,-5.0712,-5.0712,-5.0712,-5.0712,-5.0712,-5.0712,-5.0712,0.0,0.0,0.0,0.0,0.0,0.0,0.0,0.0,0.0,0.0,0.0,-2.5703,-2.5703,-2.4961,-2.4453,-2.4453,-2.3789,-2.3281,-2.3242,-2.3242,-2.3633,-2.4492,-2.3672,0.0,-2.332,-2.2383,-2.2305,-2.3164,-2.3945,-2.7851,-3.4648,-3.5469,-3.8125,-4.1992,-3.7734,-3.3984,-3.0664,-2.7148,-2.5625,-2.5586,-2.5508,-2.6094,-2.7266,-3.0351,-3.2109,-3.2383,-2.8086,-2.6562,-2.6211,-2.3853,-2.3033,-2.3128,-2.3893,-2.3532,-2.247,0.0,0.0,0.0,-2.6626,-2.8973,-3.1474,-3.89,-4.1393,-4.2624,-4.5056,-4.5594,-4.5594,-4.5594,-4.5594,-4.5594,-4.5594,-4.5594,-4.5594,0.0,0.0,0.0,0.0,0.0,0.0,0.0,0.0,0.0,0.0,0.0,0.0,0.0,-4.6394,-4.7231,-4.8048,-4.8933,-4.9779,-5.0673,-5.0712,-5.0712,-5.0712,-5.0712,-5.0712,-5.0712,-5.0712,-5.0712,-5.0712,-5.0712,-5.0712,-5.0712,-5.0712,-5.0712,-5.0712,-5.0712,-5.0712,-5.0712,-5.0712,-5.0712,-5.0712,-5.0712,-5.0712,-5.0712,0.0,0.0,0.0,0.0,0.0,0.0,0.0,0.0,0.0,0.0,0.0,0.0,0.0,-2.4609,-2.418,-2.3672,-2.3359,-2.3203,-2.3164,-2.3125,-2.3242,-2.3555,-2.2773,-2.2344,-2.2383,-2.1523,-2.1484,-2.2344,-2.3203,-2.6602,-3.2305,-3.3672,-3.5742,-3.8203,-3.6094,-3.418,-3.2187,-2.7031,-2.4531,-2.418,-2.5859,-2.8047,-3.0391,-3.1094,-3.3242,-3.5351,-3.1055,-2.8437,-2.6953,-2.651,-2.5223,-2.3718,-2.3466,-2.2716,-2.1543,-1.9273,-1.9581,-2.1427,-2.5197,-2.8038,-3.0968,-3.536,-3.8746,-4.12,-4.2132,-4.4017,-4.5594,-4.5594,-4.5594,-4.5594,-4.5594,-4.5594,0.0,0.0,0.0,0.0,0.0,0.0,0.0,0.0,0.0,0.0,0.0,0.0,0.0,0.0,0.0,-4.6663,-4.8048,-4.8394,-4.9202,-5.0635,-5.0712,-5.0712,-5.0712,-5.0712,-5.0712,-5.0712,-5.0712,-5.0712,-5.0712,-5.0712,-5.0712,-5.0712,-5.0712,-5.0712,-5.0712,-5.0712,-5.0712,-5.0712,-5.0712,-5.0712,-5.0712,-5.0712,-5.0712,-5.0712,0.0,0.0,0.0,0.0,0.0,0.0,0.0,0.0,-2.3047,-2.3867,0.0,0.0,0.0,0.0,-2.3945,-2.2852,-2.2773,-2.2656,-2.2344,-2.2305,-2.2383,-2.2695,-2.1914,-2.1602,-2.1875,-2.0742,-2.0742,-2.1914,-2.2461,-2.5391,-3.0508,-3.1914,-3.3789,-3.5937,-3.4219,-3.3594,-3.3516,-2.8633,-2.6094,-2.5547,-2.8437,-3.0469,-3.1992,-3.4336,-3.625,-3.7344,-3.4492,-3.1952,-2.999,-3.0196,-2.9082,-2.7232,-2.5229,-2.257,-1.985,-1.7853,-1.8696,-2.0581,-2.2269,-2.5038,-2.8308,-3.2006,-3.4821,-3.7514,-4.0669,-4.267,-4.4209,-4.5364,-4.5594,-4.5594,-4.5594,0.0,0.0,0.0,0.0,0.0,0.0,0.0,0.0,0.0,0.0,0.0,0.0,0.0,0.0,0.0,0.0,0.0,-4.8009,-4.8086,-4.8894,-5.0635,-5.0712,-5.0712,-5.0712,-5.0712,-5.0712,-5.0712,-5.0712,-5.0712,-5.0712,-5.0712,-5.0712,-5.0712,-5.0712,-5.0712,-5.0712,-5.0712,-5.0712,-5.0712,-5.0712,-5.0712,-5.0712,-5.0712,-5.0712,-5.0712,0.0,0.0,0.0,0.0,0.0,0.0,0.0,0.0,-2.2227,-2.3047,0.0,0.0,0.0,0.0,0.0,-2.2148,-2.1992,-2.1602,-2.0703,-2.0625,-2.0977,-2.1836,-2.1055,-2.1016,-2.1836,-2.0195,-2.0156,-2.1836,-2.1875,-2.4453,-2.9375,-3.0351,-3.2578,-3.5586,-3.2344,-3.2226,-3.4297,-3.1797,-3.0273,-2.9844,-3.3203,-3.3164,-3.2031,-4.043,-4.1641,-3.8828,-3.8828,-3.7607,-3.5797,-3.4883,-3.4417,-3.3451,-2.9044,-2.3086,-1.7545,-1.6699,-1.7083,-1.7738,0.0,0.0,0.0,-2.8654,-2.9544,-3.1397,-4.0546,-4.1393,-4.1247,-4.4748,-4.5441,-4.5441,0.0,0.0,0.0,0.0,0.0,0.0,0.0,0.0,0.0,0.0,0.0,0.0,0.0,0.0,0.0,0.0,-4.5594,-4.6317,-4.8009,-4.8163,-4.8933,-5.0635,-5.0712,-5.0712,-5.0712,-5.0712,-5.0712,-5.0712,-5.0712,-5.0712,-5.0712,-5.0712,-5.0712,-5.0712,-5.0712,-5.0712,-5.0712,-5.0712,-5.0712,-5.0712,-5.0712,-5.0712,-5.0712,-5.0712,-5.0712,-5.0712,0.0,0.0,0.0,0.0,0.0,-2.2773,-2.2539,-2.2695,-2.3125,0.0,0.0,0.0,-2.4805,-2.5117,-2.5156,-2.4687,-2.4062,-2.3086,-2.1641,-2.0937,-2.0703,-2.0937,-2.0742,-2.0703,-2.0937,-2.0508,-2.0156,-2.0039,-2.1289,-2.2617,-2.4102,-2.6797,-2.8594,-2.9531,-3.0469,-3.0234,-2.8984,-2.7031,-2.7148,-2.8789,-3.0391,-3.3203,-3.6875,-4.0508,-4.2851,-4.418,-4.418,-4.2178,-3.9514,-3.9192,-3.5745,-3.0467,-2.4349,-2.0235,-1.743,-1.5965,-1.7007,-1.8511,-1.7853,0.0,0.0,0.0,0.0,0.0,-3.1237,-3.316,-3.5622,-4.0823,-4.1439,-4.1978,0.0,0.0,0.0,0.0,0.0,0.0,0.0,0.0,0.0,0.0,0.0,0.0,0.0,0.0,0.0,0.0,-4.5594,-4.6317,-4.8009,-4.9317,-5.0212,-5.0673,-5.0712,-5.0712,-5.0712,-5.0712,-5.0712,-5.0712,-5.0712,-5.0712,-5.0712,-5.0712,-5.0712,-5.0712,-5.0712,-5.0712,-5.0712,-5.0712,-5.0712,-5.0712,-5.0712,-5.0712,-5.0712,-5.0712,-5.0712,-5.0712,0.0,0.0,-2.293,-2.293,-2.4258,-2.5078,-2.4336,-2.4531,-2.4961,0.0,0.0,0.0,-2.6016,-2.7734,-2.8047,-2.5898,-2.5586,-2.4453,-2.207,-2.1406,-2.0977,-2.0625,-2.0586,-2.0781,-2.1133,-2.043,-2.0,-1.9844,-2.0508,-2.1016,-2.1406,-2.3789,-2.5039,-2.543,-2.6602,-2.6484,-2.5273,-2.3555,-2.4531,-2.7539,-3.1289,-3.4062,-3.6484,-4.1445,-4.3437,-4.3906,-4.6055,-4.4562,-4.1742,-4.3088,-3.8412,-3.1223,-2.6525,-2.2389,-1.8888,-1.6849,-1.8045,-1.9777,-1.8581,-1.985,-2.1543,-2.1812,0.0,0.0,-3.0275,-3.1891,-3.416,0.0,-4.2247,-4.267,0.0,0.0,0.0,0.0,0.0,0.0,0.0,0.0,0.0,0.0,0.0,0.0,0.0,-4.5594,0.0,-4.5594,-4.5594,-4.6317,-4.8009,-4.974,-5.0712,-5.0712,-5.0712,-5.0712,-5.0712,-5.0712,-5.0712,-5.0712,-5.0712,-5.0712,-5.0712,-5.0712,-5.0712,-5.0712,-5.0712,-5.0712,-5.0712,-5.0712,-5.0712,-5.0712,-5.0712,-5.0712,-5.0712,-5.0712,-5.0712,-5.075,0.0,0.0,-2.4492,-2.4766,-2.6836,-2.8008,-2.6758,-2.7031,-2.75,0.0,-2.7031,-2.7305,-2.9219,-3.1797,-3.1562,-2.6953,-2.6914,-2.5742,-2.2383,-2.1992,-2.1523,-2.0625,-2.0703,-2.1055,-2.1758,-2.0312,-1.9844,-2.0312,-1.9648,-1.9648,-2.0312,-2.1289,-2.2109,-2.2656,-2.2148,-2.2187,-2.2617,-2.1406,-2.2891,-2.6758,-3.3672,-3.5078,-3.3984,-4.2695,-4.3867,-4.1484,-4.6094,-4.5695,-4.338,-4.5909,-4.1546,-3.4623,-3.2166,-2.7428,-2.2158,-1.893,-1.9927,-2.1654,-1.9804,-2.0423,-2.1966,-2.3355,-2.2124,0.0,-3.2577,-3.3122,-3.3891,0.0,-4.3478,0.0,0.0,0.0,0.0,0.0,0.0,0.0,0.0,0.0,0.0,0.0,0.0,0.0,0.0,-4.5594,-4.5594,-4.5594,-4.5787,-4.6509,-4.8009,-4.974,-5.0712,-5.0712,-5.0712,-5.0712,-5.0712,-5.0712,-5.0712,-5.0712,-5.0712,-5.0712,-5.0712,-5.0712,-5.0712,-5.0712,-5.0712,-5.0712,-5.0712,-5.0712,-5.0712,-5.0712,-5.0712,-5.0712,-5.0712,-5.0712,-5.075,-5.0933,-2.2891,-2.3672,-2.5078,-2.7187,-2.8555,-2.9922,-3.1641,-3.0898,-3.0625,-3.1953,-3.1992,-3.3086,-3.625,-3.4687,-3.3008,-3.1992,-2.9531,-2.6875,-2.4102,-2.2656,-2.1523,-2.0625,-2.1289,-2.1406,-2.0859,-2.1211,-2.043,-1.8516,-1.9023,-1.9023,-1.8555,-2.0117,-2.0547,-2.0117,-2.1328,-2.1211,-2.0156,-2.1875,-2.5039,-2.8984,-3.0508,-3.4023,-3.8828,-4.2734,-4.543,-4.7266,-4.8281,-4.8118,-4.7092,-4.4822,-4.2455,-3.922,-3.1923,-3.0083,-2.9236,-2.1927,-2.2543,-2.4928,-2.1846,-2.1773,-2.2312,-2.1273,-2.1696,0.0,-2.2432,-2.312,-2.4966,0.0,-3.0314,-3.1545,0.0,0.0,0.0,0.0,0.0,0.0,0.0,0.0,0.0,0.0,0.0,0.0,0.0,-4.5594,-4.5594,-4.5594,-4.6855,-4.774,-4.8086,-4.974,-5.0712,-5.0712,-5.0712,-5.0712,-5.0712,-5.0712,-5.0712,-5.0712,-5.0712,-5.0712,-5.0712,-5.0712,-5.0712,-5.0712,-5.0712,-5.0712,-5.0712,-5.0712,-5.0712,-5.0712,-5.0712,-5.0712,-5.0712,-5.0712,-5.1125,-5.1692,-2.375,-2.4453,-2.6016,-2.9062,-3.0664,-3.2226,-3.4375,-3.4336,-3.4375,-3.5234,-3.6484,-3.7305,-3.7305,-3.6523,-3.4766,-3.1758,-2.9922,-2.7461,-2.4023,-2.2969,-2.1914,-2.0664,-2.1016,-2.1445,-2.1875,-2.1484,-2.0625,-1.9297,-1.9297,-1.8633,-1.7383,-1.8672,-2.0664,-2.3047,-2.0469,-2.0977,-2.3633,-2.1484,-2.2812,-2.6758,-3.1523,-3.6797,-4.2187,-4.5625,-4.8047,-4.9609,-5.0,-4.9797,-4.893,-4.6177,-4.3246,-4.0034,-3.6055,-3.3936,-3.1737,-2.5813,-2.6197,-2.7654,-2.3812,-2.3428,-2.3851,-2.3,-2.2466,0.0,0.0,-2.3394,-2.424,-2.9352,-2.939,-2.9544,-3.2929,0.0,0.0,0.0,0.0,0.0,0.0,0.0,0.0,0.0,0.0,0.0,0.0,-4.5594,-4.5594,-4.5594,-4.7163,-4.8086,-4.8086,-4.974,-5.0712,-5.0712,-5.0712,-5.0712,-5.0712,-5.0712,-5.0712,-5.0712,-5.0712,-5.0712,-5.0712,-5.0712,-5.0712,-5.0712,-5.0712,-5.0712,-5.075,-5.1125,-5.1318,-5.1318,-5.1318,-5.1318,-5.1356,-5.1779,-5.2202,-5.2615,-2.4375,-2.5117,-2.6758,-3.0078,-3.2031,-3.3828,-3.5703,-3.6601,-3.7226,-3.7734,-3.9805,-4.0312,-3.8008,-3.8555,-3.7148,-3.2266,-3.1367,-2.9258,-2.4961,-2.4336,-2.3516,-2.2148,-2.1289,-2.1836,-2.3906,-2.1758,-2.043,-2.0117,-1.9219,-1.8008,-1.6484,-1.7344,-2.0352,-2.4805,-2.0391,-2.1641,-2.6758,-2.1992,-2.2344,-2.6758,-3.4258,-3.8984,-4.2031,-4.7226,-4.9219,-4.9375,-5.0859,-5.0893,-4.9965,-4.7933,-4.447,-4.0883,-4.0075,-3.7756,-3.4398,-2.9555,-2.989,-3.0846,-2.6125,-2.5659,-2.6308,-2.5308,-2.4115,-2.3928,0.0,0.0,0.0,-3.0242,-2.9775,-2.8923,-3.0429,0.0,0.0,0.0,0.0,0.0,0.0,0.0,0.0,0.0,0.0,0.0,0.0,-4.4479,-4.471,-4.5556,-4.6394,-4.724,-4.8048,-4.974,-5.0712,-5.0712,-5.0712,-5.0712,-5.0712,-5.0712,-5.0712,-5.0712,-5.0712,-5.0712,-5.0712,-5.0712,-5.0712,-5.0712,-5.0712,-5.0789,-5.0971,-5.1615,-5.2,-5.2154,-5.2154,-5.2154,-5.2231,-5.2933,-5.3318,-5.3549,-2.4258,-2.5117,-2.6562,-2.9258,-3.1172,-3.3164,-3.5625,-3.6094,-3.6992,-3.9297,-4.0547,-4.1914,-4.3789,-4.2148,-4.0625,-3.9922,-3.7773,-3.4609,-3.0312,-2.8555,-2.7617,-2.7422,-2.3789,-2.3242,-2.6484,-2.2656,-1.9844,-1.8281,-1.7422,-1.6484,-1.5586,-1.6445,-1.7227,-1.8086,-2.2656,-2.3906,-2.2812,-2.5859,-3.0898,-3.6875,-3.7187,-3.5781,-3.4375,-4.25,-4.5586,-4.6094,-5.0,-5.1328,-5.0857,-4.8242,-4.7006,-4.5423,-3.9262,-4.0494,-4.2233,-3.1977,-3.2852,-3.5738,-2.9242,-2.9198,-2.989,-2.5356,-2.6813,-2.7769,-2.1573,0.0,-2.2547,-2.1012,0.0,-2.1731,-2.262,0.0,0.0,0.0,0.0,0.0,-2.7775,-3.1506,-3.493,0.0,0.0,0.0,0.0,0.0,-4.1554,-4.5325,-4.3662,-4.4154,-4.7894,-4.974,-5.0712,-5.0712,-5.0712,-5.0712,-5.0712,-5.0712,-5.0712,-5.0712,-5.0712,-5.0712,-5.0712,-5.0712,-5.0712,-5.0712,-5.0712,-5.1087,-5.1769,-5.1846,-5.2346,-5.3049,-5.3049,-5.3049,-5.3049,-5.3164,-5.3703,-5.4357,-2.3477,-2.4336,-2.5781,-2.8398,-2.9883,-3.1875,-3.5469,-3.8125,-3.9922,-4.0586,-4.1836,-4.2851,-4.3437,-4.168,-4.0234,-3.9726,-3.8242,-3.5273,-3.0469,-2.9453,-2.793,-2.5391,-2.3555,-2.3281,-2.4727,-2.2031,-2.0,-1.875,-1.7383,-1.625,-1.5391,-1.5781,-1.8359,-2.2734,-2.4258,-2.7148,-3.0742,-2.957,-3.0742,-3.3437,-3.4062,-3.3164,-3.2695,-4.4297,-4.8711,-4.8945,-5.0742,-5.1406,-5.121,-5.001,-4.7299,-4.4438,-4.4396,-4.2283,-3.9114,-3.5444,-3.4697,-3.4007,-2.9198,-3.0083,-3.1275,-2.6697,-2.7621,-2.8159,-2.2504,-2.0893,-2.0585,-2.0469,0.0,0.0,0.0,0.0,0.0,0.0,-2.4043,0.0,0.0,0.0,-3.266,0.0,0.0,0.0,0.0,0.0,0.0,0.0,0.0,-4.3654,-4.7855,-4.974,-5.0712,-5.0712,-5.0712,-5.0712,-5.0712,-5.0712,-5.0712,-5.0712,-5.0712,-5.0712,-5.0712,-5.0712,-5.0712,-5.0712,-5.0712,-5.1164,-5.1923,-5.2462,-5.3164,-5.401,-5.4472,-5.4357,-5.401,-5.4472,-5.4895,-5.5203,-2.2617,-2.3633,-2.5,-2.6914,-2.8359,-3.0625,-3.4687,-3.793,-4.0156,-4.0742,-4.1914,-4.2851,-4.3398,-4.2187,-4.125,-4.1094,-4.0273,-3.7773,-3.3086,-3.1641,-3.0234,-2.8476,-2.5,-2.4102,-2.6211,-2.2305,-1.9805,-1.8945,-1.7187,-1.6133,-1.5742,-1.5742,-1.9023,-2.4922,-2.5781,-2.9687,-3.5391,-3.332,-3.3086,-3.4258,-3.5039,-3.582,-3.7461,-4.6289,-5.0391,-5.1406,-5.1406,-5.1406,-5.1289,-5.0493,-4.7323,0.0,-4.7171,-4.386,-3.8883,-3.9203,-3.7931,-3.5495,-3.1185,-3.2137,-3.3006,-2.7582,-2.7505,-2.7588,-2.312,-2.12,-2.0627,-2.135,-2.0581,0.0,0.0,0.0,-1.9623,-1.9392,0.0,-2.3735,0.0,-2.4505,0.0,0.0,0.0,0.0,0.0,0.0,0.0,0.0,0.0,0.0,-4.7817,-4.974,-5.0712,-5.0712,-5.0712,-5.0712,-5.0712,-5.0712,-5.0712,-5.0712,-5.0712,-5.0712,-5.0712,-5.0712,-5.0712,-5.0712,-5.0933,-5.151,-5.2308,-5.3203,-5.4049,-5.4895,-5.5472,-5.5318,-5.4895,-5.5472,-5.5703,-5.5703,-2.1758,-2.3281,-2.4414,-2.4492,-2.6641,-2.9492,-3.2969,-3.3594,-3.5195,-3.9375,-4.0,-4.1601,-4.5703,-4.5351,-4.5508,-4.7187,-4.6523,-4.4531,-4.1055,-3.6875,-3.6719,-4.1562,-2.9844,-2.668,-3.418,-2.4492,-1.8906,-1.8047,-1.6289,-1.5859,-1.6641,-1.6641,-1.7695,-1.9883,-2.7344,-3.0859,-3.1484,-3.7148,-4.1953,-4.5625,-4.3984,-4.6328,-5.0351,0.0,-4.7773,-5.1406,-5.1406,0.0,0.0,-4.8555,-4.7578,0.0,0.0,0.0,-4.6384,-4.3033,-4.3656,-4.3949,-3.7245,-3.6609,-3.5815,-2.7423,-2.6659,-2.6621,-2.1538,-2.2239,-2.3471,-2.185,-2.3385,-2.4577,-2.3004,-2.2004,-2.1158,-2.0385,-2.0385,0.0,0.0,0.0,0.0,0.0,0.0,0.0,0.0,0.0,0.0,0.0,0.0,0.0,-4.7663,-4.974,-5.0712,-5.0712,-5.0712,-5.0712,-5.0712,-5.0712,-5.0712,-5.0712,-5.0712,-5.0712,-5.0712,-5.0712,-5.0712,-5.075,-5.151,-5.2346,-5.3241,-5.4087,-5.4934,-5.5665,-5.5703,-5.5665,-5.5665,-5.5703,-5.5703,-5.5703,-2.1836,-2.3242,-2.4414,-2.4414,-2.5625,-2.793,-3.1992,-3.4531,-3.7148,-4.0351,-4.1719,-4.3398,-4.6016,-4.6562,-4.7187,-4.8359,-4.8203,-4.6562,-4.3086,-3.9883,-3.8672,-3.9844,-3.2422,-2.9531,-3.2148,-2.6484,-2.2578,-2.0586,-1.8828,-1.8437,-1.9258,-1.8672,-1.9648,-2.2148,-2.8203,-3.2812,-3.6211,-3.9414,-4.2578,-4.543,-4.543,-4.75,-5.0586,0.0,-5.1016,-5.2344,-5.2891,-5.3125,0.0,-5.1445,-4.9453,-4.7734,-4.8514,-4.62,-4.3406,-4.4534,-4.3693,0.0,0.0,0.0,-4.0969,-3.2468,-3.166,-3.1006,-2.362,-2.3466,-2.4235,-2.1966,-2.4,-2.5466,-2.324,-2.2081,-2.1427,-2.1154,-2.0654,-1.9773,0.0,0.0,0.0,0.0,0.0,0.0,0.0,0.0,0.0,0.0,0.0,0.0,0.0,-4.974,-5.0712,-5.0712,-5.0712,-5.0712,-5.0712,-5.0712,-5.0712,-5.0712,-5.0712,-5.0712,-5.0712,-5.1241,-5.151,-5.1548,-5.2395,-5.3241,-5.4087,-5.4395,-5.4972,-5.5703,-5.5703,-5.5703,-5.5703,-5.5703,-5.5703,-5.5703,-2.2852,-2.3672,-2.4414,-2.4414,-2.5898,-2.8125,-3.125,-3.5156,-3.8594,-4.0898,-4.293,-4.4922,-4.6992,-4.7461,-4.8086,-4.9258,-4.9062,-4.7539,-4.4375,-4.2344,-4.1289,-4.1328,-3.6406,-3.4219,-3.543,-3.0547,-2.6758,-2.418,-2.1797,-2.0937,-2.1523,-2.0625,-2.1445,-2.3828,-2.8086,-3.3203,-3.875,-4.1094,-4.4453,-4.8242,-4.8828,-5.0039,0.0,0.0,-5.2851,-5.1992,0.0,-5.3984,-5.3906,-5.3359,-5.1719,-5.0156,-5.1797,-4.9022,-4.5617,-4.7844,-4.6563,-4.4127,-4.2928,-4.4059,0.0,-3.6546,-3.5545,0.0,-2.678,-2.6582,-2.7385,-2.5115,-2.5928,-2.7313,-2.8044,-2.5274,-2.3038,-2.3697,-2.1812,-1.9462,0.0,-1.6891,0.0,0.0,0.0,0.0,0.0,0.0,0.0,0.0,0.0,0.0,0.0,0.0,-5.0712,-5.0712,-5.0712,-5.0712,-5.0712,-5.0712,-5.0712,-5.0712,-5.0712,-5.0866,-5.1125,-5.1654,-5.2077,-5.2423,-5.328,-5.3972,-5.4511,-5.4818,-5.5241,-5.5703,-5.5703,-5.5703,-5.5703,-5.5703,-5.5703,-5.5703,-2.457,-2.4492,-2.4609,-2.4609,-2.7305,-2.9844,-3.0937,-3.5273,-3.9141,-4.1055,-4.3555,-4.6094,-4.8672,-4.8242,-4.8476,-5.0117,-4.9492,-4.7969,-4.5469,-4.4414,-4.4687,-4.6484,-4.1601,-4.0391,-4.3672,-3.6289,-3.1133,-2.8555,-2.4961,-2.3281,-2.3359,-2.2461,-2.2891,-2.457,-2.7148,-3.2148,-3.8867,-4.2226,-4.7656,-5.4062,-5.4101,-5.4062,-5.4023,-5.5,-5.3281,-5.0664,-5.3203,-5.4141,-5.4101,-5.4062,-5.4062,-5.4062,-5.4023,-5.3437,-5.2773,-5.2773,-5.2028,-5.0524,-4.728,-4.6177,-4.4726,-3.9684,0.0,0.0,0.0,0.0,-3.2776,-3.1077,-2.9583,-3.0429,-3.6546,-3.1077,-2.6077,-2.7467,-2.3543,-1.9154,-1.5846,-1.6734,-1.7738,0.0,0.0,0.0,0.0,0.0,0.0,0.0,0.0,0.0,0.0,0.0,-5.0442,-5.0712,-5.0712,-5.0712,-5.0712,-5.0712,-5.0712,-5.0712,-5.075,-5.1164,-5.1885,-5.2,-5.2462,-5.3318,-5.4164,-5.4549,-5.4626,-5.5395,-5.5703,-5.5703,-5.5703,-5.5703,-5.5703,-5.5703,-5.5703,-5.5703,-2.457,-2.5977,-2.7305,-2.7305,-2.75,-2.9023,-3.3086,-3.5391,-3.8203,-4.25,-4.5312,-4.7695,-4.9648,-5.0195,-5.0586,-5.1055,-5.0898,-5.0469,-4.9805,-4.7773,-4.7656,-5.0,-4.5156,-4.3086,-4.4648,-3.832,-3.4062,-3.2109,-2.7344,-2.5352,-2.5977,-2.4453,-2.4336,-2.5469,-2.7422,-3.25,-3.9726,-4.1836,-4.7461,-5.5039,-5.5664,-5.4765,-5.3281,0.0,-5.4492,-5.2383,-5.5,-5.5937,-5.582,-5.5195,-5.4961,-5.4844,-5.4219,-5.3867,-5.3672,-5.3672,-5.3382,-5.2935,-5.2044,-5.1146,-4.9528,-4.5711,-4.3272,-4.0739,0.0,0.0,0.0,0.0,0.0,0.0,0.0,-3.1545,-2.8967,-2.5625,-2.2389,-1.9773,-1.8238,-1.7853,0.0,-1.9465,0.0,0.0,0.0,0.0,0.0,0.0,0.0,0.0,0.0,0.0,0.0,-5.0596,-5.0712,-5.0712,-5.0712,-5.0712,-5.0712,-5.0712,-5.1318,-5.1692,-5.1923,-5.3241,-5.3933,-5.4203,-5.5049,-5.5395,-5.5395,-5.5588,-5.5703,-5.5703,-5.5703,-5.5703,-5.5703,-5.5703,-5.5703,-5.5703,-2.5703,-2.7969,-3.0117,-3.0469,-3.1055,-3.2461,-3.5391,-3.7226,-3.957,-4.3203,-4.5976,-4.7969,-4.8945,-5.0469,-5.1406,-5.1406,-5.1406,-5.0937,-4.9805,-4.9453,-4.9414,-4.9726,-4.8008,-4.7305,-4.7773,-4.3398,-3.9297,-3.5664,-3.1601,-2.8555,-2.6406,-2.543,-2.5039,-2.5234,-2.7344,-3.1562,-3.7422,-4.332,-4.8828,-5.3789,-5.5781,-5.5703,0.0,-5.6055,-5.5703,-5.4609,-5.6055,-5.6601,-5.6523,-5.6015,-5.5859,-5.5781,-5.5273,-5.4883,-5.457,-5.457,-5.4208,-5.3784,-5.3784,-5.3254,-5.2228,-5.0343,-4.867,-4.6432,-4.2277,-4.2055,-4.2209,0.0,-4.0085,-4.0123,0.0,0.0,0.0,-2.3932,-2.1466,-1.985,-1.8626,-1.8357,-1.8623,0.0,-2.2154,0.0,0.0,0.0,0.0,0.0,0.0,0.0,0.0,0.0,0.0,-5.0558,-4.9971,-4.9933,-5.0712,-4.9933,-4.9933,-5.0712,-5.151,-5.2115,-5.25,-5.3895,-5.4703,-5.5049,-5.5511,-5.5703,-5.5703,-5.5703,-5.5703,-5.5703,-5.5703,-5.5703,-5.5703,-5.5703,-5.5703,-5.5703,-2.7344,-3.0078,-3.2695,-3.3164,-3.5664,-3.7734,-3.8086,-4.0156,-4.2305,-4.3984,-4.6484,-4.8086,-4.8086,-5.0078,-5.1406,-5.1406,-5.1484,-5.0625,-4.8398,-5.0469,-5.0742,-4.8516,-5.0547,-5.1758,-5.1758,-4.9141,-4.4883,-3.8945,-3.5976,-3.1484,-2.5703,-2.5469,-2.5039,-2.4492,-2.6875,-3.043,-3.5273,-4.5742,-5.0937,-5.2344,-5.539,-5.6601,-5.6601,-5.6601,-5.6601,-5.6601,-5.6601,-5.6601,-5.6601,-5.6601,-5.6601,-5.6601,-5.6601,-5.6094,-5.5469,-5.5469,-5.4836,-5.4186,-5.4186,-5.3896,-5.3613,-5.3613,-5.3383,-5.2049,-4.7625,-4.6595,-4.6364,-4.547,-4.2393,-4.1893,0.0,0.0,0.0,-2.3731,-2.1885,-2.1004,-2.0158,-2.0123,-2.02,-2.0308,0.0,0.0,0.0,0.0,0.0,0.0,0.0,0.0,0.0,0.0,0.0,-5.0558,-4.924,0.0,-5.0366,0.0,-4.9125,-5.0558,-5.1587,-5.2538,-5.3395,-5.4241,-5.5049,-5.5703,-5.5703,-5.5703,-5.5703,-5.5703,-5.5703,-5.5703,-5.5703,-5.5703,-5.5703,-5.5703,-5.5703,-5.5703,-2.8242,-3.1406,-3.3867,-3.2617,-3.6328,-4.0156,-4.2266,-4.3594,-4.4961,-4.668,-4.9141,-5.0742,-5.0742,-5.1133,-5.1406,-5.1406,-5.207,-5.2266,-5.1836,-5.2891,-5.3359,-5.2891,-5.332,-5.3555,-5.3555,-5.0351,-4.6055,-4.0742,-3.5976,-3.0898,-2.5664,-2.4219,-2.3867,-2.4453,-2.5625,-3.1601,-4.125,-4.7539,0.0,-5.5742,-5.6367,-5.6601,-5.6601,-5.6601,-5.6601,-5.6601,-5.6601,-5.6601,-5.6601,-5.6601,-5.6601,-5.6601,-5.6601,-5.6484,-5.6367,-5.6367,-5.625,-5.6092,-5.6092,-5.5405,-5.4647,-5.4647,-5.3925,-5.2972,-5.2087,-5.1856,-5.1625,-5.0731,-4.9962,-4.8654,-4.5932,0.0,0.0,0.0,0.0,-2.7928,-3.1846,-2.889,-2.6587,-2.7241,0.0,0.0,0.0,0.0,0.0,0.0,0.0,0.0,0.0,0.0,0.0,0.0,-5.0404,0.0,0.0,0.0,-5.0048,-4.9663,-5.1895,-5.3433,-5.4318,-5.5126,-5.5549,-5.5703,-5.5703,-5.5703,-5.5703,-5.5703,-5.5703,-5.5703,-5.5703,-5.5703,-5.5703,-5.5703,-5.5703,-5.5703,-3.2305,-3.4336,-3.6211,-3.6758,-4.0039,-4.3242,-4.5391,-4.7578,-4.8672,-4.7734,-4.9062,-5.0117,-5.0117,-5.168,-5.2734,-5.2734,-5.3125,-5.3359,-5.3359,-5.3789,-5.3984,-5.3984,-5.3984,-5.3984,-5.3984,-5.2383,-4.793,-4.0547,-3.7539,-3.2109,-2.4375,-2.3516,-2.3086,-2.3281,-2.7734,-3.3437,-4.0195,0.0,0.0,-5.4062,-5.5859,-5.6601,-5.6601,-5.6601,-5.6601,-5.6601,-5.6601,-5.6601,-5.6601,-5.6601,-5.6601,-5.6601,-5.6601,-5.6601,-5.6601,-5.6601,-5.6601,-5.6601,-5.6601,-5.6146,-5.5654,-5.559,-5.5077,-5.4486,-5.4003,-5.3857,-5.3626,-5.2731,-5.2577,-5.101,-4.5893,-4.0816,0.0,0.0,0.0,0.0,-3.4923,-3.3385,-3.2006,0.0,0.0,0.0,0.0,0.0,0.0,0.0,0.0,0.0,0.0,0.0,0.0,0.0,0.0,0.0,0.0,0.0,0.0,-5.0741,-5.2856,-5.4087,-5.4511,-5.5318,-5.5703,-5.5703,-5.5703,-5.5703,-5.5703,-5.5703,-5.5703,-5.5703,-5.5703,-5.5703,-5.5703,-5.5703,-5.5703,-5.5703,-3.6406,-3.7539,-3.9023,-4.1094,-4.3867,-4.6289,-4.7656,-5.0781,-5.1953,-4.9062,-4.9453,-4.9961,-4.9961,-5.2383,-5.3984,-5.3984,-5.418,-5.4297,-5.4297,-5.4453,-5.4531,-5.4531,-5.4531,-5.4531,-5.4531,-5.4531,-5.0351,-4.1797,-3.9844,-3.4062,-2.4805,-2.3672,-2.3477,-2.4375,-3.082,0.0,0.0,0.0,-5.1094,-5.2734,-5.5508,-5.6601,-5.6601,-5.6601,-5.6601,-5.6601,-5.6601,-5.6601,-5.6601,-5.6601,-5.6601,-5.6601,-5.6601,-5.6601,-5.6601,-5.6601,-5.6601,-5.6601,-5.6601,-5.651,-5.6374,-5.626,-5.6058,-5.5719,-5.495,-5.4783,-5.4511,-5.3664,-5.3318,-5.1625,-4.6556,-4.3047,0.0,0.0,0.0,0.0,0.0,0.0,-3.6308,0.0,0.0,0.0,0.0,0.0,0.0,0.0,0.0,0.0,0.0,0.0,0.0,0.0,0.0,-4.7778,-4.8779,0.0,-5.051,0.0,-5.3587,-5.4587,-5.478,-5.5395,-5.5703,-5.5703,-5.5703,-5.5703,-5.5703,-5.5703,-5.5703,-5.5703,-5.5703,-5.5703,-5.5703,-5.5703,-5.5703,-5.5703,-3.8359,-4.0273,-4.1992,-4.2226,-4.5742,-4.8594,-4.875,-5.168,-5.3476,-5.2383,-5.2969,-5.3516,-5.3516,-5.3828,-5.3984,-5.3984,-5.4726,-5.5195,-5.5195,-5.5937,-5.6367,-5.6367,-5.6367,-5.6367,-5.6367,-5.6367,-5.3633,0.0,0.0,-3.6484,-3.0078,-2.5391,-2.6055,-3.1328,0.0,0.0,0.0,-4.9531,-5.25,-5.6133,-5.6484,-5.6601,-5.6601,-5.6601,-5.6601,-5.6601,-5.6601,-5.6601,-5.6601,-5.6601,-5.6601,-5.6601,-5.6601,-5.6601,-5.6601,-5.6601,-5.6601,-5.6601,-5.6601,-5.651,-5.6389,-5.638,-5.6136,-5.5877,-5.5775,-5.5683,-5.5357,-5.4549,-5.3741,-5.1625,-4.6556,-4.8355,-4.7808,0.0,0.0,0.0,0.0,0.0,-3.8931,-4.2008,0.0,0.0,0.0,0.0,0.0,0.0,0.0,0.0,0.0,0.0,0.0,-4.4701,0.0,-4.4008,-4.2662,-4.8654,-5.1395,-5.0827,-5.3318,-5.4895,-5.5588,-5.5665,-5.5703,-5.5703,-5.5703,-5.5703,-5.5703,-5.5703,-5.5703,-5.5703,-5.5703,-5.5703,-5.5703,-5.5703,-5.5703,-5.5703,-4.3906,-4.3984,-4.4766,-4.7344,0.0,0.0,0.0,-5.3555,-5.4648,-5.4297,-5.457,-5.4765,-5.4765,-5.5234,-5.5547,-5.5547,-5.5898,-5.6094,-5.6094,-5.6406,-5.6601,-5.6601,-5.6601,-5.6601,-5.6601,-5.6601,-5.4062,0.0,0.0,-3.7578,-3.1641,-2.957,-3.1523,0.0,0.0,-4.5351,-4.9141,-5.3125,-5.5508,-5.668,-5.7734,-5.7851,-5.7422,-5.7969,-5.7851,-5.7383,-5.7383,-5.7031,-5.6601,-5.6601,-5.6601,-5.6601,-5.6601,-5.6601,-5.6601,-5.6601,-5.6601,-5.6601,-5.6601,-5.656,-5.651,-5.6399,-5.6297,-5.6147,-5.5939,-5.5849,-5.5702,-5.5322,-5.4549,-5.3356,-5.1318,-4.9817,-4.8346,0.0,0.0,0.0,0.0,0.0,0.0,-4.7509,0.0,-4.1777,0.0,0.0,0.0,0.0,0.0,0.0,0.0,0.0,0.0,-3.9623,0.0,-4.6817,-4.4124,-4.9817,-5.2779,-5.301,-5.4511,-5.5395,-5.5703,-5.5703,-5.5703,-5.5703,-5.5703,-5.5703,-5.5703,-5.5703,-5.5703,-5.5703,-5.5703,-5.5703,-5.5703,-5.5703,-5.5703,-5.5703,-4.8516,0.0,-4.8008,0.0,-5.1406,-5.1601,-5.4023,-5.5117,-5.5664,-5.5664,-5.5664,-5.5664,-5.5664,-5.6211,-5.6601,-5.6601,-5.6601,-5.6601,-5.6601,-5.6601,-5.6601,-5.6601,-5.6601,0.0,-5.6601,-5.6601,-5.4805,-5.1172,-4.5976,0.0,-3.707,-3.5781,-3.8086,0.0,-4.7734,-5.0508,-5.2226,-5.6484,-5.793,-5.7461,-5.8711,-5.8828,-5.8359,-5.8984,-5.8828,-5.8281,-5.8281,-5.789,-5.7344,-5.707,-5.6992,-5.6953,-5.668,-5.6601,-5.6601,-5.6601,-5.6601,-5.6601,-5.6601,-5.6601,-5.6562,-5.6465,-5.6443,-5.6319,-5.6108,-5.6012,-5.5971,-5.5861,-5.5335,-5.4844,-5.4657,-5.1615,-4.9422,-5.0343,0.0,0.0,0.0,-4.9211,0.0,-4.8865,-4.6394,-4.4393,-4.3547,0.0,0.0,0.0,0.0,0.0,0.0,0.0,0.0,0.0,0.0,0.0,0.0,-5.0894,-5.3895,-5.4511,-5.5318,-5.5703,-5.5703,-5.5703,-5.5703,-5.5703,-5.5703,-5.5703,-5.5703,-5.5703,-5.5703,-5.5703,-5.5703,-5.5703,-5.5703,-5.5703,-5.5857,-5.6088,-5.1016,-5.1328,-5.1875,-5.3672,-5.4648,-5.5234,-5.5273,-5.6015,-5.6562,-5.6562,-5.6562,-5.6562,-5.6562,-5.6601,-5.6601,-5.6601,-5.6601,-5.6601,-5.6601,-5.6601,-5.6601,0.0,0.0,-5.6601,-5.6601,-5.6601,-5.6562,-5.6523,0.0,0.0,-4.8594,-4.4297,-4.5508,-5.125,-5.1328,-5.4258,-5.9062,-5.914,-5.918,-5.918,-5.918,-5.918,-5.918,-5.9219,-5.918,-5.918,-5.918,-5.918,-5.9023,-5.8164,-5.789,-5.7734,-5.6875,-5.6601,-5.6601,-5.6601,-5.6601,-5.6601,-5.6601,-5.6601,-5.6601,-5.6601,-5.6508,-5.6389,-5.6389,-5.6277,-5.6191,-5.6186,-5.6019,-5.5668,-5.5036,-5.4622,-5.283,-4.7952,0.0,0.0,0.0,-4.5671,0.0,-4.447,-3.6238,-3.4231,-4.3393,0.0,0.0,0.0,0.0,0.0,0.0,0.0,0.0,-4.4008,-4.5171,0.0,-4.5594,-5.151,-5.4472,-5.4511,-5.5318,-5.5703,-5.5703,-5.5703,-5.5703,-5.5703,-5.5703,-5.5703,-5.5703,-5.5703,-5.5703,-5.5703,-5.5703,-5.5703,-5.5703,-5.5703,-5.6252,-5.6983,-5.3828,-5.4062,-5.4414,-5.5586,-5.6015,-5.6172,-5.6172,-5.6406,-5.6601,-5.6601,-5.6601,-5.6601,-5.6601,-5.6601,-5.6601,0.0,-5.6601,-5.6836,0.0,-5.75,-5.7734,-5.8359,-5.8359,-5.8359,-5.8359,-5.8359,-5.8359,-5.8359,0.0,0.0,0.0,-5.0078,-5.2031,-5.6719,-5.6719,-5.7656,-5.9258,-5.9805,-5.9687,-5.9297,-6.043,-6.0547,-6.0078,-6.0664,-6.0547,-6.0039,-6.0039,-5.9687,-5.914,-5.8867,-5.8398,-5.7851,-5.7578,-5.707,-5.6601,-5.6601,-5.6601,-5.6601,-5.6601,-5.6601,-5.6601,-5.6601,-5.6561,-5.6512,-5.6402,-5.6281,-5.6191,-5.6191,-5.6152,-5.6057,-5.5836,-5.5728,-5.4938,-5.2752,-5.3294,0.0,-5.1184,0.0,-5.0563,-4.9605,-4.6846,-4.6009,0.0,-4.1316,0.0,0.0,0.0,0.0,0.0,0.0,0.0,0.0,-4.7317,0.0,-4.7317,-5.2087,-5.478,-5.5318,-5.5588,-5.5703,-5.5703,-5.5703,-5.5703,-5.5703,-5.5703,-5.5703,-5.5703,-5.5703,-5.5703,-5.5703,-5.5703,-5.5703,-5.5703,-5.5703,-5.6252,-5.6983,-5.5664,-5.5781,-5.5976,-5.6484,-5.6601,-5.6601,-5.6601,-5.6601,-5.6601,-5.6601,-5.6875,-5.7109,-5.7109,-5.7383,0.0,-5.7109,-5.7109,-5.7461,-5.832,-5.8398,-5.8633,-5.918,-5.9219,-5.9219,-5.9219,-5.9219,0.0,-5.9219,-5.6797,-5.5586,-5.5586,-5.5937,-5.7539,-6.0156,-6.0156,-6.0156,-6.0156,-6.0664,-6.0586,-6.0234,-6.1289,-6.1367,-6.0937,-6.1484,-6.1367,-6.0898,-6.0898,-6.0586,-6.0078,-5.9765,-5.9297,-5.8789,-5.8476,-5.7773,-5.7031,-5.6719,-5.6601,-5.6601,-5.6601,-5.6601,-5.6601,-5.6601,-5.6601,-5.6562,-5.6508,-5.6397,-5.6361,-5.6361,-5.6293,-5.6277,-5.6354,-5.626,-5.6057,-5.552,-5.5142,-5.4675,-5.3994,-5.3615,-5.2569,0.0,0.0,0.0,0.0,-4.5893,0.0,0.0,0.0,0.0,0.0,0.0,0.0,-4.4432,-5.0471,0.0,-5.051,-5.3472,-5.5203,-5.5703,-5.5703,-5.5703,-5.5703,-5.5703,-5.5703,-5.5703,-5.5703,-5.5703,-5.5703,-5.5703,-5.5703,-5.5703,-5.5703,-5.5895,-5.6214,-5.6214,-5.6934,-5.7934,-5.6601,-5.6601,-5.6601,0.0,-5.6601,0.0,-5.6601,-5.664,-5.668,-5.668,-5.7461,-5.8008,-5.8008,-5.8711,-5.8906,-5.8125,0.0,0.0,0.0,-5.9297,-5.9297,-5.9375,-5.9375,-5.9375,-5.9375,-5.9375,-5.9375,-5.9375,-6.0117,-6.0508,-6.0508,-6.1328,-6.1719,-6.1719,-6.1719,-6.1719,-6.1719,-6.1719,-6.1719,-6.1719,-6.1719,-6.1719,-6.1719,-6.1719,-6.1719,-6.1719,-6.1719,-6.1719,-6.1562,-6.0742,-6.0469,-6.0273,-5.9531,-5.8672,-5.7812,-5.6953,-5.664,-5.6601,-5.6601,-5.6601,-5.6601,-5.6601,-5.6601,-5.6601,-5.6601,-5.6601,-5.6601,-5.6601,-5.651,-5.6454,-5.6562,-5.6389,-5.626,-5.6386,-5.5634,-5.4969,-5.4823,-5.4103,-5.2051,0.0,0.0,0.0,0.0,-4.7385,-4.8894,0.0,0.0,0.0,0.0,0.0,-4.2385,-5.3049,-5.4164,-5.4587,-5.4587,-5.5318,-5.5703,-5.5703,-5.5703,-5.5703,-5.5703,-5.5703,-5.5703,-5.5703,-5.5703,-5.5703,-5.5703,-5.5703,-5.5703,-5.5703,-5.578,-5.6291,-5.7022,-5.706,-5.8088,-5.9511,0.0,0.0,-5.6601,-5.6601,-5.6601,-5.6601,-5.6601,-5.7148,-5.7578,-5.7578,-5.8359,-5.8906,-5.8906,-5.9062,-5.9375,-5.9765,-5.9258,-5.9258,-6.0078,-6.0117,-6.039,-6.1094,-6.1094,-6.1094,-6.1094,-6.1094,-6.1094,-6.1094,-6.1289,-6.1406,-6.1406,-6.1601,-6.1719,-6.1719,-6.1719,-6.1719,-6.1719,-6.1719,-6.1719,-6.1719,-6.1719,-6.1719,-6.1719,-6.1719,-6.1719,-6.1719,-6.1719,-6.1719,-6.168,-6.1445,-6.0937,-6.0351,-6.0195,-5.9531,-5.8711,-5.7851,-5.7109,-5.6601,-5.6601,-5.6601,-5.6601,-5.6601,-5.6601,-5.6601,-5.6601,-5.6601,-5.6601,-5.6601,-5.6562,-5.656,-5.6601,-5.6559,-5.6514,-5.6558,-5.636,-5.6092,-5.5869,-5.5674,-5.4827,0.0,-5.2702,-5.2433,-5.1779,-5.2318,-5.1241,0.0,0.0,0.0,0.0,-4.6586,-4.8394,-5.4895,-5.5318,-5.5434,-5.5434,-5.5588,-5.5703,-5.5703,-5.5703,-5.5703,-5.5703,-5.5703,-5.5703,-5.5703,-5.5703,-5.5703,-5.5703,-5.5703,-5.5703,-5.578,-5.6445,-5.683,-5.7099,-5.7742,-5.8627,-5.9511,-5.6601,-5.6601,-5.6601,-5.6601,-5.6914,-5.7187,-5.7187,-5.793,-5.8476,-5.8476,-5.9219,-5.9765,-5.9765,-6.0117,-6.0508,-6.0976,-6.0234,-6.0117,-6.0937,-6.0976,-6.1211,-6.168,-6.1719,-6.1719,-6.1719,-6.1719,-6.1719,-6.1719,-6.1719,-6.1719,-6.1719,-6.1719,-6.1719,-6.1719,-6.1719,-6.1719,-6.1719,-6.1719,-6.1719,-6.1719,-6.1719,-6.1719,-6.1719,-6.1719,-6.1719,-6.1719,-6.1719,-6.1719,-6.1719,-6.1719,-6.1406,-6.0976,-6.0976,-6.043,-5.9648,-5.918,-5.8164,-5.7187,-5.7187,-5.6914,-5.6601,-5.6601,-5.6601,-5.6601,-5.6601,-5.6601,-5.6601,-5.6601,-5.6601,-5.6601,-5.6601,-5.6601,-5.6601,-5.6601,-5.6601,-5.6517,-5.6301,-5.6232,-5.5948,-5.5237,-5.5093,-5.4857,-5.4395,-5.478,-5.3703,-5.0481,0.0,0.0,-5.0933,-5.1356,-5.2856,-5.5588,-5.5703,-5.5703,-5.5703,-5.5703,-5.5703,-5.5703,-5.5703,-5.5703,-5.5703,-5.5703,-5.5703,-5.5703,-5.5703,-5.5703,-5.5703,-5.5703,-5.5934,-5.6329,-5.683,-5.7484,-5.8204,-5.8665,-5.9396,-6.0089,-5.6601,-5.6719,-5.6797,-5.6797,-5.7539,-5.8086,-5.8086,-5.8828,-5.9375,-5.9375,-6.0078,-6.0586,-6.0586,-6.125,-6.1719,-6.1719,-6.1015,-6.0898,-6.164,-6.1719,-6.1719,-6.1719,-6.1719,-6.1719,-6.1719,-6.1719,-6.1719,-6.1719,-6.1719,-6.1719,-6.1719,-6.1719,-6.1719,-6.1719,-6.1719,-6.1719,-6.1719,-6.1719,-6.1719,-6.1719,-6.1719,-6.1719,-6.1719,-6.1719,-6.1719,-6.1719,-6.1719,-6.1719,-6.1719,-6.1719,-6.1719,-6.1719,-6.1719,-6.1172,-6.0586,-6.0586,-5.9492,-5.8242,-5.8125,-5.7461,-5.6758,-5.664,-5.6601,-5.6601,-5.6601,-5.6601,-5.6601,-5.6601,-5.6601,-5.6601,-5.6601,-5.6601,-5.6406,-5.5742,-5.6172,-5.6325,-5.5541,0.0,-5.6164,-5.5947,-5.5788,-5.5717,-5.5714,-5.5703,-5.5703,-5.5703,-5.5703,-5.5703,-5.5703,-5.5703,-5.5703,-5.5703,-5.5703,-5.5703,-5.5703,-5.5703,-5.5703,-5.5703,-5.5703,-5.5703,-5.5703,-5.5703,-5.5703,-5.5703,-5.5703,-5.5703,-5.5703,-5.5818,-5.6329,-5.7022,-5.7291,-5.8242,-5.9511,-5.9665,-6.0165,-6.0781,-5.6601,-5.7187,-5.7695,-5.7695,-5.8437,-5.8984,-5.8984,-5.9687,-6.0195,-6.0195,-6.0976,-6.1484,-6.1484,-6.1601,-6.1719,-6.1719,-6.1562,-6.1562,-6.168,-6.1719,-6.1719,-6.1719,-6.1719,-6.1719,-6.1719,-6.1719,-6.1719,-6.1719,-6.1719,-6.1719,-6.1719,-6.1719,-6.1719,-6.1719,-6.1719,-6.1719,-6.1719,-6.1719,-6.1719,-6.1719,-6.1719,-6.1719,-6.1719,-6.1719,-6.1719,-6.1719,-6.1719,-6.1719,-6.1719,-6.1719,-6.1719,-6.1719,-6.1719,-6.1601,-6.1484,-6.1484,-6.0781,-5.9844,-5.918,-5.8359,-5.7539,-5.6797,-5.6601,-5.6601,-5.6601,-5.6601,-5.6601,-5.6601,-5.6601,-5.6601,-5.6601,-5.6601,-5.539,-5.1797,-5.4219,-5.527,-5.1435,0.0,-5.6264,-5.5924,-5.5891,-5.5834,-5.5686,-5.5703,-5.5703,-5.5703,-5.5703,-5.5703,-5.5703,-5.5703,-5.5703,-5.5703,-5.5703,-5.5703,-5.5703,-5.5703,-5.5703,-5.5703,-5.5703,-5.5703,-5.5703,-5.5703,-5.5703,-5.5703,-5.5703,-5.5703,-5.5742,-5.6483,-5.6868,-5.7137,-5.855,-5.9281,-5.9588,-6.0319,-6.0666,-6.0781,-5.7305,-5.8008,-5.8594,-5.8594,-5.9297,-5.9844,-5.9844,-6.0547,-6.1094,-6.1094,-6.1445,-6.1719,-6.1719,-6.1719,-6.1719,-6.1719,-6.1719,-6.1719,-6.1719,-6.1719,-6.1719,-6.1719,-6.1719,-6.1719,-6.1719,-6.1719,-6.1719,-6.1719,-6.1719,-6.1719,-6.1719,-6.1719,-6.1719,-6.1719,-6.1719,-6.1719,-6.1719,-6.1719,-6.1719,-6.1719,-6.1719,-6.1719,-6.1719,-6.1719,-6.1719,-6.1719,-6.1719,-6.1719,-6.1719,-6.1719,-6.1719,-6.1719,-6.1719,-6.1719,-6.1719,-6.1719,-6.1094,-6.0117,-5.8867,-5.8203,-5.7695,-5.6836,-5.6601,-5.6601,-5.6601,-5.6601,-5.6601,-5.6601,-5.6601,-5.6601,-5.6601,-5.6601,-5.5937,-5.3984,-5.5312,-5.5898,-5.3818,-5.5162,-5.6305,-5.6071,-5.5986,-5.5831,-5.5696,-5.5703,-5.5703,-5.5703,-5.5703,-5.5703,-5.5703,-5.5703,-5.5703,-5.5703,-5.5703,-5.5703,-5.5703,-5.5703,-5.5703,-5.5703,-5.5703,-5.5703,-5.5703,-5.5703,-5.5703,-5.5703,-5.5703,-5.5972,-5.6445,-5.683,-5.7522,-5.8434,-5.9204,-5.9781,-6.0242,-6.0666,-6.0781,-6.0781,-5.8164,-5.8906,-5.9492,-5.9492,-6.0156,-6.0703,-6.0703,-6.1289,-6.1719,-6.1719,-6.1719,-6.1719,-6.1719,-6.1719,-6.1719,-6.1719,-6.1719,-6.1719,-6.1719,-6.1719,-6.1719,-6.1719,-6.1719,-6.1719,-6.1719,-6.1719,-6.1719,-6.1719,-6.1719,-6.1719,-6.1719,-6.1719,-6.1719,-6.1719,-6.1719,-6.1719,-6.1719,-6.1719,-6.1719,-6.1719,-6.1719,-6.1719,-6.1719,-6.1719,-6.1719,-6.1719,-6.1719,-6.1719,-6.1719,-6.1719,-6.1719,-6.1719,-6.1719,-6.1719,-6.1719,-6.1719,-6.1211,-6.039,-5.8906,-5.8359,-5.8008,-5.7109,-5.6758,-5.6601,-5.6601,-5.6601,-5.6601,-5.6601,-5.6601,-5.6601,-5.6601,-5.6601,-5.6289,-5.5273,0.0,-5.625,-5.5234,-5.5888,-5.6389,-5.6256,-5.6065,-5.5907,-5.575,-5.5707,-5.5703,-5.5703,-5.5703,-5.5703,-5.5703,-5.5703,-5.5703,-5.5703,-5.5703,-5.5703,-5.5703,-5.5703,-5.5703,-5.5703,-5.5703,-5.5703,-5.5703,-5.5703,-5.5703,-5.5703,-5.5895,-5.6368,-5.7022,-5.7407,-5.8319,-5.9511,-5.9704,-6.0204,-6.0781,-6.0781,-6.0781,-6.0781,-5.8945,-5.9765,-6.0312,-6.0312,-6.1015,-6.1601,-6.1601,-6.164,-6.1719,-6.1719,-6.1719,-6.1719,-6.1719,-6.1719,-6.1719,-6.1719,-6.1719,-6.1719,-6.1719,-6.1719,-6.1719,-6.1719,-6.1719,-6.1719,-6.1719,-6.1719,-6.1719,-6.1719,-6.1719,-6.1719,-6.1719,-6.1719,-6.1719,-6.1719,-6.1719,-6.1719,-6.1719,-6.1719,-6.1719,-6.1719,-6.1719,-6.1719,-6.1719,-6.1719,-6.1719,-6.1719,-6.1719,-6.1719,-6.1719,-6.1719,-6.1719,-6.1719,-6.1719,-6.1719,-6.1719,-6.1719,-6.164,-6.1406,-6.0469,-5.9687,-5.8906,-5.8008,-5.7187,-5.6601,-5.6601,-5.6601,-5.6601,-5.6601,-5.6601,-5.6601,-5.6601,-5.6601,-5.5312,-5.1328,-5.4023,-5.5195,-5.1211,-5.4101,-5.6557,-5.6391,-5.6256,-5.6116,-5.5915,-5.5779,-5.5703,-5.5703,-5.5703,-5.5703,-5.5703,-5.5703,-5.5703,-5.5703,-5.5703,-5.5703,-5.5703,-5.5703,-5.5703,-5.5703,-5.5703,-5.5703,-5.5703,-5.5703,-5.5703,-5.5742,-5.656,-5.6945,-5.7137,-5.8665,-5.9396,-5.9588,-6.0396,-6.0742,-6.0781,-6.0781,-6.0781,-6.0781,-5.9883,-6.0625,-6.1211,-6.1211,-6.1484,-6.1719,-6.1719,-6.1719,-6.1719,-6.1719,-6.1719,-6.1719,-6.1719,-6.1719,-6.1719,-6.1719,-6.1719,-6.1719,-6.1719,-6.1719,-6.1719,-6.1719,-6.1719,-6.1719,-6.1719,-6.1719,-6.1719,-6.1719,-6.1719,-6.1719,-6.1719,-6.1719,-6.1719,-6.1719,-6.1719,-6.1719,-6.1719,-6.1719,-6.1719,-6.1719,-6.1719,-6.1719,-6.1719,-6.1719,-6.1719,-6.1719,-6.1719,-6.1719,-6.1719,-6.1719,-6.1719,-6.1719,-6.1719,-6.1719,-6.1719,-6.1719,-6.1719,-6.164,-6.1289,-6.0586,-5.9726,-5.8906,-5.8047,-5.7422,-5.7422,-5.6992,-5.6601,-5.6601,-5.6601,-5.6601,-5.6601,-5.6601,-5.6055,-5.4414,0.0,-5.6015,-5.4414,-5.5586,-5.6559,-5.6438,-5.6269,-5.6135,-5.5901,-5.5789,-5.5703,-5.5703,-5.5703,-5.5703,-5.5703,-5.5703,-5.5703,-5.5703,-5.5703,-5.5703,-5.5703,-5.5703,-5.5703,-5.5703,-5.5703,-5.5703,-5.5703,-5.6252,-5.6522,-5.656,-5.7434,-5.8088,-5.8588,-5.9242,-5.9819,-6.0319,-6.0666,-6.0781,-6.0781,-6.0781,-6.0781,-6.0781,-6.0742,-6.1289,-6.1719,-6.1719,-6.1719,-6.1719,-6.1719,-6.1719,-6.1719,-6.1719,-6.1719,-6.1719,-6.1719,-6.1719,-6.1719,-6.1719,-6.1719,-6.1719,-6.1719,-6.1719,-6.1719,-6.1719,-6.1719,-6.1719,-6.1719,-6.1719,-6.1719,-6.1719,-6.1719,-6.1719,-6.1719,-6.1719,-6.1719,-6.1719,-6.1719,-6.1719,-6.1719,-6.1719,-6.1719,-6.1719,-6.1719,-6.1719,-6.1719,-6.1719,-6.1719,-6.1719,-6.1719,-6.1719,-6.1719,-6.1719,-6.1719,-6.1719,-6.1719,-6.1719,-6.1719,-6.1719,-6.1719,-6.1719,-6.1719,-6.125,-6.0625,-5.9765,-5.8945,-5.8242,-5.7969,-5.7422,-5.6914,-5.664,-5.6601,-5.6601,-5.6601,-5.6601,-5.6601,-5.6601,-5.6601,-5.6601,-5.6601,-5.6601,-5.6561,-5.6462,-5.6289,-5.6152,-5.5991,-5.5836,-5.5703,-5.5703,-5.5703,-5.5703,-5.5703,-5.5703,-5.5703,-5.5703,-5.5703,-5.5703,-5.5703,-5.5703,-5.5703,-5.5703,-5.5703,-5.5703,-5.5742,-5.6599,-5.6983,-5.706,-5.8204,-5.8973,-5.9511,-5.9819,-6.0242,-6.0781,-6.0781,-6.0781,-6.0781,-6.0781,-6.0781,-6.0781,-6.1523,-6.1719,-6.1719,-6.1719,-6.1719,-6.1719,-6.1719,-6.1719,-6.1719,-6.1719,-6.1719,-6.1719,-6.1719,-6.1719,-6.1719,-6.1719,-6.1719,-6.1719,-6.1719,-6.1719,-6.1719,-6.1719,-6.1719,-6.1719,-6.1719,-6.1719,-6.1719,-6.1719,-6.1719,-6.1719,-6.1719,-6.1719,-6.1719,-6.1719,-6.1719,-6.1719,-6.1719,-6.1719,-6.1719,-6.1719,-6.1719,-6.1719,-6.1719,-6.1719,-6.1719,-6.1719,-6.1719,-6.1719,-6.1719,-6.1719,-6.1719,-6.1719,-6.1719,-6.1719,-6.1719,-6.1719,-6.1719,-6.1719,-6.1719,-6.1719,-6.1484,-6.0625,-5.9805,-5.8984,-5.8125,-5.789,-5.7656,-5.6797,-5.6601,-5.6601,-5.6601,-5.6601,-5.6601,-5.6601,-5.6601,-5.6601,-5.6601,-5.6601,-5.6601,-5.6601,-5.6371,-5.6191,-5.6191,-5.5896,-5.5714,-5.5703,-5.5703,-5.5703,-5.5703,-5.5703,-5.5703,-5.5703,-5.5703,-5.5703,-5.5703,-5.5703,-5.5703,-5.5703,-5.5703,-5.5703,-5.5742,-5.6637,-5.7022,-5.7099,-5.8781,-5.9511,-5.9588,-6.0435,-6.0781,-6.0781,-6.0781,-6.0781,-6.0781,-6.0781,-6.0781,-6.0781,-6.164,-6.1719,-6.1719,-6.1719,-6.1719,-6.1719,-6.1719,-6.1719,-6.1719,-6.1719,-6.1719,-6.1719,-6.1719,-6.1719,-6.1719,-6.1719,-6.1719,-6.1719,-6.1719,-6.1719,-6.1719,-6.1719,-6.1719,-6.1719,-6.1719,-6.1719,-6.1719,-6.1719,-6.1719,-6.1719,-6.1719,-6.1719,-6.1719,-6.1719,-6.1719,-6.1719,-6.1719,-6.1719,-6.1719,-6.1719,-6.1719,-6.1719,-6.1719,-6.1719,-6.1719,-6.1719,-6.1719,-6.1719,-6.1719,-6.1719,-6.1719,-6.1719,-6.1719,-6.1719,-6.1719,-6.1719,-6.1719,-6.1719,-6.1719,-6.1719,-6.164,-6.1367,-6.0664,-5.9961,-5.9726,-5.9219,-5.8555,-5.7695,-5.75,-5.7344,-5.6719,-5.6601,-5.6601,-5.6601,-5.6601,-5.6601,-5.6601,-5.6601,-5.6601,-5.6601,-5.6452,-5.6285,-5.6202,-5.5986,-5.5788,-5.5724,-5.5703,-5.5703,-5.5703,-5.5703,-5.5703,-5.5703,-5.6291,-5.6329,-5.5703,-5.5703,-5.5703,-5.5703,-5.6329,-5.6599,-5.6676,-5.8088,-5.8742,-5.8819,-5.9935,-6.0396,-6.0435,-6.0704,-6.0781,-6.0781,-6.0781,-6.0781,-6.0781,-6.0781,-6.0781,-6.0781,-6.1719,-6.1719,-6.1719,-6.1719,-6.1719,-6.1719,-6.1719,-6.1719,-6.1719,-6.1719,-6.1719,-6.1719,-6.1719,-6.1719,-6.1719,-6.1719,-6.1719,-6.1719,-6.1719,-6.1719,-6.1719,-6.1719,-6.1719,-6.1719,-6.1719,-6.1719,-6.1719,-6.1719,-6.1719,-6.1719,-6.1719,-6.1719,-6.1719,-6.1719,-6.1719,-6.1719,-6.1719,-6.1719,-6.1719,-6.1719,-6.1719,-6.1719,-6.1719,-6.1719,-6.1719,-6.1719,-6.1719,-6.1719,-6.1719,-6.1719,-6.1719,-6.1719,-6.1719,-6.1719,-6.1719,-6.1719,-6.1719,-6.1719,-6.1719,-6.1719,-6.1719,-6.1719,-6.1289,-6.082,-6.0469,-6.0039,-5.9336,-5.8164,-5.789,-5.7617,-5.6758,-5.6601,-5.6601,-5.6601,-5.6601,-5.6601,-5.6601,-5.6601,-5.6601,-5.6601,-5.6465,-5.6371,-5.6273,-5.6349,-5.648,-5.6725,-5.6742,-5.6742,-5.6742,-5.6742,-5.6742,-5.6742,-5.7242,-5.7242,-5.6742,-5.6742,-5.6549,-5.6214,-5.7088,-5.7511,-5.755,-5.8896,-5.9511,-5.955,-6.0435,-6.0781,-6.0781,-6.0781,-6.0781,-6.0781,-6.0781,-6.0781,-6.0781,-6.0781,-6.0781,-6.0781,-6.1719,-6.1719,-6.1719,-6.1719,-6.1719,-6.1719,-6.1719,-6.1719,-6.1719,-6.1719,-6.1719,-6.1719,-6.1719,-6.1719,-6.1719,-6.1719,-6.1719,-6.1719,-6.1719,-6.1719,-6.1719,-6.1719,-6.1719,-6.1719,-6.1719,-6.1719,-6.1719,-6.1719,-6.1719,-6.1719,-6.1719,-6.1719,-6.1719,-6.1719,-6.1719,-6.1719,-6.1719,-6.1719,-6.1719,-6.1719,-6.1719,-6.1719,-6.1719,-6.1719,-6.1719,-6.1719,-6.1719,-6.1719,-6.1719,-6.1719,-6.1719,-6.1719,-6.1719,-6.1719,-6.1719,-6.1719,-6.1719,-6.1719,-6.1719,-6.1719,-6.1719,-6.1719,-6.1719,-6.1484,-6.0703,-6.0508,-6.0078,-5.8437,-5.8125,-5.7851,-5.6875,-5.6719,-5.668,-5.6601,-5.668,-5.6719,-5.6719,-5.6797,-5.6836,-5.6836,-5.6702,-5.6631,-5.6626,-5.7029,-5.7571,-5.8259,-5.8292,-5.8319,-5.8319,-5.8319,-5.8319,-5.8319,-5.8357,-5.8357,-5.8319,-5.8434,-5.805,-5.7137,-5.7973,-5.8396,-5.8434,-5.9242,-5.9627,-5.9665,-6.0473,-6.0781,-6.0781,-6.0781,-6.0781,-6.0781,-6.0781,-6.0781,-6.0781,-6.0781,-6.0781,-6.0781,-6.1719,-6.1719,-6.1719,-6.1719,-6.1719,-6.1719,-6.1719,-6.1719,-6.1719,-6.1719,-6.1719,-6.1719,-6.1719,-6.1719,-6.1719,-6.1719,-6.1719,-6.1719,-6.1719,-6.1719,-6.1719,-6.1719,-6.1719,-6.1719,-6.1719,-6.1719,-6.1719,-6.1719,-6.1719,-6.1719,-6.1719,-6.1719,-6.1719,-6.1719,-6.1719,-6.1719,-6.1719,-6.1719,-6.1719,-6.1719,-6.1719,-6.1719,-6.1719,-6.1719,-6.1719,-6.1719,-6.1719,-6.1719,-6.1719,-6.1719,-6.1719,-6.1719,-6.1719,-6.1719,-6.1719,-6.1719,-6.1719,-6.1719,-6.1719,-6.1719,-6.1719,-6.1719,-6.1719,-6.164,-6.1445,-6.1406,-6.1133,-6.0078,-5.9844,-5.9414,-5.789,-5.7617,-5.7383,-5.6719,-5.7187,-5.7617,-5.7617,-5.8203,-5.8633,-5.8633,-5.8593,-5.8544,-5.839,-5.8285,-5.8278,-5.8458,-5.8371,-5.8319,-5.8319,-5.8319,-5.8319,-5.8319,-5.8896,-5.8934,-5.8319,-5.9588,-5.9511,-5.805,-5.8858,-5.9242,-5.9281,-6.0127,-6.0512,-6.0512,-6.0704,-6.0781,-6.0781,-6.0781,-6.0781,-6.0781,-6.0781,-6.0781,-6.0781,-6.0781,-6.0781,-6.0781,-6.1719,-6.1719,-6.1719,-6.1719,-6.1719,-6.1719,-6.1719,-6.1719,-6.1719,-6.1719,-6.1719,-6.1719,-6.1719,-6.1719,-6.1719,-6.1719,-6.1719,-6.1719,-6.1719,-6.1719,-6.1719,-6.1719,-6.1719,-6.1719,-6.1719,-6.1719,-6.1719,-6.1719,-6.1719,-6.1719,-6.1719,-6.1719,-6.1719,-6.1719,-6.1719,-6.1719,-6.1719,-6.1719,-6.1719,-6.1719,-6.1719,-6.1719,-6.1719,-6.1719,-6.1719,-6.1719,-6.1719,-6.1719,-6.1719,-6.1719,-6.1719,-6.1719,-6.1719,-6.1719,-6.1719,-6.1719,-6.1719,-6.1719,-6.1719,-6.1719,-6.1719,-6.1719,-6.1719,-6.1719,-6.1719,-6.1719,-6.1445,-6.0586,-6.039,-6.0,-5.875,-5.8515,-5.8359,-5.789,-5.8203,-5.8515,-5.8515,-5.8906,-5.9219,-5.9219,-5.9219,-5.9292,-5.9483,-5.9382,-5.9426,-5.9667,-5.965,-5.9549,-5.9484,-5.9473,-5.9473,-5.9473,-5.9896,-5.9935,-5.9511,-6.0358,-6.0358,-5.9511,-5.9935,-6.0127,-6.0127,-6.0589,-6.0781,-6.0781,-6.0781,-6.0781,-6.0781,-6.0781,-6.0781,-6.0781,-6.0781,-6.0781,-6.0781,-6.0781,-6.0781,-6.0781,-6.1719,-6.1719,-6.1719,-6.1719,-6.1719,-6.1719,-6.1719,-6.1719,-6.1719,-6.1719,-6.1719,-6.1719,-6.1719,-6.1719,-6.1719,-6.1719,-6.1719,-6.1719,-6.1719,-6.1719,-6.1719,-6.1719,-6.1719,-6.1719,-6.1719,-6.1719,-6.1719,-6.1719,-6.1719,-6.1719,-6.1719,-6.1719,-6.1719,-6.1719,-6.1719,-6.1719,-6.1719,-6.1719,-6.1719,-6.1719,-6.1719,-6.1719,-6.1719,-6.1719,-6.1719,-6.1719,-6.1719,-6.1719,-6.1719,-6.1719,-6.1719,-6.1719,-6.1719,-6.1719,-6.1719,-6.1719,-6.1719,-6.1719,-6.1719,-6.1719,-6.1719,-6.1719,-6.1719,-6.1719,-6.1719,-6.1719,-6.1484,-6.0781,-6.0625,-6.0351,-5.957,-5.9414,-5.9375,-5.9219,-5.9336,-5.9414,-5.9414,-5.9531,-5.9648,-5.9648,-5.9648,-5.9841,-6.0393,-6.0456,-6.0616,-6.1058,-6.1048,-6.0954,-6.0834,-6.0816,-6.0781,-6.0781,-6.0781,-6.0781,-6.0781,-6.0781,-6.0781,-6.0781,-6.0781,-6.0781,-6.0781,-6.0781,-6.0781,-6.0781,-6.0781,-6.0781,-6.0781,-6.0781,-6.0781,-6.0781,-6.0781,-6.0781,-6.0781,-6.0781,-6.0781,-6.0781,-6.1719,-6.1719,-6.1719,-6.1719,-6.1719,-6.1719,-6.1719,-6.1719,-6.1719,-6.1719,-6.1719,-6.1719,-6.1719,-6.1719,-6.1719,-6.1719,-6.1719,-6.1719,-6.1719,-6.1719,-6.1719,-6.1719,-6.1719,-6.1719,-6.1719,-6.1719,-6.1719,-6.1719,-6.1719,-6.1719,-6.1719,-6.1719,-6.1719,-6.1719,-6.1719,-6.1719,-6.1719,-6.1719,-6.1719,-6.1719,-6.1719,-6.1719,-6.1719,-6.1719,-6.1719,-6.1719,-6.1719,-6.1719,-6.1719,-6.1719,-6.1719,-6.1719,-6.1719,-6.1719,-6.1719,-6.1719,-6.1719,-6.1719,-6.1719,-6.1719,-6.1719,-6.1719,-6.1719,-6.1719,-6.1719,-6.1719,-6.168,-6.1562,-6.1523,-6.125,-6.039,-6.0234,-6.0,-5.9297,-5.9765,-6.0234,-6.0234,-6.0898,-6.1367,-6.1367,-6.1367,-6.1406,-6.1483,-6.1379,-6.1339,-6.1432,-6.1161,-6.0988,-6.0952,-6.085,-6.0781,-6.0781,-6.0781,-6.0781,-6.0781,-6.0781,-6.0781,-6.0781,-6.0781,-6.0781,-6.0781,-6.0781,-6.0781,-6.0781,-6.0781,-6.0781,-6.0781,-6.0781,-6.0781,-6.0781,-6.0781,-6.0781,-6.0781,-6.0781,-6.0781,-6.0781,-6.1719,-6.1719,-6.1719,-6.1719,-6.1719,-6.1719,-6.1719,-6.1719,-6.1719,-6.1719,-6.1719,-6.1719,-6.1719,-6.1719,-6.1719,-6.1719,-6.1719,-6.1719,-6.1719,-6.1719,-6.1719,-6.1719,-6.1719,-6.1719,-6.1719,-6.1719,-6.1719,-6.1719,-6.1719,-6.1719,-6.1719,-6.1719,-6.1719,-6.1719,-6.1719,-6.1719,-6.1719,-6.1719,-6.1719,-6.1719,-6.1719,-6.1719,-6.1719,-6.1719,-6.1719,-6.1719,-6.1719,-6.1719,-6.1719,-6.1719,-6.1719,-6.1719,-6.1719,-6.1719,-6.1719,-6.1719,-6.1719,-6.1719,-6.1719,-6.1719,-6.1719,-6.1719,-6.1719,-6.1719,-6.1719,-6.1719,-6.1719,-6.1719,-6.1719,-6.1562,-6.1211,-6.1133,-6.1015,-6.0664,-6.0898,-6.1133,-6.1133,-6.1445,-6.1719,-6.1719,-6.1719,-6.1719,-6.1719,-6.1636,-6.158,-6.1507,-6.1273,-6.1128,-6.1006,-6.0871,-6.0781,-6.0781,-6.0781,-6.0781,-6.0781,-6.0781,-6.0781,-6.0781,-6.0781,-6.0781,-6.0781,-6.0781,-6.0781,-6.0781,-6.0781,-6.0781,-6.0781,-6.0781,-6.0781,-6.0781,-6.0781,-6.0781,-6.0781,-6.0781,-6.0781,-6.0781]},{"header":{"parameterUnit":"m.s-1","parameterCategory":1,"la1":30.6,"la2":28.766,"lo1":-90.7593,"lo2":-88.6598,"dx":0.0162,"dy":0.0183,"nx":116,"ny":114,"refTime":"2022-12-03T18:00:00:Z","depth":0,"parameterNumber":3,"parameterNumberName":"V-component_of_WINDS"},"data":[0.0,0.0,0.0,0.0,0.0,0.0,0.0,0.0,0.0,0.0,0.0,0.0,0.0,0.0,0.0,0.0,0.0,0.0,0.0,0.0,0.0,0.0,0.0,0.0,0.0,0.0,0.0,0.0,0.0,0.0,0.0,0.0,0.0,0.0,0.0,0.0,0.0,0.0,0.0,0.0,0.0,0.0,0.0,0.0,0.0,0.0,0.0,0.0,0.0,0.0,0.0,0.0,0.0,0.0,0.0,0.0,0.0,0.0,0.0,0.0,0.0,0.0,0.0,0.0,0.0,0.0,0.0,0.0,0.0,0.0,0.0,0.0,0.0,0.0,0.0,0.0,0.0,0.0,0.0,0.0,0.0,0.0,0.0,0.0,0.0,0.0,0.0,0.0,0.0,0.0,0.0,0.0,0.0,0.0,0.0,0.0,0.0,0.0,0.0,0.0,0.0,0.0,0.0,0.0,0.0,0.0,0.0,0.0,0.0,0.0,0.0,0.0,0.0,0.0,0.0,0.0,0.0,0.0,0.0,0.0,0.0,0.0,0.0,0.0,0.0,0.0,0.0,0.0,0.0,0.0,0.0,0.0,0.0,0.0,0.0,0.0,0.0,0.0,0.0,0.0,0.0,0.0,0.0,0.0,0.0,0.0,0.0,0.0,0.0,0.0,0.0,0.0,0.0,0.0,0.0,0.0,0.0,0.0,0.0,0.0,0.0,0.0,0.0,0.0,0.0,0.0,0.0,0.0,0.0,0.0,0.0,0.0,0.0,0.0,0.0,0.0,0.0,0.0,0.0,0.0,0.0,0.0,0.0,0.0,0.0,0.0,0.0,0.0,0.0,0.0,0.0,0.0,0.0,0.0,0.0,0.0,0.0,0.0,0.0,0.0,0.0,0.0,0.0,0.0,0.0,0.0,0.0,0.0,0.0,0.0,0.0,0.0,0.0,0.0,0.0,0.0,0.0,0.0,0.0,0.0,0.0,0.0,0.0,0.0,0.0,0.0,0.0,0.0,0.0,0.0,0.0,0.0,0.0,0.0,0.0,0.0,0.0,0.0,0.0,0.0,0.0,0.0,0.0,0.0,0.0,0.0,0.0,0.0,0.0,0.0,0.0,0.0,0.0,0.0,0.0,0.0,0.0,0.0,0.0,0.0,0.0,0.0,0.0,0.0,0.0,0.0,0.0,0.0,0.0,0.0,0.0,0.0,0.0,0.0,0.0,0.0,0.0,0.0,0.0,0.0,0.0,0.0,0.0,0.0,0.0,0.0,0.0,0.0,0.0,0.0,0.0,0.0,0.0,0.0,0.0,0.0,0.0,0.0,0.0,0.0,0.0,0.0,0.0,0.0,0.0,0.0,0.0,0.0,0.0,0.0,0.0,0.0,0.0,0.0,0.0,0.0,0.0,0.0,0.0,0.0,0.0,0.0,0.0,0.0,0.0,0.0,0.0,0.0,0.0,0.0,0.0,0.0,0.0,0.0,0.0,0.0,0.0,0.0,0.0,0.0,0.0,0.0,0.0,0.0,0.0,0.0,0.0,0.0,0.0,0.0,0.0,0.0,0.0,0.0,0.0,0.0,0.0,0.0,0.0,0.0,0.0,0.0,0.0,0.0,0.0,0.0,0.0,0.0,0.0,0.0,0.0,0.0,0.0,0.0,0.0,0.0,0.0,0.0,0.0,0.0,0.0,0.0,0.0,0.0,0.0,0.0,0.0,0.0,0.0,0.0,0.0,0.0,0.0,0.0,0.0,0.0,0.0,0.0,0.0,0.0,0.0,0.0,0.0,0.0,0.0,0.0,0.0,0.0,0.0,0.0,0.0,0.0,0.0,0.0,0.0,0.0,0.0,0.0,0.0,0.0,0.0,0.0,0.0,0.0,0.0,0.0,0.0,0.0,0.0,0.0,0.0,0.0,0.0,0.0,0.0,0.0,0.0,0.0,0.0,0.0,0.0,0.0,0.0,0.0,0.0,0.0,0.0,0.0,0.0,0.0,0.0,0.0,0.0,0.0,0.0,0.0,0.0,0.0,0.0,0.0,0.0,0.0,0.0,0.0,0.0,0.0,0.0,0.0,0.0,0.0,0.0,0.0,0.0,0.0,0.0,0.0,0.0,0.0,0.0,0.0,0.0,0.0,0.0,0.0,0.0,0.0,0.0,0.0,0.0,0.0,0.0,0.0,0.0,0.0,0.0,0.0,0.0,0.0,0.0,0.0,0.0,0.0,0.0,0.0,0.0,0.0,0.0,0.0,0.0,0.0,0.0,0.0,0.0,0.0,0.0,0.0,0.0,0.0,0.0,0.0,0.0,0.0,0.0,0.0,0.0,0.0,0.0,0.0,0.0,0.0,0.0,0.0,0.0,0.0,0.0,0.0,0.0,0.0,0.0,0.0,0.0,0.0,0.0,0.0,0.0,0.0,0.0,0.0,0.0,0.0,0.0,0.0,0.0,0.0,0.0,0.0,0.0,0.0,0.0,0.0,0.0,0.0,0.0,0.0,0.0,0.0,0.0,0.0,0.0,0.0,0.0,0.0,0.0,0.0,0.0,0.0,0.0,0.0,0.0,0.0,0.0,0.0,0.0,0.0,0.0,0.0,0.0,0.0,0.0,0.0,0.0,0.0,0.0,0.0,0.0,0.0,0.0,0.0,0.0,0.0,0.0,0.0,0.0,0.0,0.0,0.0,0.0,0.0,0.0,0.0,0.0,0.0,0.0,0.0,0.0,0.0,0.0,0.0,0.0,0.0,0.0,0.0,0.0,0.0,0.0,0.0,0.0,0.0,0.0,0.0,0.0,0.0,0.0,0.0,0.0,0.0,0.0,0.0,0.0,0.0,0.0,0.0,0.0,0.0,0.0,0.0,0.0,0.0,0.0,0.0,0.0,0.0,0.0,0.0,0.0,0.0,0.0,0.0,0.0,0.0,0.0,0.0,0.0,0.0,0.0,0.0,0.0,0.0,0.0,0.0,0.0,0.0,0.0,0.0,0.0,0.0,0.0,0.0,0.0,0.0,0.0,0.0,0.0,0.0,0.0,0.0,0.0,0.0,0.0,0.0,0.0,0.0,0.0,0.0,0.0,0.0,0.0,0.0,0.0,0.0,0.0,0.0,0.0,0.0,0.0,0.0,0.0,0.0,0.0,0.0,0.0,0.0,0.0,0.0,0.0,0.0,0.0,0.0,0.0,0.0,0.0,0.0,0.0,0.0,0.0,0.0,0.0,0.0,0.0,0.0,0.0,0.0,0.0,0.0,0.0,0.0,0.0,0.0,0.0,0.0,0.0,0.0,0.0,0.0,0.0,0.0,0.0,0.0,0.0,0.0,0.0,0.0,0.0,0.0,0.0,0.0,0.0,0.0,0.0,0.0,0.0,0.0,0.0,0.0,0.0,0.0,0.0,0.0,0.0,0.0,0.0,0.0,0.0,0.0,0.0,0.0,0.0,0.0,0.0,0.0,0.0,0.0,0.0,0.0,0.0,0.0,0.0,0.0,0.0,0.0,0.0,0.0,0.0,0.0,0.0,0.0,0.0,0.0,0.0,0.0,0.0,0.0,0.0,0.0,0.0,0.0,0.0,0.0,0.0,0.0,0.0,0.0,0.0,0.0,0.0,0.0,0.0,0.0,0.0,0.0,0.0,0.0,0.0,0.0,0.0,0.0,0.0,0.0,0.0,0.0,0.0,0.0,0.0,0.0,0.0,0.0,0.0,0.0,0.0,0.0,0.0,0.0,0.0,0.0,0.0,0.0,0.0,0.0,0.0,0.0,0.0,0.0,0.0,0.0,0.0,0.0,0.0,0.0,0.0,0.0,0.0,0.0,0.0,0.0,0.0,0.0,0.0,0.0,0.0,0.0,0.0,0.0,0.0,0.0,0.0,0.0,0.0,0.0,0.0,0.0,0.0,0.0,0.0,0.0,0.0,0.0,0.0,0.0,0.0,0.0,0.0,0.0,0.0,0.0,0.0,0.0,0.0,0.0,0.0,0.0,0.0,0.0,0.0,0.0,0.0,0.0,0.0,0.0,0.0,0.0,0.0,0.0,0.0,0.0,0.0,0.0,0.0,0.0,0.0,0.0,0.0,0.0,0.0,0.0,0.0,0.0,0.0,0.0,0.0,0.0,0.0,0.0,0.0,0.0,0.0,0.0,0.0,0.0,0.0,0.0,0.0,0.0,0.0,0.0,0.0,0.0,0.0,0.0,0.0,0.0,0.0,0.0,0.0,0.0,0.0,0.0,0.0,0.0,0.0,0.0,0.0,0.0,0.0,0.0,0.0,0.0,0.0,0.0,0.0,0.0,0.0,0.0,0.0,0.0,0.0,0.0,0.0,0.0,0.0,0.0,0.0,0.0,0.0,0.0,0.0,0.0,0.0,0.0,0.0,0.0,0.0,0.0,0.0,0.0,0.0,0.0,0.0,0.0,0.0,0.0,0.0,0.0,0.0,0.0,0.0,0.0,0.0,0.0,0.0,0.0,0.0,0.0,0.0,0.0,0.0,0.0,0.0,0.0,0.0,0.0,0.0,0.0,0.0,0.0,0.0,0.0,0.0,0.0,0.0,0.0,0.0,0.0,0.0,0.0,0.0,0.0,0.0,0.0,0.0,0.0,0.0,0.0,0.0,0.0,0.0,0.0,0.0,0.0,0.0,0.0,0.0,0.0,0.0,0.0,0.0,0.0,0.0,0.0,0.0,0.0,0.0,0.0,0.0,0.0,0.0,0.0,0.0,0.0,0.0,0.0,0.0,0.0,0.0,0.0,0.0,0.0,0.0,0.0,0.0,0.0,0.0,0.0,0.0,0.0,0.0,0.0,0.0,0.0,0.0,0.0,0.0,0.0,0.0,0.0,0.0,0.0,0.0,0.0,0.0,0.0,0.0,0.0,0.0,0.0,0.0,0.0,0.0,0.0,0.0,0.0,0.0,0.0,0.0,0.0,0.0,0.0,0.0,0.0,0.0,0.0,0.0,0.0,0.0,0.0,0.0,0.0,0.0,0.0,0.0,0.0,0.0,0.0,0.0,0.0,0.0,0.0,0.0,0.0,0.0,0.0,0.0,0.0,0.0,0.0,0.0,0.0,0.0,0.0,0.0,0.0,0.0,0.0,0.0,0.0,0.0,0.0,0.0,0.0,0.0,0.0,0.0,0.0,0.0,0.0,0.0,0.0,0.0,0.0,0.0,0.0,0.0,0.0,0.0,0.0,0.0,0.0,0.0,0.0,0.0,0.0,0.0,0.0,0.0,0.0,0.0,0.0,0.0,0.0,0.0,0.0,0.0,0.0,0.0,0.0,0.0,0.0,0.0,0.0,0.0,0.0,0.0,0.0,0.0,0.0,0.0,0.0,0.0,0.0,0.0,0.0,0.0,0.0,0.0,0.0,0.0,0.0,0.0,0.0,0.0,0.0,0.0,0.0,0.0,0.0,0.0,0.0,0.0,0.0,0.0,0.0,0.0,0.0,0.0,0.0,0.0,0.0,0.0,0.0,0.0,0.0,0.0,0.0,0.0,0.0,0.0,0.0,0.0,0.0,0.0,0.0,0.0,0.0,0.0,0.0,0.0,0.0,0.0,0.0,0.0,0.0,0.0,0.0,0.0,0.0,0.0,0.0,0.0,0.0,0.0,0.0,0.0,0.0,0.0,0.0,0.0,0.0,0.0,0.0,0.0,0.0,0.0,0.0,0.0,0.0,0.0,0.0,0.0,0.0,0.0,0.0,0.0,0.0,0.0,0.0,0.0,0.0,0.0,0.0,0.0,0.0,0.0,0.0,0.0,0.0,0.0,0.0,0.0,0.0,0.0,0.0,0.0,0.0,0.0,0.0,0.0,0.0,0.0,0.0,0.0,0.0,0.0,0.0,0.0,0.0,0.0,0.0,0.0,0.0,0.0,0.0,0.0,0.0,0.0,0.0,0.0,0.0,0.0,0.0,0.0,0.0,0.0,0.0,0.0,0.0,0.0,0.0,0.0,0.0,0.0,0.0,0.0,0.0,0.0,0.0,0.0,0.0,0.0,0.0,0.0,0.0,0.0,0.0,0.0,0.0,0.0,0.0,0.0,0.0,0.0,0.0,0.0,0.0,0.0,0.0,0.0,0.0,0.0,0.0,0.0,0.0,-0.4239,0.0,0.0,0.0,0.0,0.0,0.0,0.0,0.0,0.0,0.0,0.0,0.0,0.0,0.0,0.0,0.0,0.0,0.0,0.0,0.0,0.0,0.0,0.0,0.0,0.0,0.0,0.0,0.0,0.0,0.0,0.0,0.0,0.0,0.0,0.0,0.0,0.0,0.0,0.0,0.0,0.0,0.0,0.0,0.0,0.0,0.0,0.0,0.0,0.0,0.0,0.0,0.0,0.0,0.0,0.0,0.0,0.0,0.0,0.0,0.0,0.0,0.0,0.0,0.0,0.0,0.0,0.0,0.0,0.0,0.0,0.0,0.0,0.0,0.0,0.0,0.0,0.0,0.0,0.0,0.0,0.0,0.0,0.0,0.0,0.0,0.0,0.0,0.0,0.0,0.0,0.0,0.0,0.0,0.0,0.0,0.0,0.0,0.0,0.0,0.0,0.0,0.0,0.0,0.0,0.0,0.0,0.0,0.0,0.0,0.0,0.0,0.0,0.0,0.0,0.0,0.0,-0.4579,0.0,0.0,0.0,0.0,0.0,0.0,0.0,0.0,0.0,0.0,0.0,0.0,0.0,0.0,0.0,0.0,0.0,0.0,0.0,0.0,0.0,0.0,0.0,0.0,0.0,0.0,0.0,0.0,0.0,0.0,0.0,0.0,0.0,0.0,0.0,0.0,0.0,0.0,0.0,0.0,0.0,0.0,0.0,0.0,0.0,0.0,0.0,0.0,0.0,0.0,0.0,0.0,0.0,0.0,0.0,0.0,0.0,0.0,0.0,0.0,0.0,0.0,0.0,0.0,0.0,0.0,0.0,0.0,0.0,0.0,0.0,0.0,0.0,0.0,0.0,0.0,0.0,0.0,0.0,0.0,0.0,0.0,0.0,0.0,0.0,0.0,0.0,0.0,0.0,0.0,0.0,0.0,0.0,0.0,0.0,0.0,0.0,0.0,0.0,0.0,0.0,0.0,0.0,0.0,0.0,0.0,0.0,0.0,-0.5339,-0.5562,-0.5747,-0.5747,-0.6033,-0.6491,-0.5684,-0.5623,-0.5952,-0.4948,0.0,0.0,0.0,0.0,0.0,0.0,0.0,0.0,0.0,0.0,0.0,0.0,0.0,0.0,0.0,0.0,0.0,0.0,0.0,0.0,0.0,0.0,0.0,0.0,0.0,0.0,0.0,0.0,0.0,0.0,0.0,0.0,0.0,0.0,0.0,0.0,0.0,0.0,0.0,0.0,0.0,0.0,0.0,0.0,0.0,0.0,0.0,0.0,0.0,0.0,0.0,0.0,0.0,0.0,0.0,0.0,0.0,0.0,0.0,0.0,0.0,0.0,0.0,0.0,0.0,0.0,0.0,0.0,0.0,0.0,0.0,0.0,0.0,0.0,0.0,0.0,0.0,0.0,0.0,0.0,0.0,0.0,0.0,0.0,0.0,0.0,-0.4361,-0.4545,0.0,0.0,0.0,0.0,0.0,0.0,0.0,0.0,0.0,0.0,0.0,0.0,0.0,-0.5047,-0.5276,-0.5822,-0.6102,-0.6129,-0.662,-0.6953,-0.7153,-0.7153,-0.7224,-0.7407,-0.7156,0.0,-0.6245,-0.5915,0.0,0.0,0.0,0.0,0.0,0.0,0.0,0.0,0.0,0.0,0.0,0.0,0.0,0.0,0.0,0.0,0.0,0.0,0.0,0.0,0.0,0.0,0.0,0.0,0.0,0.0,0.0,0.0,0.0,0.0,0.0,0.0,0.0,0.0,0.0,0.0,0.0,0.0,0.0,0.0,0.0,0.0,0.0,0.0,0.0,0.0,0.0,0.0,0.0,0.0,0.0,0.0,0.0,0.0,0.0,0.0,0.0,0.0,0.0,0.0,0.0,0.0,0.0,0.0,0.0,0.0,0.0,0.0,0.0,0.0,0.0,0.0,0.0,0.0,0.0,0.0,0.0,0.0,0.0,0.0,0.0,0.0,0.0,0.0,0.0,-0.4185,-0.4674,-0.4911,-0.4484,-0.4129,0.0,0.0,0.0,0.0,0.0,0.0,0.0,0.0,0.0,-0.565,-0.5895,-0.6166,-0.6532,-0.688,-0.7014,-0.7014,-0.7278,-0.7434,-0.7502,-0.7502,-0.7536,-0.7597,-0.7529,-0.7312,-0.6966,-0.6396,-0.58,-0.5177,0.0,0.0,0.0,0.0,-0.4702,-0.4791,0.0,0.0,0.0,0.0,0.0,0.0,0.0,0.0,0.0,0.0,0.0,0.0,0.0,0.0,0.0,0.0,0.0,0.0,0.0,0.0,0.0,0.0,0.0,0.0,0.0,0.0,0.0,0.0,0.0,0.0,0.0,0.0,0.0,0.0,0.0,0.0,0.0,0.0,0.0,0.0,0.0,0.0,0.0,0.0,0.0,0.0,0.0,0.0,0.0,0.0,0.0,0.0,0.0,0.0,0.0,0.0,0.0,0.0,0.0,0.0,0.0,0.0,0.0,0.0,0.0,0.0,0.0,0.0,0.0,0.0,0.0,0.0,0.0,0.0,0.0,0.0,0.0,-0.4592,-0.504,-0.5191,-0.4986,-0.4674,0.0,0.0,0.0,0.0,0.0,0.0,-0.546,-0.5623,-0.602,-0.6627,-0.6817,-0.7095,-0.7428,-0.7543,-0.7597,-0.7597,-0.7597,-0.7617,-0.7651,-0.7651,-0.7678,-0.7712,-0.7672,-0.7651,-0.7597,-0.6892,-0.6471,-0.6175,-0.573,-0.542,-0.5304,-0.5637,-0.5801,-0.5897,0.0,0.0,0.0,0.0,0.0,0.0,0.0,0.0,0.0,0.0,0.0,0.0,0.0,0.0,0.0,0.0,0.0,0.0,0.0,0.0,0.0,0.0,0.0,0.0,0.0,0.0,0.0,0.0,0.0,0.0,0.0,0.0,0.0,0.0,0.0,0.0,0.0,0.0,0.0,0.0,0.0,0.0,0.0,0.0,0.0,0.0,0.0,0.0,0.0,0.0,0.0,0.0,0.0,0.0,0.0,0.0,0.0,0.0,0.0,0.0,0.0,0.0,0.0,0.0,0.0,0.0,0.0,0.0,0.0,0.0,0.0,0.0,0.0,0.0,0.0,0.0,0.0,0.0,0.0,-0.5583,-0.5664,0.0,0.0,0.0,0.0,-0.5063,-0.5379,-0.5806,-0.6416,-0.6552,-0.6905,-0.7516,-0.755,-0.7563,-0.759,-0.7597,-0.7597,-0.7597,-0.7597,-0.7672,-0.7801,-0.7801,-0.7882,-0.7961,-0.7862,-0.7801,-0.7787,-0.7604,-0.7278,-0.6836,-0.6809,-0.6573,-0.6286,-0.6688,-0.6809,-0.6876,0.0,0.0,0.0,0.0,0.0,0.0,0.0,0.0,0.0,0.0,0.0,0.0,0.0,0.0,0.0,0.0,0.0,0.0,0.0,0.0,0.0,0.0,0.0,0.0,0.0,0.0,0.0,0.0,0.0,0.0,0.0,0.0,0.0,0.0,0.0,0.0,0.0,0.0,0.0,0.0,0.0,0.0,0.0,0.0,0.0,0.0,0.0,0.0,0.0,0.0,0.0,0.0,0.0,0.0,0.0,0.0,0.0,0.0,0.0,0.0,0.0,0.0,0.0,0.0,0.0,0.0,0.0,0.0,0.0,0.0,0.0,0.0,0.0,0.0,0.0,0.0,0.0,0.0,0.0,-0.5745,-0.5949,0.0,-0.5596,-0.5874,-0.6129,-0.6139,-0.6512,-0.6871,-0.7183,-0.7251,-0.738,-0.759,-0.7685,-0.7733,-0.7733,-0.7834,-0.7833,-0.7833,-0.7833,-0.786,-0.7907,-0.7907,-0.7941,-0.7988,-0.7934,-0.7907,-0.7907,-0.7853,-0.7678,-0.736,-0.736,-0.7265,-0.7143,-0.7299,-0.736,-0.7387,0.0,0.0,0.0,0.0,0.0,0.0,0.0,0.0,0.0,0.0,0.0,0.0,0.0,0.0,0.0,0.0,0.0,0.0,0.0,0.0,0.0,0.0,0.0,0.0,0.0,0.0,0.0,0.0,0.0,0.0,0.0,0.0,0.0,0.0,0.0,0.0,0.0,0.0,0.0,0.0,0.0,0.0,0.0,0.0,0.0,0.0,0.0,0.0,0.0,0.0,0.0,0.0,0.0,0.0,0.0,0.0,0.0,0.0,0.0,0.0,0.0,0.0,0.0,0.0,0.0,0.0,0.0,0.0,0.0,0.0,0.0,0.0,0.0,0.0,0.0,0.0,0.0,-0.5542,-0.6051,-0.5895,-0.624,-0.6363,-0.6057,-0.6518,-0.6859,-0.6919,-0.7251,-0.7516,-0.7665,-0.7672,-0.7692,-0.7746,-0.7841,-0.7889,-0.7889,-0.7941,-0.7988,-0.7988,-0.7988,-0.7988,-0.7988,-0.7988,-0.7988,-0.7988,-0.7988,-0.7988,-0.7988,-0.7988,-0.7874,-0.7746,-0.7746,-0.7746,-0.7746,-0.7746,-0.7746,-0.7746,0.0,0.0,0.0,0.0,0.0,0.0,0.0,0.0,0.0,0.0,0.0,0.0,0.0,0.0,0.0,0.0,0.0,0.0,0.0,0.0,0.0,0.0,0.0,0.0,0.0,0.0,0.0,0.0,0.0,0.0,0.0,0.0,0.0,0.0,0.0,0.0,0.0,0.0,0.0,0.0,0.0,0.0,0.0,0.0,0.0,0.0,0.0,0.0,0.0,0.0,0.0,0.0,0.0,0.0,0.0,0.0,0.0,0.0,0.0,0.0,0.0,0.0,0.0,0.0,0.0,0.0,0.0,0.0,0.0,0.0,0.0,0.0,0.0,0.0,0.0,0.0,-0.544,-0.5938,-0.6265,-0.604,-0.6539,-0.6817,-0.6566,-0.7071,-0.7419,-0.7433,-0.7522,-0.7672,-0.7814,-0.7821,-0.7889,-0.7982,-0.7988,-0.7988,-0.7988,-0.7988,-0.7988,-0.7988,-0.7988,-0.7988,-0.7988,-0.7988,-0.7988,-0.7988,-0.7988,-0.7988,-0.7988,-0.7988,-0.7988,-0.7988,-0.7988,-0.7988,-0.7988,-0.7988,-0.7988,-0.7988,0.0,0.0,0.0,0.0,0.0,0.0,0.0,0.0,0.0,0.0,0.0,0.0,0.0,0.0,0.0,0.0,0.0,0.0,0.0,0.0,0.0,0.0,0.0,0.0,0.0,0.0,0.0,0.0,0.0,0.0,0.0,0.0,0.0,0.0,0.0,0.0,0.0,0.0,0.0,0.0,0.0,0.0,0.0,0.0,0.0,0.0,0.0,0.0,0.0,0.0,0.0,0.0,0.0,0.0,0.0,0.0,0.0,0.0,0.0,0.0,0.0,0.0,0.0,0.0,0.0,0.0,0.0,0.0,0.0,0.0,0.0,0.0,0.0,0.0,-0.5528,-0.6061,-0.5867,-0.6363,-0.6729,-0.6647,-0.6876,-0.7095,-0.7166,-0.7316,-0.7461,-0.7672,-0.7726,-0.7821,-0.7921,-0.7928,-0.7948,-0.7988,-0.7988,-0.7988,-0.7988,-0.7988,-0.7988,-0.7988,-0.7988,-0.7988,-0.7988,-0.7988,-0.7988,-0.7988,-0.7988,-0.7988,-0.7988,-0.7988,-0.7988,-0.7988,-0.7988,-0.7988,-0.7988,-0.7988,-0.7988,-0.7988,0.0,0.0,0.0,0.0,0.0,0.0,0.0,0.0,0.0,0.0,0.0,0.0,0.0,0.0,0.0,0.0,0.0,0.0,0.0,0.0,0.0,0.0,0.0,0.0,0.0,0.0,0.0,0.0,0.0,0.0,0.0,0.0,0.0,0.0,0.0,0.0,0.0,0.0,0.0,0.0,0.0,0.0,0.0,0.0,0.0,0.0,0.0,0.0,0.0,0.0,0.0,0.0,0.0,0.0,0.0,0.0,0.0,0.0,0.0,0.0,0.0,0.0,0.0,0.0,0.0,0.0,0.0,0.0,0.0,0.0,0.0,0.0,0.0,0.0,-0.6132,-0.6532,-0.6458,-0.6755,-0.697,-0.697,-0.7149,-0.7272,-0.7405,-0.7482,-0.7624,-0.7801,-0.7868,-0.7894,-0.7982,-0.7988,-0.7988,-0.7988,-0.7988,-0.7988,-0.7988,-0.7988,-0.7988,-0.7988,-0.7988,-0.7988,-0.7988,-0.7988,-0.7988,-0.7988,-0.7988,-0.7988,-0.7988,-0.7988,-0.7988,0.0,0.0,0.0,0.0,0.0,-0.7988,-0.7988,0.0,0.0,0.0,0.0,0.0,0.0,0.0,0.0,0.0,0.0,0.0,0.0,0.0,0.0,0.0,0.0,0.0,0.0,0.0,0.0,0.0,0.0,0.0,0.0,0.0,0.0,0.0,0.0,0.0,0.0,0.0,0.0,0.0,0.0,0.0,0.0,0.0,0.0,0.0,0.0,0.0,0.0,0.0,0.0,0.0,0.0,0.0,0.0,0.0,0.0,0.0,0.0,0.0,0.0,0.0,0.0,0.0,0.0,0.0,0.0,0.0,0.0,0.0,0.0,0.0,0.0,0.0,0.0,0.0,0.0,0.0,0.0,0.0,0.0,-0.6661,-0.6957,-0.7098,-0.7125,-0.7125,-0.7125,-0.7305,-0.7446,-0.7467,-0.7658,-0.7821,-0.7834,-0.7914,-0.7988,-0.7988,0.0,0.0,0.0,0.0,-0.7988,-0.7988,-0.7988,-0.7988,-0.7988,-0.7988,-0.7988,-0.7988,-0.7988,-0.7988,-0.7988,-0.7988,-0.7988,-0.7988,-0.7988,-0.7988,-0.7988,-0.7988,-0.7988,-0.7988,-0.7988,-0.7988,-0.7988,0.0,0.0,0.0,0.0,0.0,0.0,0.0,0.0,0.0,0.0,0.0,0.0,0.0,0.0,0.0,0.0,0.0,0.0,0.0,0.0,0.0,0.0,0.0,0.0,0.0,0.0,0.0,0.0,0.0,0.0,0.0,0.0,0.0,0.0,0.0,0.0,0.0,0.0,0.0,0.0,0.0,0.0,0.0,0.0,0.0,0.0,0.0,0.0,0.0,0.0,0.0,0.0,0.0,0.0,0.0,0.0,0.0,0.0,0.0,0.0,0.0,0.0,0.0,0.0,0.0,0.0,0.0,0.0,0.0,0.0,0.0,0.0,0.0,-0.6429,-0.681,-0.7105,-0.7305,-0.7326,-0.7326,-0.7326,-0.7461,-0.7597,-0.7712,-0.778,-0.7862,-0.7934,-0.7975,-0.7988,-0.7988,-0.7988,-0.7988,-0.7988,-0.7988,-0.7988,-0.7988,-0.7988,-0.7988,-0.7988,0.0,0.0,-0.7988,-0.7988,-0.7988,-0.7988,-0.7988,-0.7988,-0.7988,-0.7988,-0.7988,-0.7988,-0.7988,-0.7988,-0.7988,-0.7988,-0.7988,-0.7988,0.0,0.0,0.0,0.0,0.0,0.0,0.0,0.0,0.0,0.0,0.0,0.0,0.0,0.0,0.0,0.0,0.0,0.0,0.0,0.0,0.0,0.0,0.0,0.0,0.0,0.0,0.0,0.0,0.0,0.0,0.0,0.0,0.0,0.0,0.0,0.0,0.0,0.0,0.0,0.0,0.0,0.0,0.0,0.0,0.0,0.0,0.0,0.0,0.0,0.0,0.0,0.0,0.0,0.0,0.0,0.0,0.0,0.0,0.0,0.0,0.0,0.0,0.0,0.0,0.0,0.0,0.0,0.0,0.0,-0.5386,-0.587,0.0,-0.6504,-0.6756,-0.7061,-0.7285,-0.7405,-0.7495,-0.7563,-0.7495,-0.7617,-0.7733,-0.7801,-0.7882,-0.7907,-0.7982,-0.7988,-0.7988,-0.7988,-0.7988,-0.7988,-0.7988,-0.7988,-0.7988,-0.7988,-0.7988,-0.7988,-0.7988,-0.7988,-0.7988,-0.7988,-0.7988,-0.7988,-0.7988,-0.7988,-0.7988,-0.7988,-0.7988,-0.7988,-0.7988,-0.7988,-0.7988,-0.7988,-0.7988,-0.7988,-0.7988,0.0,0.0,0.0,0.0,0.0,0.0,0.0,0.0,0.0,0.0,0.0,0.0,0.0,0.0,0.0,0.0,0.0,0.0,0.0,0.0,0.0,0.0,0.0,0.0,0.0,0.0,0.0,0.0,0.0,0.0,0.0,0.0,0.0,0.0,0.0,0.0,0.0,0.0,0.0,0.0,0.0,0.0,0.0,0.0,0.0,0.0,0.0,0.0,0.0,0.0,0.0,0.0,0.0,0.0,0.0,0.0,0.0,0.0,0.0,0.0,0.0,0.0,0.0,0.0,0.0,-0.3972,-0.4806,-0.5556,-0.5719,-0.5924,-0.6491,-0.66,-0.6729,-0.7078,-0.7292,-0.7439,-0.7448,-0.7658,-0.778,-0.7692,-0.7787,-0.7855,-0.7855,-0.7921,-0.7988,-0.7988,-0.7988,-0.7988,-0.7988,-0.7988,-0.7988,-0.7988,-0.7988,-0.7988,-0.7988,-0.7988,-0.7988,-0.7988,-0.7988,-0.8008,-0.8035,-0.8035,-0.8035,-0.8029,-0.8002,-0.8008,-0.8029,-0.8002,-0.7988,-0.7988,-0.7988,-0.7988,-0.7988,-0.7988,-0.7988,-0.7988,0.0,0.0,0.0,0.0,0.0,0.0,0.0,0.0,0.0,0.0,0.0,0.0,0.0,0.0,0.0,0.0,0.0,0.0,0.0,0.0,0.0,0.0,0.0,0.0,0.0,0.0,0.0,0.0,0.0,0.0,0.0,0.0,0.0,0.0,0.0,0.0,0.0,0.0,0.0,0.0,0.0,0.0,0.0,0.0,0.0,0.0,0.0,0.0,0.0,0.0,0.0,0.0,0.0,0.0,0.0,0.0,0.0,0.0,0.0,-0.0785,-0.1826,-0.2768,-0.3695,-0.4703,0.0,-0.6143,-0.6211,-0.6654,-0.6809,-0.6923,-0.7004,-0.7018,-0.7129,-0.7312,-0.7405,-0.7461,-0.7726,-0.7787,-0.7855,-0.7928,-0.7955,-0.7961,-0.7961,-0.7982,-0.7988,-0.7988,-0.7988,-0.7988,-0.7988,-0.7988,-0.7988,-0.7988,-0.7988,-0.7988,-0.7988,-0.7988,-0.7988,-0.7988,-0.7988,-0.8113,-0.8241,-0.8241,-0.8241,-0.8235,-0.8099,-0.8119,-0.8235,-0.8099,-0.7988,-0.7988,-0.7988,-0.7988,-0.7988,-0.7988,-0.7988,-0.7988,0.0,0.0,0.0,0.0,0.0,0.0,0.0,0.0,0.0,0.0,0.0,0.0,0.0,0.0,0.0,0.0,0.0,0.0,0.0,0.0,0.0,0.0,0.0,0.0,0.0,0.0,0.0,0.0,0.0,0.0,0.0,0.0,0.0,0.0,0.0,0.0,0.0,0.0,0.0,0.0,0.0,0.0,0.0,0.0,0.0,0.0,0.0,0.0,0.0,0.0,0.0,0.0,0.0,0.0,0.0,0.0,0.0,-0.0142,-0.087,-0.1837,-0.2799,-0.3382,-0.4555,-0.5628,-0.5879,-0.6191,-0.6552,-0.6916,-0.7058,-0.7098,-0.7098,-0.721,-0.7299,-0.7405,-0.7516,-0.7672,-0.7794,-0.7889,-0.7921,-0.7982,-0.7988,-0.7988,-0.7988,-0.7988,-0.7988,-0.7988,-0.7988,-0.7988,-0.7988,-0.7988,-0.7988,-0.7988,-0.7988,-0.8029,-0.8174,-0.8174,-0.8214,-0.8296,-0.8296,-0.833,-0.8391,-0.8391,-0.8391,-0.8391,-0.8323,-0.8336,-0.8391,-0.8323,-0.8248,-0.8174,-0.8174,-0.8119,-0.7988,-0.7988,-0.7988,-0.7988,0.0,0.0,0.0,0.0,0.0,0.0,0.0,0.0,0.0,0.0,0.0,0.0,0.0,0.0,0.0,0.0,0.0,0.0,0.0,0.0,0.0,0.0,0.0,0.0,0.0,0.0,0.0,0.0,0.0,0.0,0.0,0.0,0.0,0.0,0.0,0.0,0.0,0.0,0.0,0.0,0.0,0.0,0.0,0.0,0.0,0.0,0.0,0.0,0.0,0.0,0.0,0.0,0.0,0.0,0.0,0.0,0.0,-0.0259,-0.1454,-0.2559,-0.3487,-0.3977,-0.5325,-0.6404,-0.597,-0.6277,-0.6749,-0.7031,-0.7098,-0.7105,-0.7197,-0.7292,-0.7446,-0.7482,-0.7672,-0.7828,-0.7868,-0.7921,-0.7988,-0.7988,-0.7988,-0.7988,-0.7988,-0.7988,-0.7988,-0.7988,-0.7988,-0.7988,-0.7988,-0.7988,-0.7988,-0.7988,-0.8029,-0.816,-0.832,-0.8361,-0.8377,-0.8479,-0.8479,-0.8506,-0.8547,-0.8547,-0.8567,-0.8601,-0.852,-0.8506,-0.854,-0.8499,-0.8425,-0.8381,-0.8381,-0.8262,-0.8153,-0.8119,-0.8029,-0.7988,0.0,0.0,0.0,0.0,0.0,0.0,0.0,0.0,0.0,0.0,0.0,0.0,0.0,0.0,0.0,0.0,0.0,0.0,0.0,0.0,0.0,0.0,0.0,0.0,0.0,0.0,0.0,0.0,0.0,0.0,0.0,0.0,0.0,0.0,0.0,0.0,0.0,0.0,0.0,0.0,0.0,0.0,0.0,0.0,0.0,0.0,0.0,0.0,0.0,0.0,0.0,0.0,0.0,0.0,0.0,0.0,0.0,-0.026,-0.1482,-0.2672,-0.3882,-0.5071,-0.6237,-0.7071,-0.7071,-0.7078,-0.7078,-0.7092,-0.7098,-0.7139,-0.7333,-0.7412,-0.7461,-0.7753,-0.7807,-0.7862,-0.7961,-0.7988,-0.7988,-0.7988,-0.7988,-0.7988,-0.7988,-0.7988,-0.7988,-0.7988,-0.7988,-0.7988,-0.7988,-0.7988,-0.7988,-0.7988,-0.8187,-0.832,-0.832,-0.8404,-0.8479,-0.8479,-0.8479,-0.856,-0.8703,-0.8703,-0.8784,-0.8851,-0.8608,-0.8567,-0.8696,-0.8547,-0.8479,-0.8472,-0.8472,-0.8472,-0.8452,-0.8316,-0.8167,-0.7988,0.0,0.0,0.0,0.0,0.0,0.0,0.0,0.0,0.0,0.0,0.0,0.0,0.0,0.0,0.0,0.0,0.0,0.0,0.0,0.0,0.0,0.0,0.0,0.0,0.0,0.0,0.0,0.0,0.0,0.0,0.0,0.0,0.0,0.0,0.0,0.0,0.0,0.0,0.0,0.0,0.0,0.0,0.0,0.0,0.0,0.0,0.0,0.0,0.0,0.0,0.0,0.0,0.0,0.0,0.0,0.0,-0.0571,-0.1444,-0.2652,-0.3878,-0.5092,-0.622,-0.681,-0.7098,-0.7098,-0.7098,-0.7098,-0.7098,-0.7224,-0.7278,-0.7224,-0.7461,-0.7665,-0.7672,-0.7834,-0.7928,-0.7982,-0.7988,-0.7988,-0.7988,-0.7988,-0.7988,-0.7988,-0.7988,-0.7988,-0.7988,-0.7988,-0.7988,-0.7988,-0.7988,-0.8035,-0.8187,-0.8241,-0.8364,-0.856,-0.8608,-0.8682,-0.8784,-0.8784,-0.8811,-0.8804,-0.8804,-0.8838,-0.8878,-0.8832,-0.8811,-0.8804,-0.8804,-0.8723,-0.8635,-0.8635,-0.8574,-0.8479,-0.8431,-0.8377,-0.8303,0.0,0.0,0.0,0.0,0.0,0.0,0.0,0.0,0.0,0.0,0.0,0.0,0.0,0.0,0.0,0.0,0.0,0.0,0.0,0.0,0.0,0.0,0.0,0.0,0.0,0.0,0.0,0.0,0.0,0.0,0.0,0.0,0.0,0.0,0.0,0.0,0.0,0.0,0.0,0.0,0.0,0.0,0.0,0.0,0.0,0.0,0.0,0.0,0.0,0.0,0.0,0.0,0.0,0.0,0.0,0.0,-0.0855,-0.207,-0.3259,-0.4492,-0.5671,-0.681,-0.7098,-0.7098,-0.7098,-0.7098,-0.7098,-0.7098,-0.7177,-0.7197,-0.7105,-0.7421,-0.7645,-0.7604,-0.7848,-0.7988,-0.7988,-0.7988,-0.7988,-0.7988,-0.7988,-0.7988,-0.7988,-0.7988,-0.7988,-0.7988,-0.7988,-0.7988,-0.7988,-0.7988,-0.8113,-0.832,-0.8374,-0.8465,-0.871,-0.8764,-0.8845,-0.8885,-0.8885,-0.8885,-0.8885,-0.8885,-0.8885,-0.8885,-0.8885,-0.8885,-0.8885,-0.8885,-0.8824,-0.8791,-0.8791,-0.873,-0.8635,-0.8581,-0.856,-0.852,0.0,0.0,0.0,0.0,0.0,0.0,0.0,0.0,0.0,0.0,0.0,0.0,0.0,0.0,0.0,0.0,0.0,0.0,0.0,0.0,0.0,0.0,0.0,0.0,0.0,0.0,0.0,0.0,0.0,0.0,0.0,0.0,0.0,0.0,0.0,0.0,0.0,0.0,0.0,0.0,0.0,0.0,0.0,0.0,0.0,0.0,0.0,0.0,0.0,0.0,0.0,0.0,0.0,-0.0029,-0.0065,-0.0033,-0.0931,-0.2228,-0.3306,-0.4506,-0.5735,-0.6816,-0.7098,-0.7098,-0.7098,-0.7098,-0.7092,-0.7065,-0.6964,-0.6903,-0.7011,-0.7231,-0.7407,-0.7543,-0.7834,-0.7988,-0.7988,-0.7988,-0.7988,-0.7988,-0.7988,-0.7988,-0.7988,-0.7988,-0.7988,-0.7988,-0.7988,-0.7988,-0.7988,-0.7995,-0.8119,-0.8327,-0.8418,-0.8567,-0.8723,-0.8811,-0.8885,-0.8885,-0.8885,-0.8885,-0.8885,-0.8885,-0.8885,-0.8885,-0.8885,-0.8885,-0.8885,-0.8885,-0.8885,-0.8885,-0.8885,-0.8885,-0.8865,-0.8777,-0.8723,-0.8682,0.0,0.0,0.0,0.0,0.0,0.0,0.0,0.0,0.0,0.0,0.0,0.0,0.0,0.0,0.0,0.0,0.0,0.0,0.0,0.0,0.0,0.0,0.0,0.0,0.0,0.0,0.0,0.0,0.0,0.0,0.0,0.0,0.0,0.0,0.0,0.0,0.0,0.0,0.0,0.0,0.0,0.0,0.0,0.0,0.0,0.0,0.0,0.0,0.0,0.0,0.0,0.0,0.0,-0.0634,-0.1175,-0.0252,-0.2115,-0.4367,-0.3743,-0.5104,-0.6734,-0.7021,-0.7098,-0.7098,-0.7098,-0.7098,-0.7004,-0.6709,-0.6702,-0.6634,-0.622,-0.6722,-0.7132,-0.7109,-0.7584,-0.7988,-0.7988,-0.7988,-0.7988,-0.7988,-0.7988,-0.7988,-0.7988,-0.7988,-0.7988,-0.7988,-0.7988,-0.7988,-0.7988,-0.8147,-0.8282,-0.8425,-0.8574,-0.8723,-0.8824,-0.8865,-0.8885,-0.8885,-0.8885,-0.8885,-0.8885,-0.8885,-0.8885,-0.8885,-0.8885,-0.8885,-0.8885,-0.8885,-0.8885,-0.8885,-0.8885,-0.8885,-0.8878,-0.8838,-0.8824,-0.8797,0.0,0.0,0.0,0.0,0.0,0.0,0.0,0.0,0.0,0.0,0.0,0.0,0.0,0.0,0.0,0.0,0.0,0.0,0.0,0.0,0.0,0.0,0.0,0.0,0.0,0.0,0.0,0.0,0.0,0.0,0.0,0.0,0.0,0.0,0.0,0.0,0.0,0.0,0.0,0.0,0.0,0.0,0.0,0.0,0.0,0.0,0.0,0.0,0.0,0.0,0.0,0.0,0.0,-0.0819,-0.1681,-0.0999,-0.2994,-0.5249,-0.4572,-0.5697,-0.7098,-0.7098,-0.7098,-0.7045,-0.6892,-0.6844,-0.6722,-0.6268,-0.62,-0.6112,-0.5772,-0.639,-0.6876,-0.6844,-0.7462,-0.7988,-0.7988,-0.7988,-0.7988,-0.7988,-0.7988,-0.7988,-0.7988,-0.7988,-0.7988,-0.7988,-0.7988,-0.7988,-0.7988,-0.8187,-0.8336,-0.8479,-0.8628,-0.8784,-0.8885,-0.8885,-0.8885,-0.8885,-0.8885,-0.8885,-0.8885,-0.8885,-0.8885,-0.8885,0.0,-0.8885,-0.8885,-0.8885,-0.8885,-0.8885,-0.8885,-0.8885,-0.8885,-0.8885,-0.8885,-0.8871,0.0,0.0,0.0,0.0,0.0,0.0,0.0,0.0,0.0,0.0,0.0,0.0,0.0,0.0,0.0,0.0,0.0,0.0,0.0,0.0,0.0,0.0,0.0,0.0,0.0,0.0,0.0,0.0,0.0,0.0,0.0,0.0,0.0,0.0,0.0,0.0,0.0,0.0,0.0,0.0,0.0,0.0,0.0,0.0,0.0,0.0,0.0,0.0,0.0,0.0,0.0,0.0,0.0,-0.0934,-0.199,-0.1827,-0.3616,-0.5574,-0.544,-0.6251,-0.7098,-0.7098,-0.7098,-0.6984,-0.6477,-0.6445,-0.6329,-0.5669,-0.5547,-0.5508,-0.5426,-0.6037,-0.6573,-0.6634,-0.738,-0.7921,-0.7982,-0.7988,-0.7988,-0.7988,-0.7988,-0.7988,-0.7988,-0.7988,-0.7988,-0.7988,-0.7988,-0.8002,-0.8022,-0.8214,-0.8377,-0.854,-0.8669,-0.8804,-0.8885,-0.8885,-0.8885,-0.8885,-0.8885,-0.8885,-0.8885,-0.8885,-0.8885,-0.8885,-0.8885,-0.8885,-0.8885,-0.8885,-0.8885,-0.8885,-0.8885,-0.8885,-0.8885,-0.8885,-0.8885,-0.8885,0.0,0.0,0.0,0.0,0.0,0.0,0.0,0.0,0.0,0.0,0.0,0.0,0.0,0.0,0.0,0.0,0.0,0.0,0.0,0.0,0.0,0.0,0.0,0.0,0.0,0.0,0.0,0.0,0.0,0.0,0.0,0.0,0.0,0.0,0.0,0.0,0.0,0.0,0.0,0.0,0.0,0.0,0.0,0.0,0.0,0.0,0.0,0.0,0.0,0.0,0.0,0.0,0.0,-0.1494,-0.3089,-0.2108,-0.4182,-0.6587,-0.5659,-0.6251,-0.7098,-0.7098,-0.7098,-0.6836,-0.5805,-0.6066,-0.6041,-0.4462,-0.4705,-0.5029,-0.4544,-0.5196,-0.5901,-0.6313,-0.703,-0.7617,-0.7934,-0.7988,-0.7988,-0.7988,-0.7988,-0.7988,-0.7988,-0.7988,-0.7988,-0.7988,-0.7988,-0.8092,-0.8221,-0.837,-0.8574,-0.8797,-0.8831,-0.8858,-0.8885,-0.8885,-0.8885,-0.8885,-0.8885,-0.8885,-0.8885,-0.8885,-0.8885,-0.8885,-0.8885,0.0,-0.8885,-0.8885,-0.8885,-0.8885,-0.8885,-0.8885,-0.8885,-0.8885,-0.8885,-0.8885,0.0,0.0,0.0,0.0,0.0,0.0,0.0,0.0,0.0,0.0,0.0,0.0,0.0,0.0,0.0,0.0,0.0,0.0,0.0,0.0,0.0,0.0,0.0,0.0,0.0,0.0,0.0,0.0,0.0,0.0,0.0,0.0,0.0,0.0,0.0,0.0,0.0,0.0,0.0,0.0,0.0,0.0,0.0,0.0,0.0,0.0,0.0,0.0,0.0,0.0,0.0,-0.0123,-0.0728,-0.2154,-0.3616,-0.3664,-0.5309,-0.6959,-0.6428,-0.6694,-0.7098,-0.7098,-0.7098,-0.685,-0.585,-0.5867,-0.5758,-0.4436,-0.4509,-0.4694,-0.4409,-0.4972,-0.5603,-0.5897,-0.6668,-0.7353,-0.7651,-0.7889,-0.7988,-0.7988,-0.7988,-0.7988,-0.7988,-0.7988,-0.7988,-0.7988,-0.8113,-0.8194,-0.832,-0.8479,-0.8703,-0.8878,-0.8885,-0.8885,-0.8885,-0.8885,-0.8885,-0.8885,-0.8885,-0.8885,-0.8885,-0.8885,-0.8885,-0.8885,-0.8885,0.0,-0.8885,-0.8885,-0.8885,-0.8885,-0.8885,-0.8885,-0.8885,-0.8885,-0.8885,-0.8885,0.0,0.0,0.0,0.0,0.0,0.0,0.0,0.0,0.0,0.0,0.0,0.0,0.0,0.0,0.0,0.0,0.0,0.0,0.0,0.0,0.0,0.0,0.0,0.0,0.0,0.0,0.0,0.0,0.0,0.0,0.0,0.0,0.0,0.0,0.0,0.0,0.0,0.0,0.0,0.0,0.0,0.0,0.0,0.0,0.0,0.0,0.0,0.0,0.0,0.0,0.0,-0.0238,-0.1628,-0.2779,-0.3794,-0.4732,-0.6024,-0.7098,-0.7098,-0.7098,-0.7098,-0.7098,-0.7098,-0.6784,-0.5588,-0.5568,-0.5432,-0.4172,-0.4216,-0.447,-0.4409,-0.4866,-0.533,-0.5549,-0.6329,-0.697,-0.7326,-0.7699,-0.7921,-0.7982,-0.7988,-0.7988,-0.7988,-0.7988,-0.7988,-0.7988,-0.8214,-0.833,-0.8364,-0.8615,-0.8811,-0.8878,-0.8885,-0.8885,-0.8885,-0.8885,-0.8885,-0.8885,-0.8885,-0.8885,-0.8885,-0.8885,-0.8885,-0.8885,-0.8885,0.0,0.0,-0.8885,-0.8885,-0.8885,-0.8885,-0.8885,-0.8885,-0.8885,-0.8885,-0.8885,0.0,0.0,0.0,0.0,0.0,0.0,0.0,0.0,0.0,0.0,0.0,0.0,0.0,0.0,0.0,0.0,0.0,0.0,0.0,0.0,0.0,0.0,0.0,0.0,0.0,0.0,0.0,0.0,0.0,0.0,0.0,0.0,0.0,0.0,0.0,0.0,0.0,0.0,0.0,0.0,0.0,0.0,0.0,0.0,0.0,0.0,0.0,0.0,0.0,0.0,0.0,-0.0349,-0.234,-0.3263,-0.3616,-0.3749,-0.5354,-0.7098,-0.7098,-0.7098,-0.7098,-0.7098,-0.7098,-0.6503,-0.4323,-0.4829,-0.5092,-0.2575,-0.336,-0.4409,-0.4111,-0.4443,-0.4938,-0.5501,-0.5895,-0.6424,-0.7258,-0.7529,-0.774,-0.7961,-0.7988,-0.7988,-0.7988,-0.7988,-0.7988,-0.7988,-0.8303,-0.8526,-0.8662,-0.8825,-0.8871,-0.8885,-0.8885,-0.8885,-0.8885,-0.8885,-0.8885,-0.8885,-0.8885,-0.8885,-0.8885,-0.8885,-0.8885,-0.8885,-0.8885,0.0,0.0,-0.8885,-0.8885,-0.8885,-0.8885,-0.8885,-0.8885,-0.8885,-0.8885,-0.8885,0.0,0.0,0.0,0.0,0.0,0.0,0.0,0.0,0.0,0.0,0.0,0.0,0.0,0.0,0.0,0.0,0.0,0.0,0.0,0.0,0.0,0.0,0.0,0.0,0.0,0.0,0.0,0.0,0.0,0.0,0.0,0.0,0.0,0.0,0.0,0.0,0.0,0.0,0.0,0.0,0.0,0.0,0.0,0.0,0.0,0.0,0.0,0.0,0.0,0.0,-0.0286,-0.0811,-0.1627,-0.2847,-0.4159,-0.5178,-0.6202,-0.6991,-0.7071,-0.7098,-0.7098,-0.7098,-0.6587,-0.5749,-0.4543,-0.4149,-0.378,-0.2777,-0.3164,-0.3756,-0.4075,-0.4274,-0.4564,-0.5101,-0.5515,-0.5922,-0.6363,-0.6871,-0.7227,-0.7429,-0.7617,-0.7841,-0.7975,-0.7988,-0.8062,-0.8296,-0.8418,-0.8587,-0.8832,-0.8851,-0.8885,-0.8885,-0.8885,-0.8885,-0.8885,-0.8885,-0.8885,-0.8885,-0.8885,-0.8885,-0.8885,-0.8885,-0.8885,-0.8885,-0.8885,0.0,0.0,-0.8885,-0.8885,-0.8885,-0.8885,-0.8885,-0.8885,-0.8885,-0.8885,-0.8885,0.0,0.0,0.0,0.0,0.0,0.0,0.0,0.0,0.0,0.0,0.0,0.0,0.0,0.0,0.0,0.0,0.0,0.0,0.0,0.0,0.0,0.0,0.0,0.0,0.0,0.0,0.0,0.0,0.0,0.0,0.0,0.0,0.0,0.0,0.0,0.0,0.0,0.0,0.0,0.0,0.0,0.0,0.0,0.0,0.0,0.0,0.0,0.0,0.0,0.0,0.0,-0.0872,-0.1372,-0.2562,-0.4086,-0.5699,-0.6483,-0.6912,-0.7143,-0.7132,-0.701,-0.6694,-0.599,-0.5126,-0.4096,-0.3369,-0.2864,-0.2749,-0.2928,-0.3317,-0.4023,-0.4167,-0.4355,-0.4782,-0.5155,-0.5521,-0.5888,-0.6396,-0.6851,-0.717,-0.74,-0.7631,-0.7833,-0.7941,-0.816,-0.8459,-0.8479,-0.8615,-0.8865,-0.8885,-0.8885,-0.8885,-0.8885,-0.8885,-0.8885,-0.8885,-0.8885,-0.8885,-0.8885,-0.8885,-0.8885,-0.8885,-0.8885,-0.8885,-0.8885,0.0,0.0,-0.8885,-0.8885,-0.8885,-0.8885,-0.8885,-0.8885,-0.8885,-0.8885,-0.8885,0.0,0.0,0.0,0.0,0.0,0.0,0.0,0.0,0.0,0.0,0.0,0.0,0.0,0.0,0.0,0.0,0.0,0.0,0.0,0.0,0.0,0.0,0.0,0.0,0.0,0.0,0.0,0.0,0.0,0.0,0.0,0.0,0.0,0.0,0.0,0.0,0.0,0.0,0.0,0.0,0.0,0.0,0.0,0.0,0.0,0.0,0.0,0.0,0.0,0.0,0.0,0.0,0.0,-0.2603,-0.3006,-0.4475,-0.5782,-0.6803,-0.7244,-0.7258,-0.6827,-0.5714,-0.5405,-0.4783,-0.2379,-0.239,-0.2676,-0.196,-0.2488,-0.3293,-0.3898,-0.4119,-0.4321,-0.4646,-0.4823,-0.5237,-0.617,-0.63,-0.6579,-0.7323,-0.7419,-0.7434,-0.759,-0.782,-0.816,-0.8459,-0.8479,0.0,-0.8865,-0.8885,-0.8885,-0.8885,-0.8885,-0.8885,-0.8885,-0.8885,-0.8885,-0.8885,-0.8885,-0.8885,-0.8885,-0.8885,-0.8885,-0.8885,0.0,0.0,0.0,-0.8885,-0.8885,-0.8885,-0.8885,-0.8885,-0.8885,-0.8885,-0.8885,-0.8885,0.0,0.0,0.0,0.0,0.0,0.0,0.0,0.0,0.0,0.0,0.0,0.0,0.0,0.0,0.0,0.0,0.0,0.0,0.0,0.0,0.0,0.0,0.0,0.0,0.0,0.0,0.0,0.0,0.0,0.0,0.0,0.0,0.0,0.0,0.0,0.0,0.0,0.0,0.0,0.0,0.0,0.0,0.0,0.0,0.0,0.0,0.0,0.0,0.0,0.0,0.0,0.0,0.0,0.0,0.0,-0.5001,-0.5808,-0.647,-0.6613,-0.6299,-0.5787,-0.5084,-0.3934,-0.2731,-0.196,-0.1354,-0.1083,-0.168,-0.202,-0.2582,-0.3773,-0.395,-0.4239,-0.5155,-0.5257,-0.5426,-0.6017,-0.6458,-0.6763,-0.6898,-0.7455,-0.7848,-0.7847,-0.7934,-0.816,-0.8459,-0.8479,-0.8615,-0.8865,-0.8885,-0.8885,-0.8885,-0.8885,-0.8885,-0.8885,-0.8885,-0.8885,-0.8885,-0.8885,-0.8885,-0.8885,-0.8885,-0.8885,0.0,0.0,0.0,0.0,-0.8885,-0.8885,-0.8885,-0.8885,-0.8885,-0.8885,-0.8885,-0.8885,-0.8885,0.0,0.0,0.0,0.0,0.0,0.0,0.0,0.0,0.0,0.0,0.0,0.0,0.0,0.0,0.0,0.0,0.0,0.0,0.0,0.0,0.0,0.0,0.0,0.0,0.0,0.0,0.0,0.0,0.0,0.0,0.0,0.0,0.0,0.0,0.0,0.0,0.0,0.0,0.0,0.0,0.0,0.0,0.0,0.0,0.0,0.0,0.0,0.0,0.0,0.0,0.0,0.0,0.0,0.0,0.0,0.0,-0.5086,-0.5493,-0.5714,-0.5512,-0.4959,-0.3857,-0.2682,-0.1697,-0.1239,-0.0551,-0.0333,-0.1561,-0.1807,-0.223,-0.3659,-0.386,-0.4077,-0.4945,-0.5078,-0.5289,-0.5899,-0.631,-0.6681,-0.6926,-0.7495,-0.7847,-0.7901,-0.8058,-0.8228,-0.8465,-0.8533,-0.8676,-0.8871,-0.8885,-0.8885,-0.8885,-0.8885,-0.8885,-0.8885,-0.8885,-0.8885,-0.8885,-0.8885,-0.8885,-0.8885,-0.8885,-0.8885,0.0,0.0,0.0,0.0,-0.8885,-0.8885,-0.8885,-0.8885,-0.8885,-0.8885,-0.8885,-0.8885,-0.8885,0.0,0.0,0.0,0.0,0.0,0.0,0.0,0.0,0.0,0.0,0.0,0.0,0.0,0.0,0.0,0.0,0.0,0.0,0.0,0.0,0.0,0.0,0.0,0.0,0.0,0.0,0.0,0.0,0.0,0.0,0.0,0.0,0.0,0.0,0.0,0.0,0.0,0.0,0.0,0.0,0.0,0.0,0.0,0.0,0.0,0.0,0.0,0.0,0.0,0.0,0.0,0.0,0.0,0.0,0.0,0.0,0.0,0.0,0.0,-0.4701,-0.4227,-0.2246,-0.1721,-0.1365,-0.026,0.0,0.0,-0.1545,-0.1795,-0.2217,-0.3593,-0.3812,-0.3914,-0.4267,-0.4463,-0.4935,-0.5899,-0.6074,-0.6458,-0.7319,-0.7543,-0.7685,-0.7814,-0.8092,-0.8381,-0.8472,-0.8621,-0.8777,-0.8871,-0.8885,-0.8885,-0.8885,-0.8885,-0.8885,-0.8885,-0.8885,-0.8885,-0.8885,-0.8885,-0.8885,-0.8885,-0.8885,-0.8885,0.0,0.0,0.0,0.0,-0.8885,-0.8885,-0.8885,-0.8885,-0.8885,-0.8885,-0.8885,-0.8885,-0.8885,0.0,0.0,0.0,0.0,0.0,0.0,0.0,0.0,0.0,0.0,0.0,0.0,0.0,0.0,0.0,0.0,0.0,0.0,0.0,0.0,0.0,0.0,0.0,0.0,0.0,0.0,0.0,0.0,0.0,0.0,0.0,0.0,0.0,0.0,0.0,0.0,0.0,0.0,0.0,0.0,0.0,0.0,0.0,0.0,0.0,0.0,0.0,0.0,0.0,0.0,0.0,0.0,0.0,0.0,0.0,0.0,-0.403,-0.356,-0.3005,0.0,-0.233,-0.1467,-0.0837,-0.0337,0.0,0.0,-0.0331,-0.1563,-0.1795,-0.2322,-0.403,-0.4047,-0.4151,-0.5257,-0.5372,-0.561,-0.643,-0.6939,-0.7394,-0.7828,-0.7867,-0.7901,-0.7934,-0.816,-0.8381,-0.8472,-0.8621,-0.8777,-0.8871,-0.8885,-0.8885,-0.8885,-0.8885,-0.8885,-0.8885,-0.8885,-0.8885,-0.8885,-0.8885,-0.8885,-0.8885,-0.8885,-0.8885,0.0,0.0,0.0,-0.8885,-0.8885,-0.8885,-0.8885,-0.8885,-0.8885,-0.8885,-0.8885,-0.8885,-0.8885,0.0,0.0,0.0,0.0,0.0,0.0,0.0,0.0,0.0,0.0,0.0,0.0,0.0,0.0,0.0,0.0,0.0,0.0,0.0,0.0,0.0,0.0,0.0,0.0,0.0,0.0,0.0,0.0,0.0,0.0,0.0,0.0,0.0,0.0,0.0,0.0,0.0,0.0,0.0,0.0,0.0,0.0,0.0,0.0,0.0,0.0,0.0,0.0,0.0,-0.0475,-0.06,-0.0811,0.0,0.0,0.0,0.0,-0.3217,-0.2776,-0.192,-0.1645,-0.1421,-0.0748,-0.0307,0.0,0.0,-0.0218,-0.0676,-0.1597,-0.2058,-0.2684,-0.3938,-0.4239,-0.4524,-0.5182,-0.563,-0.6197,-0.6905,-0.7468,-0.7862,-0.7968,-0.7988,-0.7988,0.0,-0.8235,-0.8397,-0.8479,-0.8689,-0.8797,-0.8878,-0.8885,-0.8885,-0.8885,-0.8885,-0.8885,-0.8885,-0.8885,-0.8885,-0.8885,-0.8885,-0.8885,-0.8885,-0.8885,-0.8885,0.0,0.0,0.0,-0.8885,-0.8885,-0.8885,-0.8885,-0.8885,-0.8885,-0.8885,-0.8885,-0.8885,-0.8885,0.0,0.0,0.0,0.0,0.0,0.0,0.0,0.0,0.0,0.0,0.0,0.0,0.0,0.0,0.0,0.0,0.0,0.0,0.0,0.0,0.0,0.0,0.0,0.0,0.0,0.0,0.0,0.0,0.0,0.0,0.0,0.0,0.0,0.0,0.0,0.0,0.0,0.0,0.0,0.0,0.0,0.0,0.0,0.0,0.0,0.0,0.0,0.0,0.0,-0.0862,-0.0687,-0.0464,-0.1974,0.0,0.0,0.0,0.0,0.0,-0.1307,-0.1088,-0.0935,-0.0192,0.0,0.0,0.0,-0.0409,-0.0957,-0.1677,-0.2331,-0.3027,-0.3911,-0.4531,-0.4938,-0.4986,-0.5822,-0.6675,-0.7357,-0.7773,-0.7988,-0.7988,-0.7988,-0.7988,-0.7988,-0.8289,-0.8459,-0.8479,-0.8743,-0.8858,-0.8885,-0.8885,-0.8885,-0.8885,-0.8885,-0.8885,-0.8885,-0.8885,-0.8885,-0.8885,-0.8885,-0.8885,-0.8885,-0.8885,-0.8885,-0.8885,0.0,0.0,-0.8885,-0.8885,-0.8885,-0.8885,-0.8885,-0.8885,-0.8885,-0.8885,-0.8885,-0.8885,0.0,0.0,0.0,0.0,0.0,0.0,0.0,0.0,0.0,0.0,0.0,0.0,0.0,0.0,0.0,0.0,0.0,0.0,0.0,0.0,0.0,0.0,0.0,0.0,0.0,0.0,0.0,0.0,0.0,0.0,0.0,0.0,0.0,0.0,0.0,0.0,0.0,0.0,0.0,0.0,0.0,0.0,0.0,0.0,0.0,0.0,0.0,0.0,0.0,-0.0144,-0.0592,-0.1222,-0.2003,0.0,0.0,0.0,0.0,0.0,-0.1288,-0.0662,-0.0169,-0.003,0.0,0.0,0.0,-0.0082,-0.0474,-0.1725,-0.2065,-0.2795,-0.4925,-0.5094,-0.5243,-0.6234,-0.6736,-0.7136,-0.7509,-0.7841,-0.7988,-0.7988,-0.7988,-0.7988,-0.7988,-0.8201,-0.835,-0.8472,-0.8648,-0.8804,-0.8878,-0.8885,-0.8885,-0.8885,-0.8885,-0.8885,-0.8885,-0.8885,-0.8885,-0.8885,-0.8885,-0.8885,-0.8885,-0.8885,-0.8885,-0.8885,0.0,-0.8885,-0.8885,-0.8885,-0.8885,-0.8885,-0.8885,-0.8885,-0.8885,-0.8885,-0.8885,-0.8885,0.0,0.0,0.0,0.0,0.0,0.0,0.0,0.0,0.0,0.0,0.0,0.0,0.0,0.0,0.0,0.0,0.0,0.0,0.0,0.0,0.0,0.0,0.0,0.0,0.0,0.0,0.0,0.0,0.0,0.0,0.0,0.0,0.0,0.0,0.0,0.0,0.0,0.0,0.0,0.0,0.0,0.0,0.0,0.0,0.0,0.0,0.0,0.0,0.0,0.0,-0.0913,-0.1471,-0.2476,0.0,0.0,0.0,0.0,0.0,-0.0704,-0.0245,-0.0187,-0.0899,-0.1076,-0.1077,-0.1084,-0.1882,-0.2795,-0.3245,-0.3676,-0.4292,-0.5399,-0.5752,-0.622,-0.7258,-0.74,-0.7495,-0.7794,-0.7901,-0.7988,-0.7988,0.0,-0.7988,-0.7988,-0.8248,-0.8411,-0.8479,0.0,0.0,-0.8878,-0.8885,-0.8885,-0.8885,-0.8885,-0.8885,-0.8885,-0.8885,-0.8885,-0.8885,-0.8885,-0.8885,-0.8885,-0.8885,-0.8885,-0.8885,0.0,-0.8885,-0.8885,-0.8885,-0.8885,-0.8885,-0.8885,-0.8885,-0.8885,-0.8885,-0.8885,-0.8885,0.0,0.0,0.0,0.0,0.0,0.0,0.0,0.0,0.0,0.0,0.0,0.0,0.0,0.0,0.0,0.0,0.0,0.0,0.0,0.0,0.0,0.0,0.0,0.0,0.0,0.0,0.0,0.0,0.0,0.0,0.0,0.0,0.0,0.0,0.0,0.0,0.0,0.0,0.0,0.0,0.0,0.0,0.0,0.0,0.0,0.0,0.0,0.0,0.0,0.0,0.0,0.0,0.0,0.0,0.0,-0.2365,-0.1711,-0.0942,-0.0202,0.0,-0.0237,-0.1276,-0.1546,-0.1685,-0.2319,-0.3373,-0.4287,-0.4595,-0.5096,-0.5558,-0.5845,-0.6485,-0.7177,-0.7779,-0.7807,-0.778,-0.7961,-0.7988,-0.7988,-0.7988,-0.7988,-0.7988,-0.7988,-0.8275,-0.8445,-0.8479,0.0,0.0,-0.8885,-0.8885,-0.8885,-0.8885,-0.8885,-0.8885,-0.8885,-0.8885,-0.8885,-0.8885,-0.8885,-0.8885,-0.8885,-0.8885,-0.8885,-0.8885,-0.8885,-0.8885,-0.8885,-0.8885,-0.8885,-0.8885,-0.8885,-0.8885,-0.8885,-0.8885,-0.8885,-0.8885,0.0,0.0,0.0,0.0,0.0,0.0,0.0,0.0,0.0,0.0,0.0,0.0,0.0,0.0,0.0,0.0,0.0,0.0,0.0,0.0,0.0,0.0,0.0,0.0,0.0,0.0,0.0,0.0,0.0,0.0,0.0,0.0,0.0,0.0,0.0,0.0,0.0,0.0,0.0,0.0,0.0,0.0,0.0,0.0,0.0,0.0,0.0,0.0,0.0,0.0,0.0,0.0,0.0,0.0,-0.3385,-0.2692,-0.1831,-0.0936,-0.0192,0.0,-0.0032,-0.0109,-0.0136,-0.0797,-0.3291,-0.2987,-0.2743,-0.4677,-0.5118,-0.5466,-0.6589,-0.7326,-0.7706,-0.7645,-0.7841,-0.7968,-0.7988,-0.7988,-0.7988,-0.7988,-0.7988,-0.7988,-0.7988,-0.8187,-0.8343,0.0,0.0,0.0,-0.8878,-0.8885,-0.8885,-0.8885,-0.8885,-0.8885,-0.8885,-0.8885,-0.8885,-0.8885,-0.8885,-0.8885,-0.8885,-0.8885,-0.8885,-0.8885,-0.8885,-0.8885,-0.8885,-0.8885,-0.8885,-0.8885,-0.8885,-0.8885,-0.8885,-0.8885,-0.8885,-0.8885,0.0,0.0,0.0,0.0,0.0,0.0,0.0,0.0,0.0,0.0,0.0,0.0,0.0,0.0,0.0,0.0,0.0,0.0,0.0,0.0,0.0,0.0,0.0,0.0,0.0,0.0,0.0,0.0,0.0,0.0,0.0,0.0,0.0,0.0,0.0,0.0,0.0,0.0,0.0,0.0,0.0,0.0,0.0,0.0,0.0,0.0,0.0,0.0,0.0,0.0,-0.1165,-0.1816,-0.2206,-0.2233,-0.2102,-0.1721,-0.1047,-0.0354,-0.0091,-0.0618,-0.1238,-0.1255,-0.1251,-0.1725,-0.3594,-0.4236,-0.4892,-0.6337,-0.6649,-0.6757,-0.7146,-0.7617,-0.7902,-0.7753,-0.7853,-0.7988,-0.7988,-0.7988,-0.7988,-0.7988,-0.7988,-0.7988,-0.7988,-0.818,0.0,0.0,0.0,0.0,-0.8871,-0.8885,-0.8885,-0.8885,-0.8885,-0.8885,-0.8885,-0.8885,-0.8885,-0.8885,-0.8885,-0.8885,-0.8885,-0.8885,-0.8885,-0.8885,-0.8885,-0.8885,-0.8885,-0.8885,-0.8885,-0.8885,-0.8885,-0.8885,-0.8885,-0.8885,-0.8885,-0.8885,0.0,0.0,0.0,0.0,0.0,0.0,0.0,0.0,0.0,0.0,0.0,0.0,0.0,0.0,0.0,0.0,0.0,0.0,0.0,0.0,0.0,0.0,0.0,0.0,0.0,0.0,0.0,0.0,0.0,0.0,0.0,0.0,0.0,0.0,0.0,0.0,0.0,0.0,0.0,0.0,0.0,0.0,0.0,0.0,0.0,0.0,0.0,0.0,0.0,0.0,-0.1161,-0.1372,-0.2064,-0.1811,-0.1213,-0.1175,-0.0909,-0.0639,-0.0638,-0.1299,-0.2089,-0.2536,-0.231,-0.2466,-0.422,-0.4994,-0.5814,-0.74,-0.7665,-0.7584,-0.7522,-0.7726,-0.7882,-0.7821,-0.7887,-0.7988,-0.7988,-0.7988,-0.7988,-0.7988,-0.7988,-0.7988,-0.7988,0.0,0.0,0.0,0.0,0.0,0.0,-0.8885,-0.8885,-0.8885,-0.8885,-0.8885,-0.8885,-0.8885,-0.8885,-0.8885,-0.8885,-0.8885,-0.8885,-0.8885,-0.8885,-0.8885,-0.8885,-0.8885,-0.8885,-0.8885,-0.8885,-0.8885,-0.8885,-0.8885,-0.8885,-0.8885,-0.8885,-0.8885,0.0,0.0,0.0,0.0,0.0,0.0,0.0,0.0,0.0,0.0,0.0,0.0,0.0,0.0,0.0,0.0,0.0,0.0,0.0,0.0,0.0,0.0,0.0,0.0,0.0,0.0,0.0,0.0,0.0,0.0,0.0,0.0,0.0,0.0,0.0,0.0,0.0,0.0,0.0,0.0,0.0,0.0,0.0,0.0,0.0,0.0,0.0,0.0,0.0,0.0,-0.1092,-0.125,-0.2194,-0.185,-0.1123,-0.125,-0.1603,-0.1977,-0.1975,-0.2003,-0.233,-0.3638,-0.2982,-0.2728,-0.5378,-0.4961,-0.4772,-0.7443,-0.7759,-0.7645,-0.7787,-0.7699,-0.7651,-0.7787,-0.7887,-0.7988,-0.7988,-0.7988,-0.7988,-0.7988,-0.7988,-0.7988,0.0,0.0,0.0,0.0,0.0,0.0,0.0,-0.8885,-0.8885,-0.8885,-0.8885,-0.8885,-0.8885,-0.8885,-0.8885,-0.8885,-0.8885,-0.8885,-0.8885,-0.8885,-0.8885,-0.8885,-0.8885,-0.8885,-0.8885,-0.8885,-0.8885,-0.8885,-0.8885,-0.8885,-0.8885,-0.8885,-0.8885,-0.8885,0.0,0.0,0.0,0.0,0.0,0.0,0.0,0.0,0.0,0.0,0.0,0.0,0.0,0.0,0.0,0.0,0.0,0.0,0.0,0.0,0.0,0.0,0.0,0.0,0.0,0.0,0.0,0.0,0.0,0.0,0.0,0.0,0.0,0.0,0.0,0.0,0.0,0.0,0.0,0.0,0.0,0.0,0.0,0.0,0.0,0.0,0.0,0.0,0.0,0.0,0.0,0.0,-0.0665,-0.0564,-0.0342,-0.0382,-0.0475,-0.058,-0.0596,-0.1969,-0.3291,-0.2725,-0.3706,-0.5039,-0.5798,-0.4963,-0.4512,-0.6212,-0.7273,-0.7889,-0.7821,-0.7868,-0.7889,-0.7821,-0.7887,-0.7988,-0.7988,-0.7988,-0.7988,-0.7988,-0.7988,0.0,0.0,0.0,0.0,0.0,0.0,0.0,0.0,-0.8824,-0.8885,-0.8885,-0.8885,-0.8885,-0.8885,-0.8885,-0.8885,-0.8885,-0.8885,-0.8885,-0.8885,-0.8885,-0.8885,-0.8885,-0.8885,-0.8885,-0.8885,-0.8885,-0.8885,-0.8885,-0.8885,-0.8885,-0.8885,-0.8885,-0.8885,-0.8885,0.0,0.0,0.0,0.0,0.0,0.0,0.0,0.0,0.0,0.0,0.0,0.0,0.0,0.0,0.0,0.0,0.0,0.0,0.0,0.0,0.0,0.0,0.0,0.0,0.0,0.0,0.0,0.0,0.0,0.0,0.0,0.0,0.0,0.0,0.0,0.0,0.0,0.0,0.0,0.0,0.0,0.0,0.0,0.0,0.0,0.0,0.0,0.0,0.0,0.0,0.0,0.0,-0.034,-0.0223,-0.0118,-0.0651,-0.1182,-0.171,-0.2228,-0.356,-0.4713,-0.4435,-0.5211,-0.602,-0.5995,-0.5774,-0.5815,-0.6653,-0.739,-0.7887,-0.7909,-0.788,-0.7887,-0.7909,-0.7928,-0.7988,-0.7988,-0.7988,-0.7988,-0.7988,-0.7988,0.0,0.0,0.0,0.0,0.0,0.0,0.0,0.0,-0.8804,-0.8885,-0.8885,-0.8885,-0.8885,-0.8885,-0.8885,-0.8885,-0.8885,-0.8885,-0.8885,-0.8885,-0.8885,-0.8885,-0.8885,-0.8885,-0.8885,-0.8885,-0.8885,-0.8885,-0.8885,-0.8885,-0.8885,-0.8885,-0.8885,-0.8885,-0.8885,0.0,0.0,0.0,0.0,0.0,0.0,0.0,0.0,0.0,0.0,0.0,0.0,0.0,0.0,0.0,0.0,0.0,0.0,0.0,0.0,0.0,0.0,0.0,0.0,0.0,0.0,0.0,0.0,0.0,0.0,0.0,0.0,0.0,0.0,0.0,0.0,0.0,0.0,0.0,0.0,0.0,0.0,0.0,0.0,0.0,0.0,0.0,0.0,0.0,0.0,0.0,0.0,-0.0798,-0.0568,-0.0313,-0.1544,-0.2843,-0.418,-0.5407,-0.5846,-0.6301,-0.7524,-0.7014,-0.6167,-0.6181,-0.7135,-0.7988,-0.7839,-0.7831,-0.7875,-0.7961,-0.7874,-0.7875,-0.7968,-0.7988,-0.7988,-0.7988,-0.7988,-0.7988,-0.7988,0.0,0.0,0.0,0.0,0.0,0.0,0.0,0.0,0.0,-0.8845,-0.8885,-0.8885,-0.8885,-0.8885,-0.8885,-0.8885,-0.8885,-0.8885,-0.8885,-0.8885,-0.8885,-0.8885,-0.8885,-0.8885,-0.8885,-0.8885,-0.8885,-0.8885,-0.8885,-0.8885,-0.8885,-0.8885,-0.8885,-0.8885,-0.8885,-0.8885,0.0,0.0,0.0,0.0,0.0,0.0,0.0,0.0,0.0,0.0,0.0,0.0,0.0,0.0,0.0,0.0,0.0,0.0,0.0,0.0,0.0,0.0,0.0,0.0,0.0,0.0,0.0,0.0,0.0,0.0,0.0,0.0,0.0,0.0,0.0,0.0,0.0,0.0,0.0,0.0,0.0,0.0,0.0,0.0,0.0,0.0,0.0,0.0,0.0,0.0,0.0,0.0,-0.0193,-0.0456,-0.0791,-0.1171,-0.2155,-0.3235,-0.3616,-0.482,-0.6057,-0.6358,-0.702,-0.7583,-0.7558,-0.7789,-0.769,-0.6631,-0.726,-0.7948,-0.7982,-0.7961,-0.7948,-0.7982,-0.7988,-0.7988,-0.7988,-0.7988,-0.7988,0.0,0.0,0.0,0.0,0.0,0.0,0.0,0.0,0.0,-0.8526,-0.8791,-0.8885,-0.8885,-0.8885,-0.8885,-0.8885,-0.8885,-0.8885,0.0,-0.8885,-0.8885,-0.8885,-0.8885,-0.8885,-0.8885,-0.8885,-0.8885,-0.8885,-0.8885,-0.8885,-0.8885,-0.8885,-0.8885,-0.8885,-0.8885,-0.8885,-0.8885,0.0,0.0,0.0,0.0,0.0,0.0,0.0,0.0,0.0,0.0,0.0,0.0,0.0,0.0,0.0,0.0,0.0,0.0,0.0,0.0,0.0,0.0,0.0,0.0,0.0,0.0,0.0,0.0,0.0,0.0,0.0,0.0,0.0,0.0,0.0,0.0,0.0,0.0,0.0,0.0,0.0,0.0,0.0,0.0,0.0,-0.0049,-0.0353,0.0,0.0,0.0,0.0,0.0,0.0,0.0,-0.1561,-0.2291,-0.2985,-0.3727,-0.4751,-0.5817,-0.6707,-0.6886,-0.7463,-0.7988,-0.7988,-0.7988,-0.7789,-0.7086,-0.7534,-0.7988,-0.7988,-0.7988,-0.7988,-0.7988,-0.7988,-0.7988,-0.7988,-0.7988,0.0,0.0,0.0,0.0,0.0,0.0,0.0,0.0,0.0,-0.8479,-0.8479,-0.8771,-0.8885,-0.8885,-0.8885,-0.8885,-0.8885,-0.8885,-0.8885,-0.8885,-0.8885,-0.8885,-0.8885,-0.8885,-0.8885,-0.8885,-0.8885,-0.8885,-0.8885,-0.8885,-0.8885,-0.8885,-0.8885,-0.8885,-0.8885,-0.8885,-0.8885,-0.8885,0.0,0.0,0.0,0.0,0.0,0.0,0.0,0.0,0.0,0.0,0.0,0.0,0.0,0.0,0.0,0.0,0.0,0.0,0.0,0.0,0.0,0.0,0.0,0.0,0.0,0.0,0.0,0.0,0.0,0.0,0.0,0.0,0.0,0.0,0.0,0.0,0.0,0.0,0.0,0.0,0.0,0.0,0.0,0.0,0.0,0.0,0.0,0.0,0.0,0.0,0.0,0.0,0.0,0.0,-0.2376,-0.3506,-0.4083,-0.4671,-0.6291,-0.7021,-0.7414,-0.7867,-0.7988,-0.7988,-0.7988,-0.7988,-0.7988,-0.7988,-0.7988,-0.7988,-0.7988,-0.7988,-0.7988,-0.7988,-0.7988,-0.7988,-0.7988,0.0,0.0,0.0,0.0,0.0,0.0,0.0,0.0,0.0,0.0,-0.8479,-0.8479,-0.8771,-0.8885,-0.8885,-0.8885,-0.8885,-0.8885,-0.8885,-0.8885,-0.8885,-0.8885,-0.8885,-0.8885,-0.8885,-0.8885,-0.8885,-0.8885,-0.8885,-0.8885,-0.8885,-0.8885,-0.8885,-0.8885,-0.8885,-0.8885,-0.8885,-0.8885,-0.8885,0.0,0.0,0.0,0.0,0.0,0.0,0.0,0.0,0.0,0.0,0.0,0.0,0.0,0.0,0.0,0.0,0.0,0.0,0.0,0.0,0.0,0.0,0.0,0.0,0.0,0.0,0.0,0.0,0.0,0.0,0.0,0.0,0.0,0.0,0.0,0.0,0.0,0.0,0.0,0.0,0.0,0.0,0.0,0.0,0.0,0.0,0.0,0.0,0.0,0.0,-0.0501,0.0,0.0,0.0,-0.2833,-0.313,-0.3986,-0.4862,-0.5137,-0.6047,-0.7112,-0.7813,-0.7988,-0.7988,-0.7988,-0.7988,-0.7988,-0.7988,-0.7988,-0.7988,-0.7988,-0.7988,-0.7988,-0.7988,-0.7988,-0.7988,0.0,0.0,0.0,0.0,0.0,0.0,0.0,0.0,0.0,0.0,-0.8316,-0.8479,-0.8479,-0.8771,-0.8885,-0.8885,-0.8885,-0.8885,-0.8885,-0.8885,-0.8885,-0.8885,-0.8885,-0.8885,-0.8885,-0.8885,-0.8885,-0.8885,-0.8885,-0.8885,-0.8885,-0.8885,-0.8885,-0.8885,-0.8885,-0.8885,-0.8885,-0.8885,-0.8885,-0.8885,0.0,0.0,0.0,0.0,0.0,0.0,0.0,0.0,0.0,0.0,0.0,0.0,0.0,0.0,0.0,0.0,0.0,0.0,0.0,0.0,0.0,0.0,0.0,0.0,0.0,0.0,0.0,0.0,0.0,0.0,0.0,0.0,0.0,0.0,0.0,0.0,0.0,0.0,0.0,0.0,0.0,0.0,0.0,0.0,0.0,0.0,0.0,0.0,0.0,0.0,-0.0774,-0.1701,-0.1552,0.0,0.0,0.0,-0.3907,-0.4599,-0.544,-0.6342,-0.7166,-0.7826,-0.7988,-0.7988,-0.7988,-0.7988,-0.7988,-0.7988,-0.7988,-0.7988,-0.7988,-0.7988,-0.7988,-0.7988,-0.7988,0.0,0.0,0.0,0.0,0.0,0.0,0.0,0.0,0.0,0.0,0.0,-0.8241,-0.8397,-0.8479,-0.8689,-0.8797,-0.8878,-0.8885,-0.8885,-0.8885,-0.8885,-0.8885,-0.8885,-0.8885,-0.8885,-0.8885,-0.8885,-0.8885,-0.8885,-0.8885,-0.8885,-0.8885,-0.8885,-0.8885,-0.8885,-0.8885,-0.8885,-0.8885,-0.8885,-0.8885,-0.8885,0.0,0.0,0.0,0.0,0.0,0.0,0.0,0.0,0.0,0.0,0.0,0.0,0.0,0.0,0.0,0.0,0.0,0.0,0.0,0.0,0.0,0.0,0.0,0.0,0.0,0.0,0.0,0.0,0.0,0.0,0.0,0.0,0.0,0.0,0.0,0.0,0.0,0.0,0.0,0.0,0.0,0.0,0.0,0.0,0.0,0.0,0.0,0.0,-0.0023,-0.0216,-0.1132,-0.2191,-0.2134,-0.2988,0.0,0.0,0.0,-0.4126,-0.5542,-0.6268,-0.6775,-0.7564,-0.7793,-0.7847,-0.7961,-0.7988,-0.7988,-0.7988,-0.7988,-0.7988,-0.7988,-0.7988,-0.7988,-0.7988,0.0,0.0,0.0,0.0,0.0,0.0,0.0,0.0,0.0,0.0,0.0,0.0,-0.818,-0.8381,-0.8472,-0.8628,-0.8777,-0.8878,-0.8885,-0.8885,-0.8885,-0.8885,-0.8885,-0.8885,-0.8885,-0.8885,-0.8885,-0.8885,-0.8885,-0.8885,-0.8885,-0.8885,-0.8885,-0.8885,-0.8885,-0.8885,-0.8885,-0.8885,-0.8885,-0.8885,-0.8885,-0.8885,0.0,0.0,0.0,0.0,0.0,0.0,0.0,0.0,0.0,0.0,0.0,0.0,0.0,0.0,0.0,0.0,0.0,0.0,0.0,0.0,0.0,0.0,0.0,0.0,0.0,0.0,0.0,0.0,0.0,0.0,0.0,0.0,0.0,0.0,0.0,0.0,0.0,0.0,0.0,0.0,0.0,0.0,0.0,0.0,0.0,0.0,0.0,0.0,-0.0114,-0.0807,-0.156,-0.2303,-0.2854,-0.3491,-0.3937,0.0,0.0,0.0,-0.4665,-0.5076,-0.5514,-0.6815,-0.7299,-0.7516,-0.7894,-0.7988,-0.7988,-0.7988,-0.7988,-0.7988,-0.7988,-0.7988,-0.7988,0.0,0.0,0.0,0.0,0.0,0.0,0.0,0.0,0.0,0.0,0.0,0.0,0.0,-0.818,-0.8381,-0.8472,-0.8628,-0.8777,-0.8878,-0.8885,-0.8885,-0.8885,-0.8885,-0.8885,-0.8885,-0.8885,-0.8885,-0.8885,-0.8885,-0.8885,-0.8885,-0.8885,-0.8885,-0.8885,-0.8885,-0.8885,-0.8885,-0.8885,-0.8885,-0.8885,-0.8885,-0.8885,-0.8885,0.0,0.0,0.0,0.0,0.0,0.0,0.0,0.0,0.0,0.0,0.0,0.0,0.0,0.0,0.0,0.0,0.0,0.0,0.0,0.0,0.0,0.0,0.0,0.0,0.0,0.0,0.0,0.0,0.0,0.0,0.0,0.0,0.0,0.0,0.0,0.0,0.0,0.0,0.0,0.0,0.0,0.0,0.0,0.0,0.0,0.0,0.0,0.0,-0.0118,-0.0839,-0.1598,-0.2284,-0.2803,-0.3395,-0.3799,-0.3398,-0.3453,-0.3778,-0.4443,-0.4975,-0.546,-0.6195,-0.6788,-0.7265,-0.7382,-0.7712,-0.7988,-0.7988,-0.7988,-0.7988,-0.7988,-0.7988,0.0,0.0,0.0,0.0,0.0,0.0,0.0,0.0,0.0,0.0,0.0,0.0,0.0,0.0,0.0,-0.8228,-0.8472,-0.8533,-0.8676,-0.8871,-0.8885,-0.8885,-0.8885,-0.8885,-0.8885,-0.8885,-0.8885,-0.8885,-0.8885,-0.8885,-0.8885,-0.8885,-0.8885,-0.8885,-0.8885,-0.8885,-0.8885,-0.8885,-0.8885,-0.8885,-0.8885,-0.8885,-0.8885,-0.8885,0.0,0.0,0.0,0.0,0.0,0.0,0.0,0.0,0.0,0.0,0.0,0.0,0.0,0.0,0.0,0.0,0.0,0.0,0.0,0.0,0.0,0.0,0.0,0.0,0.0,0.0,0.0,0.0,0.0,0.0,0.0,0.0,0.0,0.0,0.0,0.0,0.0,0.0,0.0,0.0,0.0,0.0,0.0,0.0,0.0,0.0,0.0,-0.0279,-0.0785,-0.1516,-0.2385,-0.3223,-0.349,-0.3575,-0.35,-0.3128,-0.3297,-0.3629,-0.3952,-0.4443,-0.5023,-0.5644,-0.6101,-0.6573,-0.7125,-0.7476,-0.7746,-0.7948,-0.7988,-0.7988,-0.7988,0.0,0.0,0.0,0.0,0.0,0.0,0.0,0.0,0.0,0.0,0.0,0.0,0.0,0.0,0.0,0.0,0.0,-0.8465,-0.8479,-0.8621,-0.8871,-0.8885,-0.8885,-0.8885,-0.8885,-0.8885,-0.8885,-0.8885,-0.8885,-0.8885,-0.8885,-0.8885,-0.8885,-0.8885,-0.8885,-0.8885,-0.8885,-0.8885,-0.8885,-0.8885,-0.8885,-0.8885,-0.8885,-0.8885,-0.8885,0.0,0.0,0.0,0.0,0.0,0.0,0.0,0.0,0.0,0.0,0.0,0.0,0.0,0.0,0.0,0.0,0.0,0.0,0.0,0.0,0.0,0.0,0.0,0.0,0.0,0.0,0.0,0.0,0.0,0.0,0.0,0.0,0.0,0.0,0.0,0.0,0.0,0.0,0.0,0.0,0.0,0.0,0.0,0.0,0.0,0.0,0.0,-0.0862,-0.2111,-0.286,-0.3997,-0.5037,-0.4893,-0.4045,-0.3074,-0.2926,-0.2993,-0.3108,0.0,0.0,0.0,-0.5085,-0.5209,-0.5501,-0.7149,-0.7299,-0.7227,-0.784,-0.7961,-0.7961,0.0,0.0,0.0,0.0,0.0,0.0,0.0,0.0,0.0,0.0,0.0,0.0,0.0,0.0,0.0,0.0,-0.7988,-0.8167,-0.8465,-0.8492,-0.8628,-0.8871,-0.8885,-0.8885,-0.8885,-0.8885,-0.8885,-0.8885,-0.8885,-0.8885,-0.8885,-0.8885,-0.8885,-0.8885,-0.8885,-0.8885,-0.8885,-0.8885,-0.8885,-0.8885,-0.8885,-0.8885,-0.8885,-0.8885,-0.8885,-0.8885,0.0,0.0,0.0,0.0,0.0,0.0,0.0,0.0,0.0,0.0,0.0,0.0,0.0,0.0,0.0,0.0,0.0,0.0,0.0,0.0,0.0,0.0,0.0,0.0,0.0,0.0,0.0,0.0,0.0,0.0,0.0,0.0,0.0,0.0,0.0,0.0,0.0,0.0,0.0,0.0,0.0,0.0,0.0,0.0,0.0,0.0,0.0,-0.0874,-0.2114,-0.2869,-0.3717,-0.4384,-0.4075,-0.3568,-0.3054,-0.2815,-0.298,-0.3222,-0.3128,0.0,0.0,0.0,0.0,0.0,-0.5508,-0.5847,-0.6281,-0.7152,-0.726,-0.7355,0.0,0.0,0.0,0.0,0.0,0.0,0.0,0.0,0.0,0.0,0.0,0.0,0.0,0.0,0.0,0.0,-0.7988,-0.8167,-0.8465,-0.8696,-0.8797,-0.8878,-0.8885,-0.8885,-0.8885,-0.8885,-0.8885,-0.8885,-0.8885,-0.8885,-0.8885,-0.8885,-0.8885,-0.8885,-0.8885,-0.8885,-0.8885,-0.8885,-0.8885,-0.8885,-0.8885,-0.8885,-0.8885,-0.8885,-0.8885,-0.8885,0.0,0.0,0.0,0.0,0.0,0.0,0.0,0.0,0.0,0.0,0.0,0.0,0.0,0.0,0.0,0.0,0.0,0.0,0.0,0.0,0.0,0.0,0.0,0.0,0.0,0.0,0.0,0.0,0.0,0.0,0.0,0.0,0.0,0.0,0.0,0.0,0.0,0.0,0.0,0.0,0.0,0.0,0.0,0.0,0.0,0.0,0.0,-0.0875,-0.2142,-0.3155,-0.4122,-0.4875,-0.4558,-0.3948,-0.3331,-0.2971,-0.3162,-0.3465,-0.3276,-0.35,-0.3799,-0.3846,0.0,0.0,-0.5338,-0.5623,-0.6023,0.0,-0.7402,-0.7476,0.0,0.0,0.0,0.0,0.0,0.0,0.0,0.0,0.0,0.0,0.0,0.0,0.0,-0.7988,0.0,-0.7988,-0.7988,-0.8167,-0.8465,-0.8771,-0.8885,-0.8885,-0.8885,-0.8885,-0.8885,-0.8885,-0.8885,-0.8885,-0.8885,-0.8885,-0.8885,-0.8885,-0.8885,-0.8885,-0.8885,-0.8885,-0.8885,-0.8885,-0.8885,-0.8885,-0.8885,-0.8885,-0.8885,-0.8885,-0.8885,-0.8892,0.0,0.0,0.0,0.0,0.0,0.0,0.0,0.0,0.0,0.0,0.0,0.0,0.0,0.0,0.0,0.0,0.0,0.0,0.0,0.0,0.0,0.0,0.0,0.0,0.0,0.0,0.0,0.0,0.0,0.0,0.0,0.0,0.0,0.0,0.0,0.0,0.0,0.0,0.0,0.0,0.0,0.0,0.0,0.0,0.0,0.0,0.0,-0.0847,-0.2226,-0.3663,-0.4917,-0.5872,-0.5636,-0.4836,-0.3907,-0.3317,-0.3514,-0.3843,-0.3537,-0.3624,-0.3873,-0.4092,-0.3876,0.0,-0.5781,-0.584,-0.5976,0.0,-0.7617,0.0,0.0,0.0,0.0,0.0,0.0,0.0,0.0,0.0,0.0,0.0,0.0,0.0,0.0,-0.7988,-0.7988,-0.7988,-0.8022,-0.8201,-0.8465,-0.8771,-0.8885,-0.8885,-0.8885,-0.8885,-0.8885,-0.8885,-0.8885,-0.8885,-0.8885,-0.8885,-0.8885,-0.8885,-0.8885,-0.8885,-0.8885,-0.8885,-0.8885,-0.8885,-0.8885,-0.8885,-0.8885,-0.8885,-0.8885,-0.8885,-0.8892,-0.8981,0.0,0.0,0.0,0.0,0.0,0.0,0.0,0.0,0.0,0.0,0.0,0.0,0.0,0.0,0.0,0.0,0.0,0.0,0.0,0.0,0.0,0.0,0.0,0.0,0.0,0.0,0.0,0.0,0.0,0.0,0.0,0.0,0.0,0.0,0.0,0.0,0.0,0.0,0.0,0.0,0.0,0.0,0.0,0.0,0.0,0.0,0.0,-0.084,-0.2313,-0.4415,-0.5213,-0.5251,-0.5199,-0.5304,-0.5155,-0.3866,-0.3975,-0.4395,-0.3877,-0.3839,-0.3934,-0.3751,-0.3826,0.0,-0.393,-0.4077,-0.4402,0.0,-0.5345,-0.5562,0.0,0.0,0.0,0.0,0.0,0.0,0.0,0.0,0.0,0.0,0.0,0.0,0.0,-0.7988,-0.7988,-0.7988,-0.8262,-0.8418,-0.8479,-0.8771,-0.8885,-0.8885,-0.8885,-0.8885,-0.8885,-0.8885,-0.8885,-0.8885,-0.8885,-0.8885,-0.8885,-0.8885,-0.8885,-0.8885,-0.8885,-0.8885,-0.8885,-0.8885,-0.8885,-0.8885,-0.8885,-0.8885,-0.8885,-0.8885,-0.9015,-0.9173,0.0,0.0,0.0,0.0,0.0,0.0,0.0,0.0,0.0,0.0,0.0,0.0,0.0,0.0,0.0,0.0,0.0,0.0,0.0,0.0,0.0,0.0,0.0,0.0,0.0,0.0,0.0,0.0,0.0,0.0,0.0,0.0,0.0,0.0,0.0,0.0,0.0,0.0,0.0,0.0,0.0,0.0,0.0,0.0,0.0,0.0,0.0,-0.0869,-0.2297,-0.4192,-0.4832,-0.5049,-0.5832,-0.5946,-0.5596,-0.4551,-0.4619,-0.4907,-0.4199,-0.4131,-0.4206,-0.4081,-0.3961,0.0,0.0,-0.4099,-0.4247,-0.5176,-0.5182,-0.5209,-0.5806,0.0,0.0,0.0,0.0,0.0,0.0,0.0,0.0,0.0,0.0,0.0,0.0,-0.7988,-0.7988,-0.7988,-0.8316,-0.8479,-0.8479,-0.8771,-0.8885,-0.8885,-0.8885,-0.8885,-0.8885,-0.8885,-0.8885,-0.8885,-0.8885,-0.8885,-0.8885,-0.8885,-0.8885,-0.8885,-0.8885,-0.8885,-0.8892,-0.9015,-0.9049,-0.9049,-0.9049,-0.9049,-0.9055,-0.913,-0.9205,-0.9337,0.0,0.0,0.0,0.0,0.0,0.0,0.0,0.0,0.0,0.0,0.0,0.0,0.0,0.0,0.0,0.0,0.0,0.0,0.0,0.0,0.0,0.0,0.0,0.0,0.0,0.0,0.0,0.0,0.0,0.0,0.0,0.0,0.0,0.0,0.0,0.0,0.0,0.0,0.0,0.0,0.0,0.0,0.0,0.0,0.0,0.0,0.0,-0.0722,-0.1854,-0.3299,-0.3988,-0.4523,-0.6168,-0.6318,-0.5795,-0.5145,-0.527,-0.5474,-0.4577,-0.4524,-0.4668,-0.4491,-0.4279,-0.4219,0.0,0.0,0.0,-0.5299,-0.525,-0.5132,-0.5365,0.0,0.0,0.0,0.0,0.0,0.0,0.0,0.0,0.0,0.0,0.0,0.0,-0.7793,-0.7833,-0.7982,-0.818,-0.833,-0.8472,-0.8771,-0.8885,-0.8885,-0.8885,-0.8885,-0.8885,-0.8885,-0.8885,-0.8885,-0.8885,-0.8885,-0.8885,-0.8885,-0.8885,-0.8885,-0.8885,-0.8898,-0.8988,-0.9159,-0.9228,-0.9255,-0.9255,-0.9255,-0.9268,-0.9334,-0.9401,-0.9442,0.0,0.0,0.0,0.0,0.0,0.0,0.0,0.0,0.0,0.0,0.0,0.0,0.0,0.0,0.0,0.0,0.0,0.0,0.0,0.0,0.0,0.0,0.0,0.0,0.0,0.0,0.0,0.0,0.0,0.0,0.0,0.0,0.0,0.0,0.0,0.0,0.0,0.0,0.0,0.0,0.0,0.0,0.0,0.0,0.0,0.0,0.0,-0.0112,-0.0444,-0.1948,-0.2463,-0.2778,-0.4604,-0.5736,-0.6265,-0.5351,-0.5793,-0.6302,-0.5123,-0.5148,-0.527,-0.4442,-0.4728,-0.4928,-0.3852,0.0,-0.395,-0.3658,0.0,-0.3856,-0.3988,0.0,0.0,0.0,0.0,0.0,-0.4897,-0.5555,-0.6159,0.0,0.0,0.0,0.0,0.0,-0.728,-0.7941,-0.7699,-0.7835,-0.8445,-0.8771,-0.8885,-0.8885,-0.8885,-0.8885,-0.8885,-0.8885,-0.8885,-0.8885,-0.8885,-0.8885,-0.8885,-0.8885,-0.8885,-0.8885,-0.8885,-0.9008,-0.9187,-0.92,-0.9289,-0.9354,-0.9354,-0.9354,-0.9354,-0.9374,-0.9469,-0.9585,0.0,0.0,0.0,0.0,0.0,0.0,0.0,0.0,0.0,0.0,0.0,0.0,0.0,0.0,0.0,0.0,0.0,0.0,0.0,0.0,0.0,0.0,0.0,0.0,0.0,0.0,0.0,0.0,0.0,0.0,0.0,0.0,0.0,0.0,0.0,0.0,0.0,0.0,0.0,0.0,0.0,0.0,0.0,0.0,0.0,0.0,0.0,0.0,-0.0223,-0.1692,-0.2065,-0.2183,-0.3933,-0.5005,-0.5454,-0.4902,-0.5418,-0.5996,-0.5148,-0.5304,-0.5515,-0.4707,-0.487,-0.4965,-0.3968,-0.366,-0.3607,-0.3586,0.0,0.0,0.0,0.0,0.0,0.0,-0.4239,0.0,0.0,0.0,-0.5759,0.0,0.0,0.0,0.0,0.0,0.0,0.0,0.0,-0.7746,-0.8438,-0.8771,-0.8885,-0.8885,-0.8885,-0.8885,-0.8885,-0.8885,-0.8885,-0.8885,-0.8885,-0.8885,-0.8885,-0.8885,-0.8885,-0.8885,-0.8885,-0.9022,-0.9214,-0.9309,-0.9374,-0.9523,-0.9605,-0.9585,-0.9523,-0.9605,-0.968,-0.9734,0.0,0.0,0.0,0.0,0.0,0.0,0.0,0.0,0.0,0.0,0.0,0.0,0.0,0.0,0.0,0.0,0.0,0.0,0.0,0.0,0.0,0.0,0.0,0.0,0.0,0.0,0.0,0.0,0.0,0.0,0.0,0.0,0.0,0.0,0.0,0.0,0.0,0.0,0.0,0.0,0.0,0.0,0.0,0.0,0.0,0.0,0.0,0.0,-0.0168,-0.1212,-0.1394,0.0,-0.2988,-0.3789,-0.413,-0.4077,-0.4867,-0.5622,-0.4869,-0.5342,-0.582,-0.4863,-0.485,-0.4833,-0.4077,-0.3714,-0.3591,-0.3765,-0.3629,0.0,0.0,0.0,-0.3438,-0.3398,0.0,-0.4185,0.0,-0.4321,0.0,0.0,0.0,0.0,0.0,0.0,0.0,0.0,0.0,0.0,-0.8431,-0.8771,-0.8885,-0.8885,-0.8885,-0.8885,-0.8885,-0.8885,-0.8885,-0.8885,-0.8885,-0.8885,-0.8885,-0.8885,-0.8885,-0.8885,-0.8981,-0.9083,-0.9282,-0.9381,-0.953,-0.968,-0.9781,-0.9754,-0.968,-0.9781,-0.9822,-0.9822,0.0,0.0,0.0,0.0,0.0,0.0,0.0,0.0,0.0,0.0,0.0,0.0,0.0,0.0,0.0,0.0,0.0,0.0,0.0,0.0,0.0,0.0,0.0,0.0,0.0,0.0,0.0,0.0,0.0,0.0,0.0,0.0,0.0,0.0,0.0,0.0,0.0,0.0,0.0,0.0,0.0,0.0,0.0,0.0,0.0,0.0,0.0,0.0,0.0,-0.0053,-0.0052,0.0,0.0,0.0,-0.238,-0.2821,-0.43,-0.5542,-0.4367,-0.5308,-0.6315,-0.4866,-0.4701,-0.4694,-0.3822,-0.3896,-0.4112,-0.3853,-0.415,-0.4361,-0.4056,-0.388,-0.3731,-0.3617,-0.3617,0.0,0.0,0.0,0.0,0.0,0.0,0.0,0.0,0.0,0.0,0.0,0.0,0.0,-0.8404,-0.8771,-0.8885,-0.8885,-0.8885,-0.8885,-0.8885,-0.8885,-0.8885,-0.8885,-0.8885,-0.8885,-0.8885,-0.8885,-0.8885,-0.8892,-0.9083,-0.9289,-0.9388,-0.9537,-0.9686,-0.9815,-0.9822,-0.9815,-0.9815,-0.9822,-0.9822,-0.9822,0.0,0.0,0.0,0.0,0.0,0.0,0.0,0.0,0.0,0.0,0.0,0.0,0.0,0.0,0.0,0.0,0.0,0.0,0.0,0.0,0.0,0.0,0.0,0.0,0.0,0.0,0.0,0.0,0.0,0.0,0.0,0.0,0.0,0.0,0.0,0.0,0.0,0.0,0.0,0.0,0.0,0.0,0.0,0.0,0.0,0.0,0.0,0.0,0.0,0.0,0.0,-0.0052,-0.0423,-0.1008,-0.1658,-0.1798,-0.3439,0.0,0.0,0.0,-0.7224,-0.5725,-0.5583,-0.5467,-0.4165,-0.4138,-0.4273,-0.3873,-0.4259,-0.449,-0.4072,-0.3894,-0.3778,-0.3754,-0.3665,-0.3487,0.0,0.0,0.0,0.0,0.0,0.0,0.0,0.0,0.0,0.0,0.0,0.0,0.0,-0.8771,-0.8885,-0.8885,-0.8885,-0.8885,-0.8885,-0.8885,-0.8885,-0.8885,-0.8885,-0.8885,-0.8885,-0.9035,-0.9083,-0.9089,-0.9239,-0.9388,-0.9537,-0.9591,-0.9693,-0.9822,-0.9822,-0.9822,-0.9822,-0.9822,-0.9822,-0.9822,0.0,0.0,0.0,0.0,0.0,0.0,0.0,0.0,0.0,0.0,0.0,0.0,0.0,0.0,0.0,0.0,0.0,0.0,0.0,0.0,0.0,0.0,0.0,0.0,0.0,0.0,0.0,0.0,0.0,0.0,0.0,0.0,0.0,0.0,0.0,0.0,0.0,0.0,0.0,0.0,0.0,0.0,0.0,0.0,0.0,0.0,0.0,0.0,0.0,0.0,0.0,0.0,0.0,-0.0374,-0.0846,-0.0835,-0.2695,-0.4687,-0.4512,-0.6192,0.0,-0.6444,-0.6268,0.0,-0.4692,-0.4687,-0.4859,-0.4457,-0.4572,-0.4816,-0.4945,-0.4457,-0.4088,-0.4178,-0.3846,-0.3453,0.0,-0.2959,0.0,0.0,0.0,0.0,0.0,0.0,0.0,0.0,0.0,0.0,0.0,0.0,-0.8885,-0.8885,-0.8885,-0.8885,-0.8885,-0.8885,-0.8885,-0.8885,-0.8885,-0.8912,-0.9015,-0.9166,-0.9241,-0.9303,-0.9395,-0.9517,-0.9612,-0.9666,-0.9741,-0.9822,-0.9822,-0.9822,-0.9822,-0.9822,-0.9822,-0.9822,0.0,0.0,0.0,0.0,0.0,0.0,0.0,0.0,0.0,0.0,0.0,0.0,0.0,0.0,0.0,0.0,0.0,0.0,0.0,0.0,0.0,0.0,0.0,0.0,0.0,0.0,0.0,0.0,0.0,0.0,0.0,0.0,0.0,0.0,0.0,0.0,0.0,0.0,0.0,0.0,0.0,0.0,0.0,0.0,0.0,0.0,0.0,0.0,0.0,0.0,0.0,0.0,0.0,0.0,0.0,0.0,-0.2101,-0.4254,-0.3669,-0.567,-0.7736,-0.6864,0.0,0.0,0.0,0.0,-0.5779,-0.5515,-0.5216,-0.5365,-0.6444,-0.5515,-0.4627,-0.4843,-0.4151,-0.3399,-0.2812,-0.2951,-0.3108,0.0,0.0,0.0,0.0,0.0,0.0,0.0,0.0,0.0,0.0,0.0,-0.8838,-0.8885,-0.8885,-0.8885,-0.8885,-0.8885,-0.8885,-0.8885,-0.8892,-0.9022,-0.9207,-0.9228,-0.9309,-0.9401,-0.9551,-0.9618,-0.9632,-0.9768,-0.9822,-0.9822,-0.9822,-0.9822,-0.9822,-0.9822,-0.9822,-0.9822,0.0,0.0,0.0,0.0,0.0,0.0,0.0,0.0,0.0,0.0,0.0,0.0,0.0,0.0,0.0,0.0,0.0,0.0,0.0,0.0,0.0,0.0,0.0,0.0,0.0,0.0,0.0,0.0,0.0,0.0,0.0,0.0,0.0,0.0,0.0,0.0,0.0,0.0,0.0,0.0,0.0,0.0,0.0,0.0,0.0,0.0,0.0,0.0,0.0,0.0,0.0,0.0,0.0,0.0,0.0,0.0,-0.134,-0.2774,-0.2614,-0.4756,-0.6851,-0.6221,-0.6709,-0.7183,0.0,0.0,0.0,0.0,0.0,0.0,0.0,-0.5562,-0.5108,-0.449,-0.3948,-0.3487,-0.3195,-0.3128,0.0,-0.3432,0.0,0.0,0.0,0.0,0.0,0.0,0.0,0.0,0.0,0.0,0.0,-0.8865,-0.8885,-0.8885,-0.8885,-0.8885,-0.8885,-0.8885,-0.9049,-0.9173,-0.9214,-0.9388,-0.951,-0.9557,-0.9707,-0.9768,-0.9768,-0.9802,-0.9822,-0.9822,-0.9822,-0.9822,-0.9822,-0.9822,-0.9822,-0.9822,0.0,0.0,0.0,0.0,0.0,0.0,0.0,0.0,0.0,0.0,0.0,0.0,0.0,0.0,0.0,0.0,0.0,0.0,0.0,0.0,0.0,0.0,0.0,0.0,0.0,0.0,0.0,0.0,0.0,0.0,0.0,0.0,0.0,0.0,0.0,0.0,0.0,0.0,0.0,0.0,0.0,0.0,0.0,0.0,0.0,0.0,0.0,0.0,0.0,0.0,0.0,0.0,0.0,0.0,0.0,0.0,-0.1065,-0.2172,-0.2172,-0.4425,-0.6702,-0.6349,-0.7328,-0.8187,-0.7455,-0.7368,-0.7395,0.0,-0.7068,-0.7075,0.0,0.0,0.0,-0.4193,-0.3785,-0.35,-0.3242,-0.3196,-0.3263,0.0,-0.3931,0.0,0.0,0.0,0.0,0.0,0.0,0.0,0.0,0.0,0.0,-0.8858,-0.8811,-0.8804,-0.8885,-0.8804,-0.8804,-0.8885,-0.9083,-0.9248,-0.9316,-0.9503,-0.9646,-0.9707,-0.9788,-0.9822,-0.9822,-0.9822,-0.9822,-0.9822,-0.9822,-0.9822,-0.9822,-0.9822,-0.9822,-0.9822,0.0,0.0,0.0,0.0,0.0,0.0,0.0,0.0,0.0,0.0,0.0,0.0,0.0,0.0,0.0,0.0,0.0,0.0,0.0,0.0,0.0,0.0,0.0,0.0,0.0,0.0,0.0,0.0,0.0,0.0,0.0,0.0,0.0,0.0,0.0,0.0,0.0,0.0,0.0,0.0,0.0,0.0,0.0,0.0,0.0,0.0,0.0,0.0,0.0,0.0,0.0,0.0,0.0,0.0,0.0,0.0,-0.0897,-0.1892,-0.1892,-0.4242,-0.6642,-0.6642,-0.8038,-0.9178,-0.8397,-0.8164,-0.8123,-0.8018,-0.7475,-0.7387,0.0,0.0,0.0,-0.4211,-0.3883,-0.3704,-0.3554,-0.3526,-0.3539,-0.3604,0.0,0.0,0.0,0.0,0.0,0.0,0.0,0.0,0.0,0.0,0.0,-0.8858,-0.8682,0.0,-0.8824,0.0,-0.8662,-0.8858,-0.9096,-0.9323,-0.9415,-0.9564,-0.9707,-0.9822,-0.9822,-0.9822,-0.9822,-0.9822,-0.9822,-0.9822,-0.9822,-0.9822,-0.9822,-0.9822,-0.9822,-0.9822,0.0,0.0,0.0,0.0,0.0,0.0,0.0,0.0,0.0,0.0,0.0,0.0,0.0,0.0,0.0,0.0,0.0,0.0,0.0,0.0,0.0,0.0,0.0,0.0,0.0,0.0,0.0,0.0,0.0,0.0,0.0,0.0,0.0,0.0,0.0,0.0,0.0,0.0,0.0,0.0,0.0,0.0,0.0,0.0,0.0,0.0,0.0,0.0,0.0,0.0,0.0,0.0,0.0,0.0,0.0,0.0,-0.0184,-0.0367,-0.0367,-0.2661,-0.5081,-0.5081,-0.7279,-0.934,-0.9184,-0.9144,-0.9103,-0.9002,-0.8866,-0.8634,-0.8099,0.0,0.0,0.0,0.0,-0.4925,-0.5651,-0.5094,-0.4658,-0.4773,0.0,0.0,0.0,0.0,0.0,0.0,0.0,0.0,0.0,0.0,0.0,0.0,-0.8831,0.0,0.0,0.0,-0.8825,-0.8757,-0.915,-0.9422,-0.9578,-0.972,-0.9795,-0.9822,-0.9822,-0.9822,-0.9822,-0.9822,-0.9822,-0.9822,-0.9822,-0.9822,-0.9822,-0.9822,-0.9822,-0.9822,0.0,0.0,0.0,0.0,0.0,0.0,0.0,0.0,0.0,0.0,0.0,0.0,0.0,0.0,0.0,0.0,0.0,0.0,0.0,0.0,0.0,0.0,0.0,0.0,0.0,0.0,0.0,0.0,0.0,0.0,0.0,0.0,0.0,0.0,0.0,0.0,0.0,0.0,0.0,0.0,0.0,0.0,0.0,0.0,0.0,0.0,0.0,0.0,0.0,0.0,0.0,0.0,0.0,0.0,0.0,0.0,0.0,0.0,0.0,-0.1715,-0.377,-0.4619,-0.658,-0.8569,-0.934,-0.9496,-0.9456,-0.9357,-0.933,-0.8994,-0.8092,-0.7197,0.0,0.0,0.0,0.0,-0.6197,-0.5924,-0.5644,0.0,0.0,0.0,0.0,0.0,0.0,0.0,0.0,0.0,0.0,0.0,0.0,0.0,0.0,0.0,0.0,0.0,0.0,-0.8947,-0.932,-0.9537,-0.9612,-0.9754,-0.9822,-0.9822,-0.9822,-0.9822,-0.9822,-0.9822,-0.9822,-0.9822,-0.9822,-0.9822,-0.9822,-0.9822,-0.9822,-0.9822,0.0,0.0,0.0,0.0,0.0,0.0,0.0,0.0,0.0,0.0,0.0,0.0,0.0,0.0,0.0,0.0,0.0,0.0,0.0,0.0,0.0,0.0,0.0,0.0,0.0,0.0,0.0,0.0,0.0,0.0,0.0,0.0,0.0,0.0,0.0,0.0,0.0,0.0,0.0,0.0,0.0,0.0,0.0,0.0,0.0,0.0,0.0,0.0,0.0,0.0,0.0,0.0,0.0,0.0,0.0,0.0,0.0,0.0,0.0,-0.1233,-0.2831,-0.4057,-0.5892,-0.7707,-0.8888,-0.9413,-0.9612,-0.9462,-0.9401,-0.9103,-0.8157,-0.759,0.0,0.0,0.0,0.0,0.0,0.0,-0.6443,0.0,0.0,0.0,0.0,0.0,0.0,0.0,0.0,0.0,0.0,0.0,0.0,0.0,0.0,-0.8425,-0.8601,0.0,-0.8906,0.0,-0.9449,-0.9625,-0.9659,-0.9768,-0.9822,-0.9822,-0.9822,-0.9822,-0.9822,-0.9822,-0.9822,-0.9822,-0.9822,-0.9822,-0.9822,-0.9822,-0.9822,-0.9822,0.0,0.0,0.0,0.0,0.0,0.0,0.0,0.0,0.0,0.0,0.0,0.0,0.0,0.0,0.0,0.0,0.0,0.0,0.0,0.0,0.0,0.0,0.0,0.0,0.0,0.0,0.0,0.0,0.0,0.0,0.0,0.0,0.0,0.0,0.0,0.0,0.0,0.0,0.0,0.0,0.0,0.0,0.0,0.0,0.0,0.0,0.0,0.0,0.0,0.0,0.0,0.0,0.0,0.0,0.0,0.0,0.0,0.0,0.0,-0.1233,-0.2524,-0.2708,-0.5096,-0.7418,-0.7591,-0.8757,-0.9761,-0.9618,-0.9476,-0.9103,-0.8157,-0.8526,-0.8484,0.0,0.0,0.0,0.0,0.0,-0.6865,-0.7407,0.0,0.0,0.0,0.0,0.0,0.0,0.0,0.0,0.0,0.0,0.0,-0.7882,0.0,-0.776,-0.7522,-0.8634,-0.9062,-0.8905,-0.9401,-0.968,-0.9802,-0.9815,-0.9822,-0.9822,-0.9822,-0.9822,-0.9822,-0.9822,-0.9822,-0.9822,-0.9822,-0.9822,-0.9822,-0.9822,-0.9822,-0.9822,0.0,0.0,0.0,0.0,0.0,0.0,0.0,0.0,0.0,0.0,0.0,0.0,0.0,0.0,0.0,0.0,0.0,0.0,0.0,0.0,0.0,0.0,0.0,0.0,0.0,0.0,0.0,0.0,0.0,0.0,0.0,0.0,0.0,0.0,0.0,0.0,0.0,0.0,0.0,0.0,0.0,0.0,0.0,0.0,0.0,0.0,0.0,0.0,0.0,0.0,0.0,0.0,0.0,0.0,0.0,0.0,0.0,0.0,0.0,-0.0494,-0.1233,-0.2278,-0.3505,-0.4974,-0.693,-0.7911,-0.8636,-0.9506,-0.9618,-0.9408,-0.9049,-0.8784,-0.8579,0.0,0.0,0.0,0.0,0.0,0.0,-0.8377,0.0,-0.7366,0.0,0.0,0.0,0.0,0.0,0.0,0.0,0.0,0.0,-0.6987,0.0,-0.8255,-0.778,-0.8784,-0.9306,-0.9347,-0.9612,-0.9768,-0.9822,-0.9822,-0.9822,-0.9822,-0.9822,-0.9822,-0.9822,-0.9822,-0.9822,-0.9822,-0.9822,-0.9822,-0.9822,-0.9822,-0.9822,-0.9822,0.0,0.0,0.0,0.0,0.0,0.0,0.0,0.0,0.0,0.0,0.0,0.0,0.0,0.0,0.0,0.0,0.0,0.0,0.0,0.0,0.0,0.0,0.0,0.0,0.0,0.0,0.0,0.0,0.0,0.0,0.0,0.0,0.0,0.0,0.0,0.0,0.0,0.0,0.0,0.0,0.0,0.0,0.0,0.0,0.0,0.0,0.0,0.0,0.0,0.0,0.0,0.0,0.0,0.0,0.0,0.0,0.0,0.0,0.0,0.0,-0.0308,-0.1479,-0.2156,-0.3136,-0.5403,-0.632,-0.6996,-0.8099,-0.8702,-0.8809,-0.823,-0.8464,-0.8548,-0.8255,0.0,0.0,0.0,-0.8622,0.0,-0.8561,-0.818,-0.7828,-0.7678,0.0,0.0,0.0,0.0,0.0,0.0,0.0,0.0,0.0,0.0,0.0,0.0,-0.8974,-0.9503,-0.9612,-0.9754,-0.9822,-0.9822,-0.9822,-0.9822,-0.9822,-0.9822,-0.9822,-0.9822,-0.9822,-0.9822,-0.9822,-0.9822,-0.9822,-0.9822,-0.9822,-0.9849,-0.989,0.0,0.0,0.0,0.0,0.0,0.0,0.0,0.0,0.0,0.0,0.0,0.0,0.0,0.0,0.0,0.0,0.0,0.0,0.0,0.0,0.0,0.0,0.0,0.0,0.0,0.0,0.0,0.0,0.0,0.0,0.0,0.0,0.0,0.0,0.0,0.0,0.0,0.0,0.0,0.0,0.0,0.0,0.0,0.0,0.0,0.0,0.0,0.0,0.0,0.0,0.0,0.0,0.0,0.0,0.0,0.0,0.0,0.0,0.0,0.0,0.0,0.0,-0.1295,-0.2524,-0.2524,-0.3812,-0.4916,-0.4977,-0.6259,-0.6897,-0.5118,-0.7373,-0.8781,-0.626,0.0,0.0,0.0,-0.8002,0.0,-0.7841,-0.639,-0.6074,-0.7651,0.0,0.0,0.0,0.0,0.0,0.0,0.0,0.0,-0.776,-0.7914,0.0,-0.7988,-0.9083,-0.9605,-0.9612,-0.9754,-0.9822,-0.9822,-0.9822,-0.9822,-0.9822,-0.9822,-0.9822,-0.9822,-0.9822,-0.9822,-0.9822,-0.9822,-0.9822,-0.9822,-0.9822,-0.9856,-0.9984,0.0,0.0,0.0,0.0,0.0,0.0,0.0,0.0,0.0,0.0,0.0,0.0,0.0,0.0,0.0,0.0,0.0,0.0,0.0,0.0,0.0,0.0,0.0,0.0,0.0,0.0,0.0,0.0,0.0,0.0,0.0,0.0,0.0,0.0,0.0,0.0,0.0,0.0,0.0,0.0,0.0,0.0,0.0,0.0,0.0,0.0,0.0,0.0,0.0,0.0,0.0,0.0,0.0,0.0,0.0,0.0,0.0,0.0,0.0,0.0,0.0,0.0,-0.0432,-0.111,-0.2216,-0.3751,-0.4916,-0.4916,-0.5345,-0.5521,-0.4946,-0.5673,-0.6077,-0.5196,-0.566,0.0,-0.7137,0.0,-0.7613,-0.8635,-0.8313,-0.8113,0.0,-0.7285,0.0,0.0,0.0,0.0,0.0,0.0,0.0,0.0,-0.8343,0.0,-0.8343,-0.9184,-0.9659,-0.9754,-0.9802,-0.9822,-0.9822,-0.9822,-0.9822,-0.9822,-0.9822,-0.9822,-0.9822,-0.9822,-0.9822,-0.9822,-0.9822,-0.9822,-0.9822,-0.9822,-0.9856,-0.9984,0.0,0.0,0.0,0.0,0.0,0.0,0.0,0.0,0.0,0.0,0.0,0.0,0.0,0.0,0.0,0.0,0.0,0.0,0.0,0.0,0.0,0.0,0.0,0.0,0.0,0.0,0.0,0.0,0.0,0.0,0.0,0.0,0.0,0.0,0.0,0.0,0.0,0.0,0.0,0.0,0.0,0.0,0.0,0.0,0.0,0.0,0.0,0.0,0.0,0.0,0.0,0.0,0.0,0.0,0.0,0.0,0.0,0.0,0.0,0.0,0.0,0.0,0.0,-0.0247,-0.1295,-0.2339,-0.3077,-0.3077,-0.3566,-0.3812,-0.32,-0.4057,-0.4658,-0.4004,-0.434,-0.5204,-0.6749,-0.694,-0.7388,0.0,0.0,0.0,0.0,-0.8092,0.0,0.0,0.0,0.0,0.0,0.0,0.0,-0.7834,-0.8899,0.0,-0.8906,-0.9429,-0.9734,-0.9822,-0.9822,-0.9822,-0.9822,-0.9822,-0.9822,-0.9822,-0.9822,-0.9822,-0.9822,-0.9822,-0.9822,-0.9822,-0.9822,-0.9856,-0.9849,-0.9849,-1.0039,-1.0215,0.0,0.0,0.0,0.0,0.0,0.0,0.0,0.0,0.0,0.0,0.0,0.0,0.0,0.0,0.0,0.0,0.0,0.0,0.0,0.0,0.0,0.0,0.0,0.0,0.0,0.0,0.0,0.0,0.0,0.0,0.0,0.0,0.0,0.0,0.0,0.0,0.0,0.0,0.0,0.0,0.0,0.0,0.0,0.0,0.0,0.0,0.0,0.0,0.0,0.0,0.0,0.0,0.0,0.0,0.0,0.0,0.0,0.0,0.0,0.0,0.0,0.0,0.0,0.0,0.0,0.0,0.0,0.0,-0.1233,-0.1848,-0.0308,-0.2524,-0.4057,-0.2585,-0.3464,-0.499,-0.6731,-0.6823,-0.7142,0.0,0.0,0.0,0.0,-0.8408,-0.8621,0.0,0.0,0.0,0.0,0.0,-0.7521,-0.9354,-0.9551,-0.9625,-0.9625,-0.9754,-0.9822,-0.9822,-0.9822,-0.9822,-0.9822,-0.9822,-0.9822,-0.9822,-0.9822,-0.9822,-0.9822,-0.9822,-0.9822,-0.9822,-0.9836,-0.9862,-0.999,-0.9997,-1.0243,-1.0493,0.0,0.0,0.0,0.0,0.0,0.0,0.0,0.0,0.0,0.0,0.0,0.0,0.0,0.0,0.0,0.0,0.0,0.0,0.0,0.0,0.0,0.0,0.0,0.0,0.0,0.0,0.0,0.0,0.0,0.0,0.0,0.0,0.0,0.0,0.0,0.0,0.0,0.0,0.0,0.0,0.0,0.0,0.0,0.0,0.0,0.0,0.0,0.0,0.0,0.0,0.0,0.0,0.0,0.0,0.0,0.0,0.0,0.0,0.0,0.0,0.0,0.0,0.0,0.0,0.0,0.0,0.0,0.0,-0.0308,-0.0494,-0.0062,-0.0617,-0.1048,-0.0679,-0.0861,-0.2143,-0.5011,-0.5422,-0.6368,0.0,-0.9293,-0.9245,-0.913,-0.9225,-0.9035,0.0,0.0,0.0,0.0,-0.8214,-0.8533,-0.968,-0.9754,-0.9774,-0.9774,-0.9802,-0.9822,-0.9822,-0.9822,-0.9822,-0.9822,-0.9822,-0.9822,-0.9822,-0.9822,-0.9822,-0.9822,-0.9822,-0.9822,-0.9836,-0.9889,-0.9957,-1.0004,-1.0181,-1.0337,-1.0493,0.0,0.0,0.0,0.0,0.0,0.0,0.0,0.0,0.0,0.0,0.0,0.0,0.0,0.0,0.0,0.0,0.0,0.0,0.0,0.0,0.0,0.0,0.0,0.0,0.0,0.0,0.0,0.0,0.0,0.0,0.0,0.0,0.0,0.0,0.0,0.0,0.0,0.0,0.0,0.0,0.0,0.0,0.0,0.0,0.0,0.0,0.0,0.0,0.0,0.0,0.0,0.0,0.0,0.0,0.0,0.0,0.0,0.0,0.0,0.0,0.0,0.0,0.0,0.0,0.0,0.0,0.0,0.0,0.0,0.0,0.0,0.0,0.0,0.0,0.0,-0.0863,-0.3444,-0.4426,-0.5819,-0.8317,-0.9219,-0.9673,-0.9591,-0.9659,-0.9469,-0.8844,0.0,0.0,-0.8981,-0.9055,-0.932,-0.9802,-0.9822,-0.9822,-0.9822,-0.9822,-0.9822,-0.9822,-0.9822,-0.9822,-0.9822,-0.9822,-0.9822,-0.9822,-0.9822,-0.9822,-0.9822,-0.9822,-0.9863,-0.9869,-0.9957,-1.0071,-1.0263,-1.0344,-1.0473,-1.0595,0.0,0.0,0.0,0.0,0.0,0.0,0.0,0.0,0.0,0.0,0.0,0.0,0.0,0.0,0.0,0.0,0.0,0.0,0.0,0.0,0.0,0.0,0.0,0.0,0.0,0.0,0.0,0.0,0.0,0.0,0.0,0.0,0.0,0.0,0.0,0.0,0.0,0.0,0.0,0.0,0.0,0.0,0.0,0.0,0.0,0.0,0.0,0.0,0.0,0.0,0.0,0.0,0.0,0.0,0.0,0.0,0.0,0.0,0.0,0.0,0.0,0.0,0.0,0.0,0.0,0.0,0.0,0.0,0.0,0.0,0.0,0.0,0.0,0.0,0.0,-0.0614,-0.2243,0.0,-0.5223,-0.7179,-0.8587,-0.9511,-0.9761,-0.9822,-0.9822,-0.9822,-0.9822,-0.9822,-0.9822,-0.9822,-0.9822,-0.9822,-0.9822,-0.9822,-0.9822,-0.9822,-0.9822,-0.9822,-0.9822,-0.9822,-0.9822,-0.9822,-0.9822,-0.9822,-0.9822,-0.9822,-0.9822,-0.9842,-0.9869,-0.999,-1.0038,-1.027,-1.0493,-1.0521,-1.0609,-1.0717,0.0,0.0,0.0,0.0,0.0,0.0,0.0,0.0,0.0,0.0,0.0,0.0,0.0,0.0,0.0,0.0,0.0,0.0,0.0,0.0,0.0,0.0,0.0,0.0,0.0,0.0,0.0,0.0,0.0,0.0,0.0,0.0,0.0,0.0,0.0,0.0,0.0,0.0,0.0,0.0,0.0,0.0,0.0,0.0,0.0,0.0,0.0,0.0,0.0,0.0,0.0,0.0,0.0,0.0,0.0,0.0,0.0,0.0,0.0,0.0,0.0,0.0,0.0,0.0,0.0,0.0,0.0,0.0,0.0,0.0,0.0,0.0,0.0,0.0,0.0,-0.0603,-0.2246,0.0,-0.3996,-0.7052,-0.7606,-0.8282,-0.9694,-0.9822,-0.9822,-0.9822,-0.9822,-0.9822,-0.9822,-0.9822,-0.9822,-0.9822,-0.9822,-0.9822,-0.9822,-0.9822,-0.9822,-0.9822,-0.9822,-0.9822,-0.9822,-0.9822,-0.9822,-0.9822,-0.9822,-0.9822,-0.9829,-0.9896,-0.9963,-1.0011,-1.0324,-1.0453,-1.0507,-1.0636,-1.0697,-1.0717,0.0,0.0,0.0,0.0,0.0,0.0,0.0,0.0,0.0,0.0,0.0,0.0,0.0,0.0,0.0,0.0,0.0,0.0,0.0,0.0,0.0,0.0,0.0,0.0,0.0,0.0,0.0,0.0,0.0,0.0,0.0,0.0,0.0,0.0,0.0,0.0,0.0,0.0,0.0,0.0,0.0,0.0,0.0,0.0,0.0,0.0,0.0,0.0,0.0,0.0,0.0,0.0,0.0,0.0,0.0,0.0,0.0,0.0,0.0,0.0,0.0,0.0,0.0,0.0,0.0,0.0,0.0,0.0,0.0,0.0,0.0,0.0,0.0,0.0,0.0,-0.0244,-0.1057,-0.1926,-0.3382,-0.577,-0.6874,-0.8033,-0.9633,-0.9822,-0.9822,-0.9822,-0.9822,-0.9822,-0.9822,-0.9822,-0.9822,-0.9822,-0.9822,-0.9822,-0.9822,-0.9822,-0.9822,-0.9822,-0.9822,-0.9822,-0.9822,-0.9822,-0.9822,-0.9822,-0.9822,-0.9869,-0.9889,-0.9957,-1.0078,-1.0304,-1.0439,-1.0541,-1.0622,-1.0697,-1.0717,-1.0717,0.0,0.0,0.0,0.0,0.0,0.0,0.0,0.0,0.0,0.0,0.0,0.0,0.0,0.0,0.0,0.0,0.0,0.0,0.0,0.0,0.0,0.0,0.0,0.0,0.0,0.0,0.0,0.0,0.0,0.0,0.0,0.0,0.0,0.0,0.0,0.0,0.0,0.0,0.0,0.0,0.0,0.0,0.0,0.0,0.0,0.0,0.0,0.0,0.0,0.0,0.0,0.0,0.0,0.0,0.0,0.0,0.0,0.0,0.0,0.0,0.0,0.0,0.0,0.0,0.0,0.0,0.0,0.0,0.0,0.0,0.0,0.0,0.0,0.0,0.0,0.0,0.0,-0.1097,-0.2524,-0.4119,-0.5831,-0.7484,-0.9079,-0.9572,-0.9822,-0.9822,-0.9822,-0.9822,-0.9822,-0.9822,-0.9822,-0.9822,-0.9822,-0.9822,-0.9822,-0.9822,-0.9822,-0.9822,-0.9822,-0.9822,-0.9822,-0.9822,-0.9822,-0.9822,-0.9856,-0.9876,-0.999,-1.0058,-1.0283,-1.0493,-1.0527,-1.0616,-1.0717,-1.0717,-1.0717,-1.0717,0.0,0.0,0.0,0.0,0.0,0.0,0.0,0.0,0.0,0.0,0.0,0.0,0.0,0.0,0.0,0.0,0.0,0.0,0.0,0.0,0.0,0.0,0.0,0.0,0.0,0.0,0.0,0.0,0.0,0.0,0.0,0.0,0.0,0.0,0.0,0.0,0.0,0.0,0.0,0.0,0.0,0.0,0.0,0.0,0.0,0.0,0.0,0.0,0.0,0.0,0.0,0.0,0.0,0.0,0.0,0.0,0.0,0.0,0.0,0.0,0.0,0.0,0.0,0.0,0.0,0.0,0.0,0.0,0.0,0.0,0.0,0.0,0.0,0.0,0.0,0.0,0.0,-0.0118,-0.0802,-0.2462,-0.4119,-0.5712,-0.7423,-0.8897,-0.9822,-0.9822,-0.9822,-0.9822,-0.9822,-0.9822,-0.9822,-0.9822,-0.9822,-0.9822,-0.9822,-0.9822,-0.9822,-0.9822,-0.9822,-0.9822,-0.9822,-0.9822,-0.9822,-0.9829,-0.9909,-0.9977,-1.0011,-1.0344,-1.0473,-1.0507,-1.0649,-1.0711,-1.0717,-1.0717,-1.0717,-1.0717,0.0,0.0,0.0,0.0,0.0,0.0,0.0,0.0,0.0,0.0,0.0,0.0,0.0,0.0,0.0,0.0,0.0,0.0,0.0,0.0,0.0,0.0,0.0,0.0,0.0,0.0,0.0,0.0,0.0,0.0,0.0,0.0,0.0,0.0,0.0,0.0,0.0,0.0,0.0,0.0,0.0,0.0,0.0,0.0,0.0,0.0,0.0,0.0,0.0,0.0,0.0,0.0,0.0,0.0,0.0,0.0,0.0,0.0,0.0,0.0,0.0,0.0,0.0,0.0,0.0,0.0,0.0,0.0,0.0,0.0,0.0,0.0,0.0,0.0,0.0,0.0,0.0,0.0,-0.0617,-0.2279,-0.3935,-0.5529,-0.7235,-0.8836,-0.9822,-0.9822,-0.9822,-0.9822,-0.9822,-0.9822,-0.9822,-0.9822,-0.9822,-0.9822,-0.9822,-0.9822,-0.9822,-0.9822,-0.9822,-0.9822,-0.9822,-0.9856,-0.9903,-0.9909,-1.0127,-1.0243,-1.0331,-1.0446,-1.0548,-1.0636,-1.0697,-1.0717,-1.0717,-1.0717,-1.0717,-1.0717,0.0,0.0,0.0,0.0,0.0,0.0,0.0,0.0,0.0,0.0,0.0,0.0,0.0,0.0,0.0,0.0,0.0,0.0,0.0,0.0,0.0,0.0,0.0,0.0,0.0,0.0,0.0,0.0,0.0,0.0,0.0,0.0,0.0,0.0,0.0,0.0,0.0,0.0,0.0,0.0,0.0,0.0,0.0,0.0,0.0,0.0,0.0,0.0,0.0,0.0,0.0,0.0,0.0,0.0,0.0,0.0,0.0,0.0,0.0,0.0,0.0,0.0,0.0,0.0,0.0,0.0,0.0,0.0,0.0,0.0,0.0,0.0,0.0,0.0,0.0,0.0,0.0,0.0,-0.0432,-0.1602,-0.3628,-0.5345,-0.6503,-0.8532,-0.9822,-0.9822,-0.9822,-0.9822,-0.9822,-0.9822,-0.9822,-0.9822,-0.9822,-0.9822,-0.9822,-0.9822,-0.9822,-0.9822,-0.9822,-0.9822,-0.9829,-0.9916,-0.9984,-0.9997,-1.0263,-1.0399,-1.0493,-1.0548,-1.0622,-1.0717,-1.0717,-1.0717,-1.0717,-1.0717,-1.0717,-1.0717,0.0,0.0,0.0,0.0,0.0,0.0,0.0,0.0,0.0,0.0,0.0,0.0,0.0,0.0,0.0,0.0,0.0,0.0,0.0,0.0,0.0,0.0,0.0,0.0,0.0,0.0,0.0,0.0,0.0,0.0,0.0,0.0,0.0,0.0,0.0,0.0,0.0,0.0,0.0,0.0,0.0,0.0,0.0,0.0,0.0,0.0,0.0,0.0,0.0,0.0,0.0,0.0,0.0,0.0,0.0,0.0,0.0,0.0,0.0,0.0,0.0,0.0,0.0,0.0,0.0,0.0,0.0,0.0,0.0,0.0,0.0,0.0,0.0,0.0,0.0,0.0,0.0,0.0,0.0,0.0,-0.2893,-0.4916,-0.4916,-0.7856,-0.9761,-0.9822,-0.9822,-0.9822,-0.9822,-0.9822,-0.9822,-0.9822,-0.9822,-0.9822,-0.9822,-0.9822,-0.9822,-0.9822,-0.9822,-0.9822,-0.9829,-0.9923,-0.999,-1.0004,-1.0365,-1.0493,-1.0507,-1.0656,-1.0717,-1.0717,-1.0717,-1.0717,-1.0717,-1.0717,-1.0717,-1.0717,0.0,0.0,0.0,0.0,0.0,0.0,0.0,0.0,0.0,0.0,0.0,0.0,0.0,0.0,0.0,0.0,0.0,0.0,0.0,0.0,0.0,0.0,0.0,0.0,0.0,0.0,0.0,0.0,0.0,0.0,0.0,0.0,0.0,0.0,0.0,0.0,0.0,0.0,0.0,0.0,0.0,0.0,0.0,0.0,0.0,0.0,0.0,0.0,0.0,0.0,0.0,0.0,0.0,0.0,0.0,0.0,0.0,0.0,0.0,0.0,0.0,0.0,0.0,0.0,0.0,0.0,0.0,0.0,0.0,0.0,0.0,0.0,0.0,0.0,0.0,0.0,0.0,0.0,0.0,0.0,-0.191,-0.3689,-0.4794,-0.6874,-0.8587,-0.97,-0.9822,-0.9822,-0.9822,-0.9822,-0.9822,-0.9822,-0.9862,-0.9869,-0.9822,-0.9822,-0.9822,-0.9822,-0.9869,-0.9916,-0.993,-1.0243,-1.0358,-1.0371,-1.0568,-1.0649,-1.0656,-1.0704,-1.0717,-1.0717,-1.0717,-1.0717,-1.0717,-1.0717,-1.0717,-1.0717,0.0,0.0,0.0,0.0,0.0,0.0,0.0,0.0,0.0,0.0,0.0,0.0,0.0,0.0,0.0,0.0,0.0,0.0,0.0,0.0,0.0,0.0,0.0,0.0,0.0,0.0,0.0,0.0,0.0,0.0,0.0,0.0,0.0,0.0,0.0,0.0,0.0,0.0,0.0,0.0,0.0,0.0,0.0,0.0,0.0,0.0,0.0,0.0,0.0,0.0,0.0,0.0,0.0,0.0,0.0,0.0,0.0,0.0,0.0,0.0,0.0,0.0,0.0,0.0,0.0,0.0,0.0,0.0,0.0,0.0,0.0,0.0,0.0,0.0,0.0,0.0,0.0,0.0,0.0,0.0,-0.1479,-0.2893,-0.3873,-0.6109,-0.8189,-0.9875,-1.0005,-1.0005,-1.0005,-1.0005,-1.0005,-1.0005,-1.0093,-1.0093,-1.0005,-1.0005,-0.9971,-0.9849,-1.0066,-1.0141,-1.0148,-1.0385,-1.0493,-1.05,-1.0656,-1.0717,-1.0717,-1.0717,-1.0717,-1.0717,-1.0717,-1.0717,-1.0717,-1.0717,-1.0717,-1.0717,0.0,0.0,0.0,0.0,0.0,0.0,0.0,0.0,0.0,0.0,0.0,0.0,0.0,0.0,0.0,0.0,0.0,0.0,0.0,0.0,0.0,0.0,0.0,0.0,0.0,0.0,0.0,0.0,0.0,0.0,0.0,0.0,0.0,0.0,0.0,0.0,0.0,0.0,0.0,0.0,0.0,0.0,0.0,0.0,0.0,0.0,0.0,0.0,0.0,0.0,0.0,0.0,0.0,0.0,0.0,0.0,0.0,0.0,0.0,0.0,0.0,0.0,0.0,0.0,0.0,0.0,0.0,0.0,0.0,0.0,0.0,0.0,0.0,0.0,0.0,0.0,0.0,0.0,0.0,0.0,-0.1361,-0.2349,-0.2472,-0.5617,-0.8283,-0.9945,-1.0213,-1.0283,-1.0283,-1.0283,-1.0283,-1.0283,-1.029,-1.029,-1.0283,-1.0304,-1.0236,-1.0011,-1.0222,-1.0297,-1.0304,-1.0446,-1.0514,-1.0521,-1.0663,-1.0717,-1.0717,-1.0717,-1.0717,-1.0717,-1.0717,-1.0717,-1.0717,-1.0717,-1.0717,-1.0717,0.0,0.0,0.0,0.0,0.0,0.0,0.0,0.0,0.0,0.0,0.0,0.0,0.0,0.0,0.0,0.0,0.0,0.0,0.0,0.0,0.0,0.0,0.0,0.0,0.0,0.0,0.0,0.0,0.0,0.0,0.0,0.0,0.0,0.0,0.0,0.0,0.0,0.0,0.0,0.0,0.0,0.0,0.0,0.0,0.0,0.0,0.0,0.0,0.0,0.0,0.0,0.0,0.0,0.0,0.0,0.0,0.0,0.0,0.0,0.0,0.0,0.0,0.0,0.0,0.0,0.0,0.0,0.0,0.0,0.0,0.0,0.0,0.0,0.0,0.0,0.0,0.0,0.0,0.0,0.0,-0.032,-0.1086,-0.2358,-0.5612,-0.7737,-0.8151,-0.9506,-1.0283,-1.0283,-1.0283,-1.0283,-1.0283,-1.0385,-1.0392,-1.0283,-1.0507,-1.0493,-1.0236,-1.0378,-1.0446,-1.0453,-1.0602,-1.067,-1.067,-1.0704,-1.0717,-1.0717,-1.0717,-1.0717,-1.0717,-1.0717,-1.0717,-1.0717,-1.0717,-1.0717,-1.0717,0.0,0.0,0.0,0.0,0.0,0.0,0.0,0.0,0.0,0.0,0.0,0.0,0.0,0.0,0.0,0.0,0.0,0.0,0.0,0.0,0.0,0.0,0.0,0.0,0.0,0.0,0.0,0.0,0.0,0.0,0.0,0.0,0.0,0.0,0.0,0.0,0.0,0.0,0.0,0.0,0.0,0.0,0.0,0.0,0.0,0.0,0.0,0.0,0.0,0.0,0.0,0.0,0.0,0.0,0.0,0.0,0.0,0.0,0.0,0.0,0.0,0.0,0.0,0.0,0.0,0.0,0.0,0.0,0.0,0.0,0.0,0.0,0.0,0.0,0.0,0.0,0.0,0.0,0.0,0.0,0.0,-0.0711,-0.2402,-0.4217,-0.5984,-0.7657,-0.8649,-0.9565,-1.0422,-1.0487,-1.0487,-1.0487,-1.0561,-1.0568,-1.0493,-1.0643,-1.0643,-1.0493,-1.0568,-1.0602,-1.0602,-1.0683,-1.0717,-1.0717,-1.0717,-1.0717,-1.0717,-1.0717,-1.0717,-1.0717,-1.0717,-1.0717,-1.0717,-1.0717,-1.0717,-1.0717,0.0,0.0,0.0,0.0,0.0,0.0,0.0,0.0,0.0,0.0,0.0,0.0,0.0,0.0,0.0,0.0,0.0,0.0,0.0,0.0,0.0,0.0,0.0,0.0,0.0,0.0,0.0,0.0,0.0,0.0,0.0,0.0,0.0,0.0,0.0,0.0,0.0,0.0,0.0,0.0,0.0,0.0,0.0,0.0,0.0,0.0,0.0,0.0,0.0,0.0,0.0,0.0,0.0,0.0,0.0,0.0,0.0,0.0,0.0,0.0,0.0,0.0,0.0,0.0,0.0,0.0,0.0,0.0,0.0,0.0,0.0,0.0,0.0,0.0,0.0,0.0,0.0,0.0,0.0,0.0,0.0,-0.0588,-0.2109,-0.2507,-0.3907,-0.6889,-0.7631,-0.8634,-1.018,-1.0518,-1.0717,-1.0717,-1.0717,-1.0717,-1.0717,-1.0717,-1.0717,-1.0717,-1.0717,-1.0717,-1.0717,-1.0717,-1.0717,-1.0717,-1.0717,-1.0717,-1.0717,-1.0717,-1.0717,-1.0717,-1.0717,-1.0717,-1.0717,-1.0717,-1.0717,-1.0717,0.0,0.0,0.0,0.0,0.0,0.0,0.0,0.0,0.0,0.0,0.0,0.0,0.0,0.0,0.0,0.0,0.0,0.0,0.0,0.0,0.0,0.0,0.0,0.0,0.0,0.0,0.0,0.0,0.0,0.0,0.0,0.0,0.0,0.0,0.0,0.0,0.0,0.0,0.0,0.0,0.0,0.0,0.0,0.0,0.0,0.0,0.0,0.0,0.0,0.0,0.0,0.0,0.0,0.0,0.0,0.0,0.0,0.0,0.0,0.0,0.0,0.0,0.0,0.0,0.0,0.0,0.0,0.0,0.0,0.0,0.0,0.0,0.0,0.0,0.0,0.0,0.0,0.0,0.0,0.0,0.0,-0.0067,-0.0335,-0.1808,-0.2879,-0.3354,-0.6293,-0.8097,-0.8363,-0.9842,-1.0717,-1.0717,-1.0717,-1.0717,-1.0717,-1.0717,-1.0717,-1.0717,-1.0717,-1.0717,-1.0717,-1.0717,-1.0717,-1.0717,-1.0717,-1.0717,-1.0717,-1.0717,-1.0717,-1.0717,-1.0717,-1.0717,-1.0717,-1.0717,-1.0717,-1.0717,0.0,0.0,0.0,0.0,0.0,0.0,0.0,0.0,0.0,0.0,0.0,0.0,0.0,0.0,0.0,0.0,0.0,0.0,0.0,0.0,0.0,0.0,0.0,0.0,0.0,0.0,0.0,0.0,0.0,0.0,0.0,0.0,0.0,0.0,0.0,0.0,0.0,0.0,0.0,0.0,0.0,0.0,0.0,0.0,0.0,0.0,0.0,0.0,0.0,0.0,0.0,0.0,0.0,0.0,0.0,0.0,0.0,0.0,0.0,0.0,0.0,0.0,0.0,0.0,0.0,0.0,0.0,0.0,0.0,0.0,0.0,0.0,0.0,0.0,0.0,0.0,0.0,0.0,0.0,0.0,0.0,0.0,0.0,-0.074,-0.1613,-0.2618,-0.5091,-0.6965,-0.7964,-0.9709,-1.0717,-1.0717,-1.0717,-1.0717,-1.0717,-1.0717,-1.0717,-1.0717,-1.0717,-1.0717,-1.0717,-1.0717,-1.0717,-1.0717,-1.0717,-1.0717,-1.0717,-1.0717,-1.0717,-1.0717,-1.0717,-1.0717,-1.0717,-1.0717,-1.0717,-1.0717]}]]